GFSCGP_con_3kmhel_000.txt.gz
Helicity
85 208 194 141 123 77 75 87 88 122 48 78 67 80 42 52 121 158 177 174 175 147 76 83 90 96 93 113 123 120 130 114 241 271 231 211 216 223 220 217 190 201 214 207
165 87 129 115 112 78 69 54 72 91 34 34 55 50 46 89 81 100 109 111 100 95 127 141 136 138 144 117 107 97 107 117 64 160 206 210 177 174 185 170 140 134 150 178
274 171 116 119 86 92 90 59 58 46 62 41 43 61 86 131 138 123 119 92 92 106 118 133 138 135 138 163 134 106 75 81 77 46 96 138 154 131 109 89 78 76 90 114
134 162 120 108 91 119 64 39 68 66 47 53 43 57 99 124 97 98 74 91 105 110 103 96 111 131 126 123 103 77 58 65 83 107 117 132 120 104 97 76 72 64 57 69
261 175 114 112 33 88 60 74 86 78 46 59 70 77 50 148 86 99 54 86 100 114 103 100 96 94 98 94 85 82 94 132 130 141 147 155 174 152 131 143 163 173 169 161
205 172 152 102 98 98 84 137 157 117 77 81 62 98 40 158 123 125 74 86 110 116 103 95 98 104 94 88 92 89 95 135 184 217 244 250 248 227 213 198 185 169 162 154
316 213 185 165 206 199 167 178 158 141 143 82 98 136 41 63 90 176 151 117 142 131 100 106 94 77 73 82 76 74 107 156 186 202 218 189 165 155 154 145 125 122 117 116
283 273 166 154 119 122 122 126 160 123 124 116 140 106 66 36 63 226 203 168 150 135 118 88 77 69 76 79 101 124 136 167 173 167 147 132 127 102 98 92 78 85 91 93
179 257 208 161 185 135 120 108 60 131 138 146 113 83 49 77 203 227 243 186 126 103 77 82 81 105 113 149 135 107 100 119 142 140 136 139 115 109 91 81 70 77 84 95
160 156 179 154 154 130 100 85 127 136 120 109 121 88 60 68 151 222 203 127 93 79 114 108 93 115 172 176 159 157 123 98 105 120 112 99 91 92 87 74 79 79 80 80
129 117 201 153 121 90 119 116 119 104 90 81 96 63 57 44 119 160 83 70 94 127 110 100 152 242 256 221 189 151 113 115 131 119 103 95 79 59 45 49 53 61 61 61
144 98 190 126 97 76 59 49 85 84 63 71 49 47 52 33 60 85 68 92 108 122 132 199 255 276 267 230 195 163 141 135 119 102 94 83 76 82 89 99 108 113 109 99
104 115 192 131 98 90 62 80 82 103 83 48 50 47 65 110 80 116 140 81 100 204 287 299 319 295 250 226 190 162 146 124 108 100 98 97 100 107 108 106 109 111 111 101
83 81 69 72 43 83 82 87 97 99 84 67 78 79 88 97 134 120 64 25 178 247 246 283 289 249 247 193 194 180 148 126 114 120 113 91 101 124 126 120 117 107 92 79
65 53 59 88 63 75 64 89 86 96 103 59 53 47 66 82 71 26 27 137 207 206 219 261 269 244 175 177 220 166 151 145 126 109 99 96 119 126 118 118 104 90 79 70
103 75 82 83 84 59 50 58 49 53 66 47 48 -5 54 75 76 103 109 111 117 134 225 269 252 204 162 183 204 173 147 118 94 85 95 118 137 138 121 105 104 96 87 77
109 95 111 82 85 55 28 30 61 74 80 43 5 57 77 79 85 102 51 72 128 217 233 241 245 220 214 199 166 151 132 104 159 148 160 163 151 133 112 94 86 79 63 50
65 75 66 13 57 34 59 74 63 102 143 99 99 85 70 74 52 79 83 91 172 242 301 297 280 273 236 197 159 87 165 229 200 159 157 150 134 122 90 79 68 63 57 59
116 101 78 45 58 66 74 114 115 110 127 127 119 109 83 61 93 87 44 60 147 259 291 315 305 253 208 127 66 190 261 233 211 192 161 148 126 101 91 88 83 87 83 84
168 150 112 100 68 45 79 114 86 83 97 139 105 106 76 73 43 -49 10 134 310 370 354 315 234 212 149 75 215 279 240 218 186 163 137 120 98 90 91 82 87 93 101 99
118 120 82 79 45 64 62 77 54 104 89 131 107 85 54 31 57 94 197 253 288 296 292 270 198 173 196 207 234 254 206 176 148 127 109 98 91 88 72 88 101 105 105 90
84 100 84 114 77 50 108 111 114 123 126 101 85 65 60 58 85 144 187 168 177 303 344 300 261 218 215 263 247 200 170 144 136 120 104 92 87 86 87 94 108 103 99 98
91 92 81 78 74 106 159 132 124 104 88 65 55 35 41 47 76 100 151 247 285 328 344 301 253 217 245 236 193 163 150 135 121 108 93 87 99 107 92 105 113 113 95 96
111 75 93 117 129 169 84 98 64 26 13 -15 -23 34 70 76 90 152 199 237 276 298 269 202 223 223 204 172 145 139 132 124 117 112 109 112 110 92 116 115 110 113 99 93
80 94 104 88 88 111 135 91 9 -5 18 54 80 82 84 104 117 151 178 194 213 192 180 213 190 168 157 146 136 131 130 125 124 121 113 115 130 129 126 114 115 101 101 89
91 89 104 57 66 109 113 119 99 118 120 87 83 119 156 140 124 161 180 206 200 208 206 188 164 148 130 125 115 126 127 124 128 132 148 159 153 136 128 125 124 75 70 84

GFSCGP_con_3kmhel_003.txt.gz
Helicity
160 253 193 109 67 115 65 63 94 69 65 -2 30 44 46 14 -3 117 115 128 131 150 136 131 124 128 120 125 104 92 92 68 55 122 142 127 134 126 113 117 122 120 114 113
221 107 82 94 120 84 85 66 63 62 57 -1 9 15 35 28 62 91 118 116 103 110 135 136 133 135 136 119 116 104 87 74 31 6 0 20 17 35 34 33 39 60 68 73
198 147 137 98 101 71 65 49 47 42 77 12 13 2 71 85 103 97 98 105 113 106 104 121 125 127 114 124 108 96 84 78 61 23 21 45 64 91 115 110 116 116 111 113
163 189 153 105 103 93 74 55 47 54 48 24 28 10 28 83 109 79 104 98 94 85 86 95 109 118 117 98 69 63 83 100 109 109 119 137 125 117 101 80 88 138 139 138
250 175 106 97 138 140 31 30 46 49 52 31 52 45 -2 98 85 74 78 70 77 72 70 89 90 84 74 67 67 79 104 124 112 140 138 145 162 151 141 154 163 161 149 127
215 172 107 95 59 79 59 123 141 99 59 16 60 104 34 99 105 121 92 61 71 70 79 76 74 68 79 95 110 99 102 130 144 159 176 166 165 155 153 150 134 116 103 95
266 185 149 184 161 137 140 172 147 106 109 31 53 93 44 28 74 149 144 82 70 80 63 55 70 89 115 115 95 97 118 141 130 135 133 124 115 109 97 80 65 68 65 64
262 223 109 163 133 137 159 124 132 70 65 33 123 72 49 51 35 82 183 128 103 72 66 83 88 114 112 108 119 122 103 112 110 91 94 98 100 76 74 80 73 81 84 81
314 242 275 208 209 175 199 152 88 100 95 83 91 70 54 57 80 126 196 160 83 65 93 98 111 140 130 151 140 114 104 96 98 94 85 93 89 91 81 78 69 68 62 70
258 292 293 233 207 256 138 135 151 158 98 76 111 74 65 72 54 85 161 111 48 101 126 120 154 160 177 169 153 134 99 84 78 87 92 92 96 78 59 46 64 70 71 69
172 177 270 178 155 154 223 169 192 114 103 85 90 63 41 42 37 62 92 27 81 122 114 154 199 235 214 186 154 127 113 104 109 113 98 90 81 72 52 48 57 81 83 87
201 111 194 193 145 122 131 99 135 124 84 88 47 24 44 36 60 82 34 109 118 102 132 199 264 242 223 193 174 141 119 118 119 104 90 73 53 64 87 88 99 96 90 91
133 134 160 203 159 141 99 104 112 113 88 23 45 30 71 82 69 65 97 121 136 151 258 319 285 252 215 197 167 133 125 126 112 88 69 75 93 91 95 97 104 106 106 95
105 93 82 141 88 110 119 109 112 121 74 64 78 71 75 102 117 149 178 123 144 207 232 292 281 223 219 206 174 165 166 157 133 104 106 118 109 126 122 110 121 121 104 82
84 60 84 129 95 112 93 150 172 159 157 107 60 78 109 117 123 104 98 119 133 184 253 232 217 218 232 188 186 211 210 175 110 106 100 93 136 118 108 120 121 108 96 90
109 69 98 119 133 94 80 88 115 129 105 82 75 63 71 142 178 169 125 101 121 164 188 201 224 241 208 235 235 206 171 152 126 91 78 168 135 127 138 145 143 128 107 89
99 76 95 91 93 90 79 51 87 106 101 89 86 87 185 156 124 129 112 60 47 96 188 234 245 240 259 265 231 208 186 133 107 63 137 157 148 152 156 140 122 108 86 67
96 112 105 55 105 78 60 102 90 132 180 187 224 193 164 109 115 79 52 14 8 92 186 241 247 292 313 266 260 187 110 110 86 134 164 155 164 159 145 128 109 96 85 81
143 122 53 47 74 81 82 80 122 119 163 213 178 166 142 88 92 78 64 24 7 121 229 261 307 324 299 277 194 125 66 116 167 175 158 154 158 154 144 134 117 102 97 90
84 76 66 50 51 37 41 183 198 154 110 167 157 123 90 49 68 5 2 26 111 203 269 292 294 280 251 160 75 94 91 178 186 151 139 141 146 144 136 123 114 102 104 110
166 153 112 118 58 79 92 129 158 127 77 97 97 64 37 20 -10 8 39 90 142 193 247 277 269 268 209 112 114 133 172 194 148 139 132 134 132 139 125 127 117 121 120 112
88 112 102 139 89 39 115 160 113 97 99 77 60 43 54 49 44 41 67 120 168 230 265 269 257 229 199 152 140 183 202 143 134 129 128 130 133 126 113 121 138 133 131 124
95 112 103 96 95 95 119 96 100 75 59 45 48 18 5 -2 12 37 70 121 163 205 233 230 227 212 168 173 207 187 149 139 123 125 128 132 128 128 128 165 152 144 126 122
115 125 119 113 95 113 98 134 111 78 46 21 5 4 34 55 77 81 128 148 189 209 204 208 207 212 213 193 178 143 122 124 128 128 127 127 145 143 171 175 152 152 142 139
102 119 125 133 122 132 116 111 68 38 47 42 65 82 94 120 128 124 124 149 183 204 220 224 226 202 178 158 136 136 139 135 130 132 140 152 173 172 176 171 170 156 154 138
122 126 143 84 77 137 97 85 79 59 69 101 105 122 149 142 116 136 146 170 202 211 221 209 192 179 158 140 132 143 131 128 138 150 159 167 173 180 185 195 189 125 96 69

GFSCGP_con_3kmhel_006.txt.gz
Helicity
153 206 186 154 117 106 80 89 72 100 70 7 38 27 99 65 17 26 60 97 130 155 125 131 143 126 105 103 98 110 114 96 36 36 33 19 -0 9 18 25 28 40 49 62
181 162 102 144 146 108 105 91 74 64 72 -30 19 19 66 31 8 28 85 111 110 108 147 147 138 138 131 114 123 131 116 90 39 2 2 17 36 67 81 103 130 137 129 131
213 115 87 140 154 96 73 45 49 54 30 -29 -27 -42 41 55 79 84 123 126 103 96 93 95 121 123 125 138 116 93 83 85 77 47 22 54 89 137 160 165 155 147 118 117
208 111 180 166 132 108 51 22 47 81 33 -15 -1 -34 29 44 79 108 124 103 81 72 63 85 93 118 101 72 61 72 80 70 69 60 76 102 85 83 62 56 58 85 91 91
228 89 108 136 79 99 30 13 14 52 18 -15 -9 17 -22 49 76 75 93 86 47 60 57 76 98 87 69 63 61 56 69 89 80 103 84 68 78 46 50 75 90 95 91 82
154 140 147 150 127 88 77 68 89 93 52 -7 -1 69 24 39 104 125 102 78 46 64 70 92 92 80 82 74 80 66 81 92 107 112 109 97 103 90 90 93 76 64 49 42
163 127 169 115 144 152 182 126 89 89 102 47 39 51 70 24 38 88 128 78 51 57 68 77 86 93 87 87 77 77 84 94 76 90 105 99 82 80 80 73 68 65 49 31
213 169 149 140 134 121 111 140 137 103 70 29 59 36 24 41 36 26 105 128 86 64 59 75 87 85 78 94 104 104 99 102 91 82 79 76 84 61 64 66 50 39 34 30
253 234 212 170 142 152 109 103 97 111 90 33 36 50 48 56 61 72 145 181 91 72 72 92 99 88 99 134 135 108 96 90 83 69 63 73 70 69 55 39 22 38 51 63
237 209 236 231 167 184 95 127 150 157 77 52 54 48 48 64 67 60 119 137 116 99 99 114 112 121 155 157 135 135 113 96 83 84 82 73 67 56 52 53 65 68 81 92
203 215 247 173 157 202 243 223 207 145 132 85 70 59 17 36 44 46 57 114 120 101 98 114 141 179 188 178 172 151 134 121 113 98 90 94 90 68 50 55 70 105 100 77
209 136 233 259 211 175 176 155 182 153 141 124 60 34 11 5 15 113 120 128 92 80 108 162 180 225 221 206 198 176 152 135 117 127 136 91 62 61 70 71 87 70 68 76
143 152 256 240 190 240 170 182 188 160 139 75 71 57 46 64 90 96 119 95 96 146 201 222 236 255 232 208 225 192 169 155 152 138 112 93 78 57 47 63 122 102 91 92
144 127 121 146 123 158 137 169 194 189 112 93 87 62 53 78 116 129 134 139 116 171 210 231 273 257 241 245 232 205 200 198 173 149 121 86 60 52 73 79 85 94 92 80
119 110 118 123 119 188 144 157 195 169 144 120 55 87 93 100 132 138 129 125 138 147 196 236 264 264 253 254 245 248 263 229 174 138 94 71 81 96 85 87 90 92 100 108
128 122 150 124 137 120 115 123 154 208 208 198 155 113 118 138 139 160 178 191 128 131 161 219 259 251 260 265 279 277 238 182 111 74 65 83 98 98 88 89 99 110 107 95
109 98 93 100 88 97 98 64 121 171 183 180 165 127 143 180 179 205 211 149 120 99 148 209 237 257 268 276 261 247 191 105 53 69 62 82 100 96 101 107 110 108 107 109
82 106 100 51 105 89 58 78 95 169 146 148 175 195 208 212 220 193 140 144 111 95 145 230 279 299 280 266 245 178 113 81 96 33 38 78 116 120 111 110 105 115 125 133
137 123 105 78 89 72 68 73 105 147 133 211 260 265 258 212 169 158 130 99 59 56 144 229 249 265 283 248 192 169 125 119 68 50 83 124 122 117 108 115 128 130 133 136
159 149 108 98 68 18 59 127 142 149 112 149 189 187 164 159 142 80 91 57 72 125 191 228 264 264 238 215 182 152 143 112 81 112 116 113 108 113 136 128 115 140 139 149
171 177 133 131 79 101 74 113 136 134 68 187 194 167 131 86 55 54 51 57 90 112 162 205 224 218 204 182 178 164 132 103 114 109 111 118 131 131 114 130 139 142 151 159
69 98 81 125 60 11 169 208 140 121 156 146 119 88 67 39 26 20 8 40 84 123 163 192 218 208 195 196 185 151 125 113 112 116 120 124 123 117 121 129 137 151 162 169
92 115 86 101 97 160 116 124 158 114 88 63 60 40 38 27 24 51 65 72 94 124 172 198 211 217 201 179 167 147 131 127 123 126 126 126 116 123 116 122 130 161 170 192
104 131 131 134 126 153 176 176 126 90 74 64 62 36 22 33 70 76 90 107 136 155 166 200 214 196 180 173 145 135 132 131 133 128 125 124 126 100 131 142 160 184 190 195
100 124 126 145 144 158 118 127 110 123 109 84 80 70 78 78 86 107 107 116 134 151 177 207 206 188 164 152 159 152 139 141 140 136 127 118 122 119 126 147 167 172 184 156
87 100 137 84 83 133 84 116 128 121 107 101 80 84 104 105 97 115 122 133 145 161 193 197 180 175 163 155 141 142 150 147 136 124 110 108 117 132 143 156 167 123 93 71

GFSCGP_con_3kmhel_009.txt.gz
Helicity
85 182 152 131 141 148 105 84 53 95 104 59 54 -1 120 75 53 78 59 74 103 131 112 113 137 146 135 160 145 140 121 77 33 41 63 100 119 114 135 134 151 146 133 131
165 134 99 115 121 138 119 97 113 110 91 40 36 1 59 34 17 39 52 69 96 135 142 158 160 156 154 124 122 137 125 96 68 40 22 37 70 118 124 142 165 160 155 144
147 118 102 94 122 122 109 111 98 111 92 15 -29 -32 29 40 64 67 78 108 127 137 126 122 162 165 128 140 132 112 107 96 72 25 27 58 83 118 142 154 132 131 114 106
162 56 127 98 92 113 68 50 28 77 92 42 -4 -20 29 39 27 56 114 129 160 129 112 104 121 119 105 88 80 94 105 100 98 95 127 157 133 128 95 86 77 82 89 82
188 56 123 94 93 88 68 43 67 83 78 -2 16 25 41 70 71 66 79 79 94 104 91 91 87 72 70 74 83 77 93 102 104 121 103 85 85 54 57 69 86 86 74 67
162 50 129 117 93 136 78 124 126 72 47 37 26 47 81 33 6 77 88 59 76 91 97 82 74 65 86 88 90 78 95 94 100 111 102 94 86 81 84 94 86 65 37 11
115 208 170 167 165 193 151 121 150 136 106 44 31 49 53 41 9 24 75 59 72 80 95 81 70 74 91 98 82 91 118 128 109 114 109 96 90 95 90 76 65 64 37 15
227 273 170 64 94 140 170 158 145 112 71 36 36 38 32 34 38 20 67 114 99 92 89 74 72 86 102 95 104 132 140 129 126 117 116 106 100 71 69 70 48 35 35 23
195 224 164 138 140 139 132 142 134 87 65 64 47 43 27 26 41 75 94 153 106 98 97 82 86 103 110 117 134 163 172 152 131 115 107 107 88 81 53 51 49 40 39 61
164 204 180 174 186 244 98 158 151 166 85 86 57 45 48 49 57 68 73 103 100 125 104 104 109 125 137 164 184 212 190 169 135 126 111 102 101 82 55 57 74 83 102 118
139 177 287 187 190 155 194 155 147 138 136 87 74 47 47 114 77 26 36 70 97 98 101 119 136 148 176 226 233 216 197 174 161 149 136 136 100 71 63 79 89 105 109 89
169 134 196 203 183 147 170 162 109 168 139 117 92 77 12 -13 6 16 59 78 91 106 120 141 165 198 229 265 239 216 218 192 168 151 143 116 93 88 102 91 105 110 91 76
167 160 253 197 170 174 152 177 175 146 144 96 95 67 45 70 57 46 74 63 89 132 158 199 245 247 257 275 223 223 234 193 162 156 152 131 106 108 102 95 99 99 87 79
130 141 125 167 129 201 219 218 201 190 147 119 113 82 64 40 47 83 84 90 127 143 197 244 262 256 266 238 232 234 222 193 165 160 136 110 103 77 65 95 110 89 77 77
132 131 114 149 151 213 220 193 197 200 164 156 123 116 71 54 75 138 190 182 158 169 206 223 250 252 250 256 248 232 227 197 167 158 124 112 44 27 107 118 89 79 78 65
100 62 96 131 113 117 145 150 176 147 210 186 149 98 79 131 175 179 162 145 145 154 170 175 209 232 248 256 253 250 228 206 165 121 119 52 31 75 102 89 82 72 65 67
88 89 79 108 104 92 121 81 128 139 175 145 183 110 166 187 176 180 208 221 206 183 129 148 185 229 267 263 263 248 218 172 131 119 90 85 79 88 93 85 81 88 73 59
155 109 123 128 126 94 55 83 105 175 108 197 189 161 190 215 253 255 255 226 218 143 122 163 236 278 283 276 254 222 184 162 123 88 86 84 101 115 102 100 89 78 67 70
102 135 111 113 102 60 48 42 86 130 93 125 170 204 244 280 277 267 239 187 127 106 93 155 227 268 274 255 228 200 181 119 95 101 93 120 117 110 103 95 79 66 72 79
128 120 90 77 83 65 42 52 85 92 67 134 201 224 261 263 224 156 132 117 103 94 126 198 242 263 262 234 208 184 156 124 118 104 113 111 104 96 87 78 71 63 73 80
153 165 142 140 105 78 46 73 83 108 35 180 211 212 197 193 153 137 110 92 87 129 174 201 218 220 214 202 176 181 145 128 115 112 114 101 88 85 75 75 59 71 82 91
139 129 112 127 106 43 136 154 121 98 169 198 198 176 157 123 109 94 80 77 104 133 150 170 203 210 193 189 184 155 126 125 127 114 87 83 93 94 87 66 72 81 88 99
90 125 102 103 81 105 135 149 177 124 118 120 132 106 92 84 63 46 42 58 81 102 127 156 181 196 187 181 171 143 139 128 100 90 98 102 94 87 65 68 82 100 101 114
81 96 110 107 108 117 130 206 167 150 152 131 114 92 87 78 64 63 68 73 83 98 132 166 180 171 172 170 154 144 117 94 98 99 94 93 84 61 77 98 105 113 109 109
72 95 104 124 137 177 172 194 192 201 172 159 143 101 80 67 62 74 80 86 100 128 145 166 176 169 176 158 132 112 104 110 104 96 96 82 75 79 90 99 102 97 93 88
70 72 89 53 75 154 130 195 190 189 156 127 91 90 90 85 75 91 98 110 131 152 184 195 181 170 137 119 119 117 106 101 104 104 87 75 81 97 103 106 117 77 51 30

GFSCGP_con_3kmhel_012.txt.gz
Helicity
89 163 59 109 125 145 83 51 29 49 80 106 83 59 63 96 50 36 43 63 69 93 107 122 126 124 138 170 181 142 119 92 65 75 101 110 130 141 153 155 166 161 149 146
95 84 89 102 123 138 103 81 35 61 78 75 104 39 75 93 43 46 52 66 80 102 137 165 166 170 187 187 171 149 130 113 82 66 93 104 126 157 155 149 154 147 137 124
117 6 88 145 45 93 108 73 64 91 82 65 56 41 43 43 55 87 76 82 94 108 132 152 177 187 176 172 147 131 111 94 76 59 49 61 89 112 119 119 104 110 105 97
107 110 112 93 113 58 85 127 79 82 111 79 93 63 65 64 45 37 64 101 150 165 157 158 168 178 166 141 109 105 95 81 75 66 80 104 105 111 106 99 88 77 86 85
127 94 112 60 98 46 87 57 63 94 116 53 45 45 87 92 58 36 76 102 151 162 156 149 157 149 124 98 96 88 90 101 98 114 123 118 114 87 75 70 82 84 76 73
97 150 97 90 81 42 45 86 112 92 90 51 49 49 106 108 83 47 68 102 109 116 118 132 133 105 102 93 98 90 98 108 119 133 136 119 96 87 81 85 78 68 50 30
71 109 135 118 122 159 82 106 152 106 102 81 71 52 44 44 40 -8 32 42 65 83 90 99 98 101 103 109 105 101 111 131 129 139 126 105 99 96 91 83 78 63 45 42
128 127 104 139 78 155 144 89 194 135 118 59 76 77 77 72 75 26 24 64 94 88 71 79 99 106 110 116 113 107 123 151 155 142 129 118 112 94 91 93 63 45 57 79
198 254 221 128 231 115 186 152 156 133 110 105 66 68 37 34 35 43 46 118 117 89 70 92 105 109 119 130 135 136 151 179 176 153 130 128 116 114 102 76 58 72 95 92
16 259 146 214 232 252 100 108 128 131 99 97 81 84 83 71 95 47 63 93 109 97 94 100 106 120 136 157 161 162 183 219 189 163 148 131 128 121 102 85 96 112 111 119
53 227 283 95 117 104 178 165 149 133 111 95 94 58 78 123 96 52 27 67 97 102 100 104 113 131 157 173 164 187 216 215 192 178 151 144 139 132 108 105 118 121 126 121
88 131 210 245 164 82 60 66 81 104 86 130 153 74 54 91 78 36 41 69 85 96 104 113 135 164 173 180 181 213 222 211 211 190 170 165 133 105 99 106 131 139 131 112
146 127 143 144 142 141 109 99 40 56 116 53 80 66 104 54 47 52 40 72 107 124 136 151 167 179 193 194 200 238 223 234 223 198 180 144 122 100 100 112 127 127 112 88
144 113 87 88 116 103 87 63 55 58 71 76 62 67 40 32 17 36 31 49 84 119 153 167 176 189 198 205 240 250 262 247 224 191 157 126 111 105 83 98 118 100 86 81
171 136 92 111 96 0 41 112 117 107 88 85 26 28 19 46 59 35 69 121 151 154 156 154 172 200 204 245 259 280 278 249 204 163 130 119 108 82 103 116 97 93 88 73
142 136 128 77 87 61 62 66 89 87 55 33 52 28 66 94 83 92 119 169 163 146 133 154 180 188 224 243 267 284 276 228 170 157 140 118 88 85 116 105 97 79 66 63
45 97 97 101 89 88 75 54 67 66 59 67 58 8 79 102 108 106 149 157 146 134 134 148 162 175 215 245 276 286 245 199 182 159 130 91 78 115 107 90 75 79 81 75
49 43 82 86 105 78 80 93 43 63 60 80 53 74 61 83 174 224 241 210 211 204 180 147 155 192 234 290 292 269 233 204 173 135 94 97 109 109 92 89 88 93 96 86
90 84 74 61 4 73 41 34 67 102 30 47 19 95 126 206 267 285 297 282 247 205 154 132 145 197 262 262 258 245 225 191 155 103 121 108 104 103 99 95 103 94 96 86
121 132 101 109 53 46 58 34 33 40 42 41 123 160 206 236 179 223 255 238 209 161 117 130 167 214 224 238 231 219 208 193 143 130 122 118 105 90 91 100 94 89 86 85
89 72 45 46 43 65 29 33 39 62 49 65 113 169 210 209 231 214 179 147 113 107 108 133 162 174 204 214 210 239 207 174 145 127 125 103 89 95 96 89 88 86 85 88
77 73 56 76 67 39 66 97 67 97 84 83 140 187 227 206 176 149 118 100 89 93 114 121 148 189 212 210 205 212 187 158 127 122 107 96 99 102 95 85 82 85 77 83
122 117 85 64 60 73 91 109 114 61 87 125 173 160 148 138 118 96 93 88 93 98 109 134 176 203 206 205 189 187 174 124 123 113 108 105 98 94 89 84 77 80 91 103
100 121 91 103 85 98 104 133 147 137 167 164 161 148 115 106 89 96 96 90 84 98 128 154 182 200 209 188 174 160 133 125 118 113 105 99 95 91 81 86 90 97 91 92
114 111 103 107 98 119 126 148 178 204 210 213 178 143 130 110 90 89 81 76 87 109 146 169 176 173 175 174 152 139 132 123 115 107 94 92 94 84 81 85 98 95 80 86
73 87 94 59 59 99 83 164 201 232 213 182 159 146 141 118 99 86 88 94 107 135 163 164 168 173 180 166 161 144 131 119 99 92 104 102 91 87 93 93 96 86 72 65

GFSCGP_con_3kmhel_015.txt.gz
Helicity
151 257 178 72 54 108 98 62 71 42 -4 74 46 27 42 33 49 49 43 60 72 86 94 108 128 132 141 157 168 159 129 90 77 93 128 136 137 136 158 168 176 169 175 172
124 173 119 50 122 117 184 56 65 66 34 63 67 39 41 52 52 44 45 56 89 127 105 126 137 162 188 201 201 192 158 112 100 96 114 120 132 150 152 153 162 159 160 153
61 40 47 71 95 68 222 108 107 100 60 46 86 43 37 39 38 84 69 82 118 105 120 138 167 191 209 243 220 180 147 126 104 91 88 107 112 117 140 142 129 133 130 127
22 -8 127 49 61 64 93 124 124 104 121 69 52 42 2 55 77 75 81 137 169 158 149 180 190 203 220 221 175 142 122 107 97 98 112 121 117 128 117 100 90 85 95 87
-29 -120 93 43 7 39 153 48 150 141 122 163 70 82 76 27 61 72 67 112 163 158 187 185 189 197 212 185 154 130 122 115 102 95 94 99 115 97 77 69 72 71 73 77
-58 -44 75 -48 -84 112 194 162 171 168 142 86 76 45 122 33 41 43 73 129 197 181 201 188 175 188 195 154 133 119 118 117 105 113 126 133 123 102 86 90 83 74 70 49
-129 23 104 0 36 77 80 278 325 196 142 107 87 67 52 78 106 86 44 98 116 140 138 133 152 171 151 129 128 122 120 125 119 134 156 149 125 112 109 90 78 80 68 58
2 65 27 -5 97 96 117 111 250 248 129 82 62 67 75 96 100 61 39 67 94 91 83 97 124 131 127 124 134 132 129 128 132 153 177 155 137 117 106 97 99 99 78 74
66 37 53 35 80 125 210 136 165 267 268 120 44 70 15 64 77 62 56 90 97 81 81 98 121 118 123 132 144 144 136 143 163 186 184 168 159 148 119 116 111 92 84 96
20 49 165 101 253 237 205 154 187 267 148 150 65 73 91 38 59 34 42 81 105 104 108 116 113 119 128 148 159 153 154 168 193 217 198 186 174 153 129 120 111 101 93 130
72 258 298 320 174 187 117 217 183 205 216 175 90 79 139 98 68 29 25 80 97 124 125 114 115 124 138 143 154 169 174 189 221 230 212 197 178 151 134 136 103 88 97 133
62 18 430 421 196 65 72 102 106 132 104 201 199 102 79 86 76 35 34 45 92 110 104 107 128 137 134 143 167 178 190 214 254 237 217 205 176 149 147 115 98 77 114 139
1 131 215 256 195 216 162 105 38 87 126 72 82 79 69 52 41 21 24 41 103 106 117 125 152 141 141 160 180 195 217 253 258 237 219 202 179 156 123 116 87 106 135 131
75 122 148 80 89 115 103 62 19 34 77 63 55 87 41 54 46 21 17 54 80 91 118 136 164 154 151 165 197 224 259 271 254 244 229 214 187 157 125 94 97 122 127 114
109 175 127 129 122 -11 -13 7 23 18 14 37 25 29 52 31 18 43 35 42 73 94 132 159 159 162 165 186 225 250 281 262 260 255 242 211 166 116 94 94 101 120 112 99
102 145 101 94 97 70 20 -3 -7 36 28 10 19 38 87 142 125 79 61 75 93 110 159 153 153 156 174 201 237 268 259 279 267 261 230 173 119 95 93 97 114 113 100 79
84 170 103 68 52 74 64 30 41 28 6 21 37 17 35 78 76 58 61 77 88 129 133 130 128 145 195 219 227 227 269 279 277 239 194 146 111 89 98 117 117 97 74 72
71 108 144 94 84 50 83 82 4 21 33 19 1 22 121 73 61 116 137 106 137 169 154 140 150 190 221 229 221 286 291 287 251 214 172 128 80 97 122 113 92 81 89 98
108 77 80 90 69 102 73 28 57 38 -1 -8 -12 15 73 187 234 190 277 296 255 223 193 187 196 191 202 220 263 270 276 251 223 202 162 84 99 122 118 105 100 93 105 103
131 71 43 55 60 64 60 21 41 37 63 49 29 65 176 165 113 132 230 236 237 225 207 188 184 187 181 212 237 240 246 238 243 197 120 97 119 124 111 101 94 95 97 111
136 123 32 32 54 27 11 32 35 63 62 35 60 106 167 106 215 267 210 224 202 179 165 151 139 156 196 207 208 248 235 236 193 116 107 128 121 118 106 100 89 106 120 120
164 177 105 65 70 22 52 56 70 57 45 36 55 80 173 223 229 250 215 183 145 128 120 130 154 187 177 187 209 229 221 183 134 123 149 143 118 101 99 100 114 122 111 105
92 79 80 73 42 47 50 106 91 58 48 58 96 128 177 192 180 164 149 127 105 97 111 129 140 153 171 186 186 204 186 149 143 161 139 114 92 85 104 128 125 125 113 119
67 124 106 74 53 54 45 88 76 88 95 106 112 134 138 151 133 124 102 89 94 103 100 108 127 153 179 179 175 183 173 157 156 133 111 95 97 107 106 122 126 140 138 140
82 92 85 81 61 64 63 90 117 155 165 189 197 172 147 128 117 113 118 111 102 92 101 108 138 173 188 177 192 179 152 143 127 108 105 109 116 113 111 110 129 139 128 143
74 92 105 38 53 87 62 126 144 188 210 218 215 210 187 139 142 128 119 98 93 104 121 144 184 197 208 187 174 151 133 117 113 121 126 122 118 115 116 134 143 103 87 99

GFSCGP_con_3kmhel_018.txt.gz
Helicity
130 196 193 161 149 96 132 133 95 101 101 45 35 6 47 56 62 56 67 73 155 218 178 94 91 119 162 152 132 147 158 150 153 171 244 248 227 208 219 218 204 202 211 192
153 155 135 124 116 82 96 115 126 87 47 54 1 48 39 58 42 66 74 79 144 300 175 109 119 148 178 207 242 267 273 245 242 225 196 160 155 161 164 172 181 176 178 164
195 169 82 107 130 145 98 78 96 68 19 121 96 79 50 52 56 74 88 74 243 316 212 147 186 187 218 258 268 244 228 214 206 205 185 143 122 128 135 133 125 109 100 105
132 75 103 132 126 149 133 22 81 63 49 169 100 56 -6 61 49 47 74 153 307 345 246 180 202 240 255 260 250 223 191 141 95 69 56 91 111 124 105 95 65 62 67 72
201 157 122 86 80 103 91 26 19 36 82 216 161 66 37 77 66 67 144 114 317 381 290 269 249 241 262 269 258 230 217 212 183 169 147 132 133 126 112 91 85 67 57 52
58 75 73 -9 39 31 15 -39 69 50 99 143 103 78 41 104 131 144 137 193 348 399 350 329 288 283 270 255 238 204 196 197 190 188 187 173 165 150 125 105 78 66 56 63
20 -25 -1 -32 -48 -68 47 -63 6 149 232 111 83 83 60 107 230 103 162 265 344 415 388 344 276 256 235 237 204 176 176 182 170 172 178 183 188 162 140 113 92 82 62 51
-63 -40 1 -4 2 -24 -66 -34 113 105 377 300 194 101 75 113 129 171 218 268 337 331 311 230 211 217 216 196 166 165 161 165 158 163 181 191 192 151 139 129 98 79 69 60
-52 -13 -49 -70 13 -13 -245 -113 44 213 166 258 203 147 148 129 216 141 158 241 234 213 210 166 175 197 193 182 158 162 168 168 161 172 189 205 200 187 158 144 120 98 89 78
-74 47 -43 -18 -73 49 75 103 115 236 188 164 103 95 87 93 95 117 150 193 184 170 171 159 186 193 184 172 178 173 168 175 184 196 207 224 212 190 165 151 128 108 93 82
40 47 61 107 -28 -18 74 74 163 90 210 202 226 202 79 66 70 47 116 183 195 183 194 208 204 189 209 206 184 199 201 195 205 217 241 246 216 191 171 151 128 111 87 81
29 58 114 74 64 20 140 153 216 257 195 232 181 177 113 97 73 48 36 175 192 200 216 222 225 245 231 190 199 186 186 217 230 247 253 245 217 198 176 157 131 110 91 90
47 93 97 107 90 226 70 115 210 304 204 199 272 148 62 79 63 34 44 164 201 219 225 209 248 232 190 185 190 190 218 246 247 264 264 243 224 199 180 154 122 108 100 102
-15 146 113 107 53 78 81 -8 72 141 179 213 211 101 56 63 39 11 25 97 198 228 218 207 228 206 191 202 206 217 272 266 281 297 274 256 225 196 162 135 120 100 102 104
46 67 119 242 107 93 83 12 13 46 40 91 105 84 17 38 19 -16 11 113 182 189 199 196 237 208 205 229 236 263 293 284 283 285 277 248 218 181 144 121 98 91 93 92
80 82 235 52 32 101 63 22 45 28 38 37 43 65 46 102 71 34 48 94 145 148 186 227 241 202 236 248 268 312 315 295 287 282 264 241 201 154 124 98 80 79 86 90
24 57 113 73 47 75 100 52 36 19 40 34 37 10 58 129 148 88 89 110 158 161 201 225 217 213 261 272 317 328 311 277 286 276 257 207 173 139 89 81 83 90 87 86
50 35 80 58 45 26 44 45 18 63 73 41 27 27 87 101 283 351 218 161 150 157 196 209 224 252 286 332 331 320 292 280 273 256 214 184 156 90 86 87 89 81 90 104
52 64 70 70 57 87 27 37 45 47 71 49 32 47 184 256 315 318 368 371 323 356 333 279 294 339 361 363 366 350 295 258 233 213 192 189 147 89 89 93 77 88 109 114
102 108 83 93 92 70 80 41 44 70 79 77 64 73 229 273 221 170 234 341 376 357 339 349 343 342 363 336 312 287 228 214 196 197 188 151 86 90 79 74 100 108 108 106
155 108 43 45 73 55 6 3 35 69 63 63 88 149 254 278 161 233 297 303 283 272 272 270 262 252 243 225 220 236 205 194 192 169 143 88 74 69 77 109 110 102 95 122
172 122 89 80 14 26 44 55 45 26 37 43 106 185 312 273 279 283 257 234 221 210 190 179 208 201 185 183 210 185 194 175 155 135 93 69 80 99 108 95 92 92 114 122
75 114 90 58 25 35 68 68 61 39 35 76 131 156 204 215 204 197 191 179 144 128 127 150 159 171 166 172 166 186 160 152 125 93 94 111 113 103 86 84 91 114 111 127
85 69 128 84 65 69 55 54 49 79 107 130 137 151 153 164 146 157 146 124 111 95 103 128 138 148 157 172 196 173 145 116 103 119 125 117 101 77 93 102 106 115 119 122
102 104 53 76 76 73 60 52 130 190 201 203 193 158 156 168 143 117 96 84 85 91 100 100 102 131 137 137 157 143 121 120 139 135 117 93 91 104 103 106 110 112 112 110
72 75 98 62 55 63 36 121 178 218 212 210 225 222 196 164 149 129 113 102 103 99 83 105 151 177 153 155 143 127 133 141 136 116 91 92 106 108 114 121 123 88 75 70

GFSCGP_con_3kmhel_021.txt.gz
Helicity
150 233 293 152 99 116 151 123 144 100 88 83 91 107 30 13 33 78 94 81 120 245 217 149 120 129 127 129 132 154 207 284 409 447 422 399 321 316 288 256 228 221 200 192
195 166 135 120 103 124 99 98 53 72 56 101 90 96 45 42 67 48 49 68 207 337 241 182 167 191 203 171 169 211 269 320 317 298 268 258 243 231 219 202 196 171 157 130
153 193 92 117 120 121 111 102 65 66 108 59 37 53 40 71 61 91 93 70 259 345 288 265 250 254 252 247 233 235 249 278 259 238 229 228 236 206 180 165 143 122 115 100
122 66 108 100 101 146 118 97 73 59 89 74 113 40 40 53 101 127 84 149 271 364 371 340 325 296 261 262 257 263 270 262 214 175 171 141 119 124 114 113 92 95 87 80
238 141 77 98 96 124 82 119 136 104 62 27 76 65 49 94 46 73 97 148 290 401 408 394 359 308 275 283 309 297 281 240 172 159 141 143 143 131 136 127 118 93 85 75
124 143 130 120 88 112 111 147 141 97 88 49 -28 36 43 112 31 1 115 216 319 406 405 422 375 362 334 318 328 320 318 273 234 201 167 155 155 166 184 154 133 92 61 46
167 65 126 142 138 135 159 165 254 141 74 18 -49 1 35 104 61 102 188 252 375 409 474 481 407 382 339 311 307 303 292 277 254 243 211 187 188 201 188 154 119 96 65 49
156 133 154 132 116 162 151 156 255 294 73 -100 -46 -4 149 52 78 174 285 336 450 481 457 383 332 344 308 276 276 281 264 249 234 226 213 203 206 199 187 155 128 107 86 63
58 2 52 33 154 193 115 61 17 161 39 -27 135 198 138 180 198 272 326 360 359 414 401 340 295 272 257 235 236 234 229 220 208 200 211 216 214 209 185 166 143 114 97 77
-47 -39 -91 -24 33 31 -15 -33 -99 -229 3 46 163 144 116 189 209 241 287 322 321 368 340 276 234 231 212 202 224 219 203 199 188 203 208 210 207 199 190 172 153 129 106 88
50 23 41 4 12 -10 -78 -112 -184 -138 -97 180 225 176 113 121 147 194 201 247 318 289 264 234 195 184 196 221 224 211 210 214 217 217 215 219 221 217 195 168 137 119 101 94
72 -33 182 197 71 25 -43 101 -50 -85 7 117 192 263 137 98 83 126 153 198 225 257 247 232 203 222 234 231 222 210 224 227 222 215 225 234 233 222 193 161 131 114 102 84
138 100 126 28 36 -85 -69 -75 -7 -136 381 271 223 215 171 120 50 91 176 181 226 259 258 249 238 233 231 228 219 223 234 236 231 240 248 251 249 216 175 145 127 109 97 98
-25 82 163 16 8 -21 -17 54 -31 81 222 246 148 181 105 47 42 49 105 182 233 251 274 283 258 221 210 211 215 237 247 244 248 259 257 260 227 182 153 133 113 101 93 94
65 27 123 142 90 40 4 58 165 219 233 242 98 81 -18 -41 -44 -18 61 171 225 244 288 295 265 235 216 219 234 257 262 256 262 273 270 231 191 167 150 124 99 86 90 93
149 223 177 226 21 -8 52 97 32 71 98 59 41 99 25 29 48 22 51 106 159 221 262 277 257 226 204 221 264 289 262 251 266 260 238 208 189 174 147 96 72 94 98 87
19 75 97 130 59 41 24 7 -2 94 4 45 46 89 110 90 21 -0 8 54 150 220 269 269 261 213 218 264 304 292 264 253 244 238 220 207 189 160 109 71 97 98 87 84
25 22 76 53 56 72 64 49 32 51 31 25 25 64 48 152 217 144 50 116 119 186 241 259 235 240 280 323 325 310 270 250 241 225 210 182 153 131 104 96 95 89 85 90
3 6 23 31 52 63 65 63 57 68 66 85 59 76 92 135 307 327 238 173 132 191 241 271 268 307 344 356 348 311 253 231 218 192 173 154 137 125 103 104 95 89 91 104
20 4 -17 19 19 35 54 76 38 43 78 77 94 100 164 157 178 160 282 344 369 381 354 378 360 370 402 336 301 273 226 206 193 174 144 131 121 105 102 94 86 89 101 117
82 46 36 11 19 29 23 47 23 62 53 53 24 40 175 207 109 240 286 351 341 359 388 381 360 334 278 268 259 227 211 191 155 141 133 117 108 97 77 79 83 99 118 125
109 103 75 67 33 41 37 23 42 10 36 38 59 153 281 256 289 309 303 280 275 280 263 246 257 229 206 211 238 210 187 135 139 129 118 108 93 74 73 79 98 112 113 112
32 94 73 52 15 14 62 42 42 24 24 23 67 94 203 231 230 229 235 220 199 186 180 179 207 225 194 188 168 160 119 128 123 123 122 101 83 74 87 105 105 105 107 119
5 58 51 71 32 40 35 48 69 45 59 67 86 99 126 155 139 171 172 162 154 126 128 143 178 189 173 137 140 142 125 125 131 124 102 85 92 104 111 103 96 102 113 122
55 102 59 65 60 63 53 52 99 116 124 144 131 113 113 145 122 114 104 98 95 96 109 125 126 122 130 148 152 137 133 122 119 102 94 102 107 110 96 90 90 106 96 101
78 61 41 3 36 42 31 98 152 156 122 126 171 162 137 122 118 106 93 71 82 98 90 99 98 113 110 139 147 127 109 105 104 116 114 106 102 95 96 104 106 85 89 79

GFSCGP_con_3kmhel_024.txt.gz
Helicity
186 257 229 133 149 153 132 143 127 154 139 131 119 48 39 9 -2 54 46 34 67 85 141 160 164 145 161 174 168 184 275 356 468 505 461 439 351 306 326 270 237 213 180 165
242 207 137 95 103 127 125 122 105 98 66 107 108 94 66 34 4 33 56 42 114 138 188 168 187 176 158 160 180 231 271 307 390 434 412 389 356 288 256 243 254 211 185 161
188 182 72 119 118 150 125 117 116 105 68 42 62 37 51 14 29 65 23 0 117 191 207 220 227 209 202 189 184 203 222 261 330 375 405 391 347 280 266 251 229 191 160 142
143 88 162 95 134 142 133 112 95 90 101 126 169 50 46 24 57 63 39 62 88 176 255 313 314 281 254 227 223 225 230 260 268 265 270 245 233 221 175 167 163 164 147 120
225 146 100 89 96 98 96 122 109 114 129 119 92 145 -43 7 63 66 38 81 114 249 342 368 348 316 303 280 275 263 272 253 215 206 206 205 207 193 169 170 174 155 131 112
182 244 171 143 78 132 156 113 126 119 123 152 76 147 -65 51 60 56 57 108 150 277 389 476 469 422 372 349 338 297 283 256 219 203 189 196 193 172 173 150 152 129 115 102
237 176 303 205 143 131 141 169 221 205 230 205 22 142 81 49 40 48 77 161 204 312 477 483 472 412 377 373 376 317 303 265 231 231 210 187 166 157 158 143 136 128 109 91
174 164 206 184 146 178 121 139 286 203 218 82 86 109 15 -113 -131 46 8 63 334 482 471 486 456 436 407 398 410 340 323 293 268 250 224 201 190 189 180 164 161 143 113 92
137 95 149 134 179 169 146 180 77 210 144 133 77 57 52 13 -17 -44 55 217 367 512 501 462 418 400 381 380 361 331 323 289 266 253 235 224 213 211 204 195 175 144 125 110
63 81 70 128 161 12 44 127 164 195 187 204 130 103 -22 -30 42 42 151 220 325 384 447 417 370 350 332 337 334 303 264 242 236 245 237 229 223 218 203 189 176 152 137 126
80 2 -52 3 -37 -16 -41 -48 4 133 91 13 -84 -151 -71 25 94 123 164 222 311 359 390 363 316 302 309 308 279 262 272 268 248 245 255 245 225 210 203 193 171 145 135 132
135 21 -14 81 50 -8 6 62 -22 -85 -146 -144 -77 -108 29 34 149 122 173 179 269 312 354 304 271 267 255 232 243 238 253 241 220 242 250 239 218 209 209 187 163 139 137 134
170 32 108 60 49 113 -51 -15 -73 -48 -212 -345 -54 64 -3 90 105 140 256 230 257 299 264 233 234 219 204 208 224 233 232 224 228 246 248 232 218 210 195 176 151 148 143 129
47 58 150 38 -4 -39 28 7 -27 -108 -257 -150 94 94 142 96 83 133 165 208 217 205 216 223 208 190 187 201 227 241 237 224 229 241 236 221 209 195 187 172 163 143 125 121
92 166 164 271 191 69 -3 76 148 138 31 139 78 40 146 32 29 54 112 147 171 173 192 203 200 189 211 229 235 235 234 233 229 234 216 209 203 198 194 177 149 126 128 136
228 243 209 261 109 59 7 90 139 113 120 101 493 232 51 58 87 69 73 119 137 170 186 196 201 201 192 211 237 262 257 233 215 204 202 203 207 196 179 161 140 137 141 139
152 287 250 113 -29 -19 44 123 225 155 170 253 109 44 68 58 46 21 27 68 118 164 209 220 211 185 193 234 257 248 230 207 199 199 199 197 188 181 168 155 156 144 137 127
90 226 215 140 111 57 32 67 109 142 41 37 35 82 89 73 93 90 61 33 58 128 179 204 213 207 226 243 256 273 233 198 191 187 183 179 177 174 168 160 143 133 122 116
87 57 81 76 112 113 77 52 52 43 15 7 26 35 44 100 141 120 82 47 118 169 198 218 227 270 279 278 270 262 207 193 190 167 170 179 178 171 152 144 150 122 115 112
44 28 -4 22 13 32 53 73 41 35 34 47 52 81 73 98 106 76 107 120 200 254 254 290 279 289 301 268 279 243 192 180 170 172 173 166 157 152 145 137 140 107 108 92
14 3 -2 -6 4 46 36 27 7 39 32 33 20 35 134 142 78 167 176 257 271 268 276 286 285 282 276 269 258 231 195 175 168 179 176 157 146 147 141 135 116 102 93 96
61 51 43 23 -6 29 40 43 50 15 27 30 15 43 169 185 262 272 246 264 280 313 310 298 319 286 248 243 242 200 190 178 180 167 158 155 156 148 137 130 106 97 100 104
38 56 31 24 13 17 36 43 40 14 6 17 20 67 181 225 216 219 226 243 266 286 292 261 276 254 207 191 201 217 162 158 161 161 173 175 161 148 132 113 99 101 107 115
16 16 24 10 -19 0 4 54 63 51 39 39 37 68 130 207 180 222 235 231 222 202 205 193 214 206 199 183 179 168 147 149 160 184 175 162 157 137 113 101 100 103 113 119
29 72 35 -17 -2 10 7 22 53 86 87 97 93 85 111 158 136 140 152 153 148 139 139 151 164 172 160 155 171 158 154 157 177 170 163 149 125 106 104 110 100 113 104 112
69 71 100 105 22 38 55 67 79 97 88 80 116 125 120 117 123 117 123 103 113 135 132 160 157 155 137 162 169 158 148 152 161 159 135 109 104 109 115 119 125 111 105 96

GFSCGP_con_3kmhel_027.txt.gz
Helicity
222 277 287 185 159 163 145 130 112 132 131 81 66 13 2 30 25 78 34 46 32 8 10 50 104 121 133 152 183 236 307 370 435 444 474 455 415 401 379 326 253 229 190 175
266 207 212 166 144 132 145 126 112 61 55 105 75 9 20 61 48 44 53 35 26 38 55 90 148 154 138 139 164 228 296 352 405 464 462 418 420 379 309 269 251 222 210 178
212 236 116 187 158 159 145 127 111 87 85 74 53 -18 26 70 74 50 50 63 39 48 105 171 179 166 164 156 167 223 276 348 402 473 500 505 436 400 306 250 259 244 207 178
194 162 138 175 156 151 122 102 95 109 120 139 146 -68 -11 97 93 76 73 80 13 41 64 155 232 210 178 166 192 231 249 264 297 341 387 335 299 278 213 234 231 227 197 171
218 157 140 143 123 97 138 97 70 97 137 126 120 141 -156 -62 98 72 82 115 88 61 79 157 234 218 208 210 220 235 252 250 247 269 302 329 333 305 274 248 241 216 192 164
175 129 163 168 92 135 166 110 115 146 175 198 131 177 -158 -26 55 62 70 91 85 89 140 211 337 317 302 283 274 269 260 253 236 236 245 261 290 269 255 210 203 182 166 159
196 159 258 207 146 126 116 179 261 251 290 288 89 137 127 67 93 50 57 95 101 133 227 314 365 337 309 287 301 304 288 275 240 236 231 242 243 212 185 159 158 155 151 142
204 203 228 281 245 263 225 206 335 302 302 174 70 133 132 -9 -8 27 183 51 92 164 205 290 372 387 364 328 337 330 320 320 281 257 249 238 223 197 178 159 164 168 160 151
180 192 188 164 227 294 245 154 106 258 219 176 140 114 36 44 41 30 28 73 175 154 219 286 420 435 397 364 354 349 370 351 317 287 263 247 220 205 188 189 189 176 164 150
103 118 100 43 17 84 132 131 170 191 179 172 120 77 27 24 22 91 70 43 156 233 258 333 414 468 408 391 389 375 347 321 310 294 261 243 225 218 210 201 191 182 169 165
104 95 19 93 131 174 110 104 212 176 181 198 93 1 -49 -64 1 58 135 114 170 221 332 427 494 459 415 402 371 380 358 341 315 287 273 268 249 236 222 212 193 181 176 173
149 133 81 129 121 117 158 136 175 154 207 175 75 -71 -13 -63 1 40 147 145 136 190 278 374 394 364 350 365 357 361 338 314 286 277 270 262 246 232 230 208 192 181 187 177
131 33 75 63 87 82 146 18 12 -33 -30 -58 -17 64 35 38 40 63 158 165 201 213 269 304 325 304 331 334 332 309 285 287 275 274 267 257 243 231 212 201 192 193 187 176
110 85 222 213 109 32 96 129 79 86 79 127 119 225 -19 209 161 29 119 154 199 205 218 253 269 273 288 283 271 259 269 259 258 258 247 239 220 207 200 195 198 196 182 188
165 193 253 301 246 75 89 -5 106 250 141 135 43 156 98 46 95 81 78 196 196 160 164 205 241 244 246 248 233 239 247 247 243 241 231 214 209 204 201 209 207 198 195 181
170 188 221 319 286 218 96 23 34 87 51 -4 46 186 150 285 218 98 128 121 118 112 149 178 206 224 212 207 218 239 247 234 220 216 210 201 199 204 208 211 203 202 194 168
191 275 315 343 37 -25 69 117 67 222 145 177 280 411 296 172 127 164 73 69 80 93 143 175 189 186 186 206 248 236 216 213 211 204 188 186 192 205 214 206 211 196 163 147
196 151 198 240 67 50 173 161 159 347 364 328 295 205 167 78 51 78 80 69 60 94 123 146 181 202 217 230 224 238 214 196 194 194 185 184 200 206 206 215 192 160 154 154
200 90 88 101 98 67 87 151 199 158 236 191 98 163 103 73 99 112 97 59 100 133 150 179 196 223 221 222 221 239 216 206 195 173 174 190 193 206 200 181 179 171 159 133
112 101 53 33 61 43 39 5 9 94 87 103 195 128 -6 50 47 33 38 69 132 184 201 229 228 236 246 210 239 248 206 193 175 165 180 188 198 185 186 191 190 136 119 109
40 34 52 23 28 64 43 61 31 15 -5 12 15 -5 60 59 66 86 118 188 175 181 204 215 213 221 219 239 260 246 201 171 163 182 197 198 199 202 195 173 136 123 116 109
22 4 9 8 -2 18 51 41 42 32 51 55 30 57 136 115 125 160 188 197 200 223 221 227 278 268 237 234 257 222 196 173 193 201 213 219 214 193 161 160 135 121 116 111
9 40 14 27 29 4 15 5 7 13 10 12 -2 37 128 127 135 154 193 217 230 233 243 240 283 280 239 220 211 213 172 193 215 231 225 214 185 178 159 142 127 114 107 97
11 23 24 -8 -0 34 35 33 55 54 32 27 20 42 109 177 156 183 194 205 231 226 236 238 277 271 239 208 216 215 202 209 219 227 211 188 169 154 139 124 108 98 94 103
10 33 26 40 16 35 10 51 46 69 52 70 83 83 129 193 160 150 175 193 200 211 214 208 216 220 217 221 229 199 192 200 224 200 175 165 150 141 128 112 89 98 96 102
39 37 35 17 31 29 30 37 41 68 63 59 96 118 121 130 133 140 156 134 140 156 144 185 194 210 196 213 216 203 182 168 173 174 159 144 135 126 111 107 112 102 102 102

GFSCGP_con_3kmhel_030.txt.gz
Helicity
179 205 231 184 157 137 150 166 131 138 128 98 96 63 32 -16 -3 15 32 43 49 91 104 81 53 67 121 135 147 136 188 260 396 460 480 426 417 384 425 379 320 273 211 196
226 152 157 169 185 172 164 144 119 94 73 106 63 9 11 -3 8 12 35 54 35 63 53 60 54 78 119 116 127 152 189 268 367 444 478 480 439 405 402 370 332 230 206 197
192 180 137 193 222 230 210 173 159 127 124 106 90 -69 -8 3 22 66 93 94 72 71 31 15 57 87 131 120 135 167 197 290 388 473 541 584 517 480 431 335 283 228 216 224
126 137 155 205 241 206 142 161 98 107 123 97 87 -56 -53 32 50 65 91 108 123 124 114 40 55 119 132 128 146 167 216 289 333 402 448 456 399 334 288 266 244 242 226 210
172 147 135 158 211 231 249 121 119 109 150 139 153 162 -58 -113 4 62 87 98 102 109 139 106 104 126 192 181 162 171 223 263 289 342 363 404 420 325 332 284 278 256 236 201
126 143 188 181 143 149 198 184 182 177 163 168 150 169 -146 21 -30 9 118 144 85 80 134 126 152 187 235 211 188 187 220 236 258 292 311 325 367 312 305 273 273 232 204 180
158 149 215 207 181 144 180 244 249 222 313 293 89 87 146 66 83 11 54 66 62 75 109 160 176 192 225 207 208 203 215 247 244 247 270 263 277 278 272 247 216 188 174 153
183 142 120 180 177 194 167 216 287 298 266 210 153 128 107 -56 -37 6 18 147 97 86 108 161 167 210 247 239 238 225 229 279 247 246 263 273 281 269 242 209 192 187 162 146
110 109 137 130 120 187 225 237 174 239 223 216 214 139 38 -21 37 53 62 -12 60 76 83 148 183 221 274 267 280 294 297 311 292 281 284 290 293 277 239 230 219 195 167 147
141 99 97 131 142 69 173 173 191 263 242 240 175 139 97 116 89 116 119 101 28 40 102 166 200 238 327 331 392 356 314 311 324 322 308 298 293 274 250 235 221 201 180 167
126 93 14 138 168 151 157 183 212 232 266 265 220 112 9 -58 61 53 -4 59 151 189 156 219 212 283 403 384 349 376 358 368 381 347 332 324 307 288 267 242 210 194 180 169
67 19 101 134 200 193 173 110 154 234 281 279 276 51 71 -3 -58 -6 -20 16 106 191 209 296 332 353 381 358 332 365 358 384 375 337 332 320 300 277 259 233 210 189 179 172
88 119 13 38 65 141 267 278 247 104 56 95 211 75 -41 -11 -8 -57 -116 -1 124 206 225 272 276 330 342 349 350 346 347 386 377 344 324 300 276 257 241 226 205 185 174 176
140 172 174 219 182 219 254 282 279 335 298 249 217 346 121 48 2 -36 -70 16 139 139 106 158 233 295 291 275 319 337 361 363 340 309 289 269 248 239 222 201 189 184 183 181
136 140 255 373 383 313 305 263 294 218 316 337 162 267 291 41 -56 -36 25 119 131 121 114 109 160 213 255 294 309 315 333 318 277 275 261 245 235 221 206 200 193 189 183 179
155 202 184 455 458 307 278 280 268 254 193 213 246 231 118 -47 -17 57 157 196 186 148 88 84 113 182 220 251 266 285 278 255 236 236 234 219 217 211 204 197 190 188 183 169
158 186 225 412 258 107 154 184 191 223 176 239 397 504 136 278 301 272 245 200 116 85 67 37 97 157 188 197 227 233 216 209 219 221 208 207 207 212 201 189 189 187 174 152
157 142 216 269 178 222 303 249 155 252 240 435 439 470 450 285 205 130 150 104 81 66 46 78 135 173 190 215 222 225 196 193 209 213 210 206 207 204 194 196 186 170 154 152
199 123 142 81 116 221 216 286 240 163 204 205 276 325 235 161 218 139 102 117 110 72 71 101 124 171 184 194 198 224 218 221 221 209 196 183 185 191 187 184 173 155 151 129
104 95 96 58 86 65 155 97 160 151 162 149 109 118 151 148 189 157 84 49 75 123 139 155 155 178 206 185 218 238 217 218 195 173 183 186 190 184 178 160 157 132 115 121
22 52 101 44 37 38 90 114 88 73 81 27 84 79 43 21 33 17 40 111 131 132 160 172 162 166 181 202 234 245 209 181 179 204 214 213 189 177 161 149 123 132 128 110
28 16 11 -8 14 12 43 31 -0 62 35 38 24 -6 -6 19 44 13 95 127 129 156 163 177 222 215 198 206 245 228 209 190 223 234 216 195 180 164 144 153 135 120 109 99
-10 39 23 53 25 17 10 -17 -12 47 29 21 -14 17 89 108 51 126 178 168 169 171 177 173 223 246 221 204 212 246 199 232 228 218 196 175 168 161 152 137 118 102 97 97
14 36 30 -4 -17 -12 -0 2 12 16 4 -18 10 43 68 98 99 146 166 174 185 182 185 190 239 248 249 240 261 241 212 204 204 199 182 170 165 151 128 107 97 96 100 109
9 14 21 32 10 2 18 8 20 36 21 41 49 63 82 112 113 113 145 166 173 184 187 200 244 267 268 267 260 202 173 180 197 186 175 159 132 120 109 95 87 100 93 92
61 42 40 -10 -19 31 39 44 35 36 35 46 82 121 120 97 119 119 143 118 123 167 172 241 251 274 250 242 211 179 161 165 169 158 130 120 113 102 101 106 110 108 88 80

GFSCGP_con_3kmhel_033.txt.gz
Helicity
125 128 122 104 122 134 134 110 88 129 115 84 76 17 68 59 59 44 35 42 55 98 106 159 191 181 116 90 90 93 139 173 230 296 387 401 408 361 363 371 349 330 268 219
149 83 90 134 129 118 100 81 79 74 66 98 68 -9 29 70 87 89 69 71 67 69 52 108 131 162 151 116 113 125 132 139 178 243 355 423 477 432 412 407 404 331 243 165
146 107 99 99 145 138 141 138 131 116 104 100 81 -27 -20 -9 52 76 78 72 71 76 86 87 90 124 155 110 114 139 126 136 212 332 492 532 526 468 439 390 378 326 275 206
93 90 134 135 155 137 108 130 104 109 134 107 104 11 26 25 44 76 77 83 73 79 96 90 93 119 117 123 150 144 131 179 224 285 377 432 447 397 351 365 343 298 247 211
103 85 110 87 75 185 165 144 127 131 143 120 109 141 -4 41 18 46 50 42 55 67 83 89 92 117 113 153 145 164 161 169 200 255 314 406 438 392 425 403 369 293 256 205
95 130 135 117 107 129 166 171 136 138 146 214 149 144 -41 -29 -77 -56 -17 68 68 73 98 93 83 116 144 190 173 168 164 177 207 253 311 362 459 410 417 326 290 224 225 211
87 80 149 177 163 149 176 195 175 152 201 281 135 49 161 6 70 17 40 129 138 68 73 86 94 121 144 188 195 190 169 187 206 235 290 330 359 363 328 266 280 243 235 196
88 90 107 75 56 132 196 224 242 199 218 187 186 171 126 -37 -73 -10 38 16 30 57 79 58 57 132 142 199 216 196 185 205 209 242 298 328 353 324 294 273 239 234 204 179
97 69 51 64 103 94 206 222 129 217 178 185 273 217 139 61 70 41 15 55 58 77 63 81 79 95 162 187 192 208 239 243 243 250 325 323 302 283 277 264 250 231 208 178
140 93 67 92 146 94 151 205 256 327 358 368 396 251 251 88 73 8 -6 63 105 98 77 116 82 92 138 197 234 254 248 276 272 281 297 317 298 292 286 273 246 220 199 173
112 113 96 111 124 164 227 242 312 318 374 470 331 310 243 26 -35 -14 37 39 52 146 83 108 113 156 193 267 314 311 308 330 334 329 349 377 349 314 288 266 228 207 189 165
77 -61 -23 114 202 180 213 219 298 320 327 543 454 316 174 131 49 -28 -133 -39 41 41 55 75 144 198 207 263 302 303 340 357 340 361 395 393 373 325 289 249 213 185 185 165
88 76 -8 -11 97 130 244 280 350 343 277 420 446 169 128 110 33 -13 -17 -88 0 26 80 122 151 132 179 273 286 328 357 349 367 384 410 384 335 293 257 222 197 185 171 158
74 133 202 160 206 238 296 453 459 366 289 396 577 361 202 104 52 -13 -67 -97 29 73 102 152 138 165 195 268 319 333 356 356 368 368 361 324 270 247 223 205 192 171 153 145
84 95 183 327 327 302 415 393 374 530 509 360 348 390 357 203 126 62 -11 -58 28 108 101 144 131 176 218 275 304 316 339 332 326 341 318 268 249 236 218 199 180 168 162 152
100 139 139 331 341 363 412 338 248 347 416 324 300 291 278 197 64 -41 -15 18 139 127 134 121 115 148 191 222 251 289 300 305 300 309 280 232 224 210 199 188 177 171 157 138
79 68 85 249 109 213 259 204 178 145 322 155 160 196 100 68 2 51 179 233 197 170 118 62 59 66 121 167 213 243 256 277 287 265 214 205 202 203 193 178 169 156 140 121
104 90 99 237 168 237 320 261 178 106 247 239 145 142 98 148 221 316 278 195 226 161 60 28 45 91 130 176 211 246 244 237 241 221 202 191 199 200 182 168 151 135 118 120
238 139 122 118 182 215 213 223 285 229 162 307 314 311 348 313 313 191 127 131 194 126 40 30 53 101 134 157 191 240 224 219 209 190 180 182 182 175 155 149 134 120 121 111
55 118 79 70 151 111 157 133 140 126 85 143 220 226 304 179 195 159 147 106 102 109 77 98 104 134 163 156 193 222 195 185 182 178 184 171 156 145 134 128 130 111 109 112
-5 7 80 91 74 92 105 147 75 16 66 64 119 157 180 184 170 132 58 69 59 52 75 86 102 117 140 160 191 199 178 192 190 200 183 161 140 144 132 121 112 108 111 106
-6 -21 -7 28 26 36 0 36 30 97 59 26 2 -5 30 10 46 81 46 63 62 110 114 115 152 154 137 145 194 208 225 186 187 175 169 159 143 128 121 121 111 113 102 99
-11 5 5 52 37 38 42 94 81 80 96 36 -9 -27 -45 -5 7 23 65 77 64 93 122 127 194 204 169 154 200 255 171 170 178 179 157 148 141 126 113 118 106 97 94 87
10 32 27 14 1 -1 5 0 26 21 0 -27 -17 1 22 69 64 114 123 101 99 121 144 161 221 239 229 215 225 204 155 157 173 168 138 117 123 127 113 101 93 88 81 85
24 26 12 12 16 10 5 -9 2 20 14 30 37 38 66 102 103 102 114 120 139 165 174 201 242 252 246 235 219 162 153 158 153 131 127 134 123 110 100 91 77 78 75 77
104 53 34 -1 -16 -8 8 24 16 19 19 24 69 86 89 85 71 97 123 130 157 183 181 255 256 273 235 224 189 141 113 121 134 141 121 106 98 93 88 85 89 92 102 106

GFSCGP_con_3kmhel_036.txt.gz
Helicity
67 61 48 25 25 32 66 57 44 38 46 45 27 16 40 41 35 46 54 57 52 66 73 129 211 230 200 169 154 129 120 91 113 144 157 193 284 344 331 292 250 286 278 262
54 30 14 36 30 24 26 33 40 45 42 64 46 -6 34 42 44 54 53 56 52 48 49 74 102 169 220 221 178 158 117 96 113 161 171 184 335 390 428 418 347 312 317 286
38 60 43 18 39 30 21 30 36 45 83 66 36 29 -16 56 54 55 47 43 56 54 59 68 74 103 161 218 230 167 129 121 133 159 232 313 395 491 494 446 403 366 317 282
22 33 79 73 50 38 43 84 50 59 74 77 110 83 90 81 78 49 51 50 56 71 59 54 69 83 119 164 201 184 150 145 152 200 179 188 312 460 437 411 405 383 315 318
72 50 40 25 -7 61 81 81 60 76 86 102 93 149 96 89 56 39 9 12 57 53 62 70 69 68 112 128 159 178 156 164 169 123 143 168 240 402 446 389 376 359 302 204
71 114 90 43 54 57 149 106 83 88 126 158 66 125 93 57 31 -36 3 124 109 66 98 71 68 91 88 137 137 145 142 155 145 130 135 174 290 389 392 335 394 336 262 223
58 27 80 106 98 117 127 155 163 118 177 187 176 127 194 122 138 70 74 52 14 39 87 109 72 73 84 133 134 139 128 146 133 138 144 196 220 287 258 313 352 248 261 197
71 60 47 66 77 116 73 123 164 150 127 120 268 234 280 95 60 47 4 42 53 71 40 71 82 70 95 99 123 133 125 124 134 154 170 202 222 282 366 349 328 269 225 186
56 65 79 54 79 67 136 127 64 103 102 137 233 172 127 93 20 -70 -25 29 29 83 156 80 68 71 91 98 121 124 126 129 151 166 210 216 289 334 337 367 315 308 223 206
88 66 78 110 89 66 84 136 196 246 232 180 149 120 161 79 64 50 11 -46 42 62 120 134 79 53 88 96 119 135 142 141 177 193 203 247 296 337 387 317 313 253 224 201
96 98 71 95 78 90 147 194 238 216 277 343 204 252 225 95 33 -10 63 81 61 48 80 120 108 77 97 103 136 157 169 179 182 201 229 266 346 363 334 325 224 231 213 183
85 82 61 78 29 66 88 128 166 297 287 459 370 278 240 95 67 80 29 11 -20 -6 51 45 73 86 108 121 131 177 187 185 207 234 261 327 379 369 307 227 241 218 205 180
96 33 18 7 54 54 120 143 203 376 320 401 463 579 276 255 119 48 29 61 76 -34 -26 -0 43 76 94 120 135 175 213 233 243 255 344 404 390 282 259 247 230 212 192 175
70 28 16 30 25 99 203 310 308 346 391 427 586 500 297 258 52 18 47 21 28 22 -24 -0 51 71 102 122 173 239 272 255 312 351 382 364 284 261 268 236 217 202 179 164
15 30 28 122 124 136 225 305 323 244 448 361 434 234 181 43 30 35 66 47 27 35 -25 15 53 87 129 168 187 252 295 315 330 390 379 330 292 279 262 236 207 189 171 164
42 37 11 160 164 160 314 278 177 129 132 210 236 106 97 87 35 12 55 46 51 15 44 48 73 85 105 151 223 304 302 312 333 382 313 291 281 272 241 210 185 170 162 146
21 43 54 134 105 189 37 100 122 104 138 44 67 52 30 42 17 27 36 17 41 46 53 41 57 113 139 161 218 272 288 278 306 301 260 268 257 238 206 178 166 152 141 127
30 67 59 116 105 88 163 145 161 128 71 101 58 47 38 41 47 25 4 59 68 52 71 85 104 123 136 166 216 255 248 265 236 212 232 225 211 196 171 155 146 139 130 120
114 95 89 72 111 171 121 86 80 62 84 76 112 107 114 134 146 64 93 127 105 100 82 43 42 72 99 129 167 203 194 198 208 206 200 182 159 153 142 139 134 127 107 106
56 163 113 44 55 55 63 72 54 76 76 65 130 178 185 154 44 38 105 154 102 80 41 15 20 36 76 101 128 164 180 182 181 169 163 153 146 138 137 127 112 110 115 104
18 4 87 79 53 55 73 86 84 14 122 76 144 116 184 168 81 65 50 -33 15 42 24 30 35 61 77 93 126 193 175 175 162 161 164 158 146 138 119 111 113 103 103 105
10 -1 2 37 38 20 17 38 25 65 68 48 14 22 94 94 94 71 47 10 -1 4 13 26 91 91 82 104 158 161 168 149 161 159 156 141 122 112 107 107 105 116 114 101
18 22 15 41 22 1 19 48 66 81 59 3 -12 -38 -14 3 -10 -9 10 31 7 36 30 28 93 118 93 88 111 179 149 156 150 138 129 117 111 110 111 118 116 103 91 81
-1 8 19 11 12 4 4 30 21 22 13 -49 -36 -35 -6 46 31 43 43 52 62 55 71 76 113 142 144 124 165 182 122 117 124 123 115 109 117 120 118 109 97 80 80 82
9 24 -7 16 78 12 -8 8 24 24 3 -2 10 29 49 74 58 84 102 98 97 107 109 108 144 171 171 159 173 134 111 99 116 116 115 121 118 115 104 88 81 80 86 78
83 29 9 -13 -21 -22 8 18 23 20 16 17 62 66 70 62 70 97 130 115 115 131 133 166 182 205 178 160 146 114 95 97 115 126 121 115 102 89 87 86 79 83 73 73

GFSCGP_con_3kmhel_039.txt.gz
Helicity
69 88 50 31 30 54 100 125 102 79 64 38 48 21 29 35 29 31 51 62 66 66 64 60 89 166 237 206 162 137 141 144 132 141 131 139 136 325 316 320 347 223 219 240
77 34 16 36 54 34 40 43 42 37 31 42 33 40 32 29 38 43 45 56 59 61 60 49 60 85 120 209 222 212 194 180 181 196 148 149 348 500 503 473 360 317 298 276
26 43 58 21 28 29 18 32 39 48 76 47 24 36 -19 24 43 28 42 45 36 45 82 68 62 71 100 108 207 250 234 207 215 197 202 294 506 584 555 491 427 379 366 319
22 24 32 35 18 13 36 32 48 49 42 15 56 5 65 108 70 78 36 35 49 67 89 71 77 85 90 110 138 221 239 266 244 238 240 277 383 431 443 463 471 491 412 384
41 34 14 4 6 43 52 109 72 70 78 98 72 97 69 108 33 11 -8 23 81 88 69 78 77 96 94 130 128 198 253 255 254 250 277 312 244 240 356 473 462 441 423 371
55 57 50 33 62 52 128 78 54 58 71 80 16 57 94 81 98 130 102 89 113 75 105 112 106 98 101 130 194 213 230 224 250 283 245 203 224 329 417 489 498 479 405 338
27 26 43 61 75 81 87 102 76 8 92 142 116 138 262 127 94 94 61 52 48 49 88 72 77 91 92 100 156 254 203 211 243 192 176 154 265 242 294 426 456 435 378 338
50 53 22 76 55 85 51 107 91 117 82 120 205 182 160 99 144 73 46 21 40 89 66 184 98 75 70 86 110 189 181 195 186 165 172 178 276 240 294 369 360 372 331 276
80 96 82 62 73 72 101 89 70 130 111 157 184 98 62 32 32 45 33 28 2 28 70 109 149 79 69 56 83 134 157 186 174 157 170 266 207 234 299 324 341 357 314 259
102 80 58 95 94 62 62 132 167 188 132 104 122 77 138 118 87 137 61 56 65 53 70 91 102 108 66 55 76 101 123 178 158 166 255 232 211 257 379 402 424 381 340 242
51 70 69 96 52 56 97 114 169 155 226 183 103 215 253 302 290 226 123 23 154 90 84 68 96 25 59 63 75 110 155 161 183 236 213 223 238 265 383 427 389 377 231 249
37 54 54 27 38 39 69 84 46 190 165 242 285 365 209 125 128 183 119 73 77 77 47 -18 55 -10 57 80 106 144 195 161 222 260 211 212 229 319 386 406 362 205 245 192
75 34 40 60 57 17 64 29 56 200 180 328 306 522 369 233 174 252 200 144 66 73 17 -5 -9 -19 57 85 119 173 191 183 238 243 222 232 295 348 408 392 306 217 256 238
74 56 43 -33 -0 25 74 100 135 196 330 295 506 294 262 117 120 138 147 99 67 100 34 20 -23 -23 46 86 110 157 197 187 212 232 234 305 330 363 334 299 260 254 256 197
75 33 17 42 46 21 26 62 107 108 213 331 341 136 139 1 -5 29 13 -2 15 48 9 -8 -23 -9 67 89 125 189 196 180 200 266 290 337 378 366 353 301 282 254 216 186
49 41 27 64 23 28 85 39 41 90 114 135 106 128 70 46 21 5 3 26 9 36 -1 -2 -8 16 116 184 167 182 195 226 287 335 390 390 385 322 241 228 217 200 187 166
33 42 11 40 49 96 7 48 86 44 65 79 61 51 19 34 19 -7 -23 -25 -15 -7 -18 -0 1 50 96 125 177 201 240 307 377 431 416 370 324 232 269 212 207 171 177 145
26 29 16 37 60 4 21 71 72 142 44 25 42 39 11 5 52 36 -12 1 -16 -16 1 4 44 63 119 156 167 190 264 327 377 374 357 303 236 211 193 200 178 162 144 137
-2 8 23 15 49 119 22 44 34 85 69 73 27 43 22 37 9 -39 18 54 -26 -35 -8 41 59 105 146 140 161 231 318 332 367 302 262 188 145 171 167 173 164 156 147 131
-2 23 65 35 38 -0 -3 15 33 133 35 -15 55 27 19 68 26 33 71 94 23 46 60 77 122 141 150 187 207 263 282 231 206 128 111 152 155 156 164 166 154 136 126 111
27 31 72 67 17 29 41 22 78 27 76 29 30 55 22 1 15 14 104 89 87 17 -5 11 15 74 74 57 67 98 103 106 122 141 157 165 169 168 148 128 117 115 120 102
7 -4 5 2 -1 -9 15 29 26 36 16 28 28 18 -1 12 -3 10 33 13 24 -6 17 34 51 63 61 63 104 132 147 127 150 165 173 164 144 123 119 125 123 108 100 85
26 -5 -2 32 17 -0 12 37 51 72 64 -38 -11 38 42 -1 -42 4 -17 -3 28 33 41 58 79 103 112 115 122 164 129 129 149 158 136 123 119 126 117 104 100 84 78 81
-3 -13 10 -1 3 -7 36 20 10 11 12 -22 -26 7 31 52 46 26 21 20 33 41 52 57 101 134 122 106 125 113 102 117 131 134 122 121 117 107 99 88 83 75 86 86
36 2 -4 8 44 -8 11 22 17 27 28 29 22 37 75 106 81 60 63 83 80 83 87 82 100 119 141 143 156 128 122 119 130 130 118 112 105 100 90 87 84 80 104 105
-9 3 -3 -12 24 -12 10 36 26 34 28 50 75 61 62 71 76 91 93 97 105 118 108 121 135 166 153 151 158 141 119 111 111 115 104 97 88 83 79 74 78 86 94 94

GFSCGP_con_3kmhel_042.txt.gz
Helicity
140 142 113 51 37 44 178 204 171 203 200 107 60 47 46 45 57 58 82 103 105 91 88 105 120 140 178 153 154 169 252 280 269 228 244 273 206 286 304 289 326 449 372 277
159 85 44 67 86 81 81 72 73 57 60 58 39 48 47 68 78 87 78 108 114 101 96 70 90 145 126 165 219 202 207 297 276 269 272 262 384 409 418 446 513 553 401 382
70 81 18 56 65 54 65 60 65 69 55 17 46 63 17 101 23 8 26 53 69 105 112 102 88 103 144 137 119 230 282 274 311 329 429 496 577 562 607 660 639 658 497 414
39 52 50 49 38 40 55 57 51 58 62 46 113 34 49 36 44 44 33 68 87 97 113 112 99 114 139 150 145 118 215 280 286 341 475 483 491 539 596 655 689 702 484 414
60 48 50 33 33 42 54 73 100 76 66 61 26 61 -21 -4 34 38 73 112 89 72 86 107 144 128 107 124 166 174 136 189 266 321 463 545 580 601 638 679 731 643 473 415
53 60 50 41 39 62 105 83 24 42 59 58 -3 22 4 -17 86 68 175 82 50 113 107 123 162 174 126 132 143 181 181 199 263 355 470 532 571 571 558 552 613 554 446 433
51 39 27 78 68 75 71 60 42 14 42 50 61 63 147 84 32 51 96 123 115 155 152 100 130 117 86 86 120 134 200 269 323 410 503 508 473 481 446 488 536 515 459 445
39 37 31 65 64 63 44 82 67 83 96 105 152 157 146 40 4 147 113 94 67 97 97 128 100 105 91 91 91 138 190 309 373 475 442 387 445 402 388 393 417 419 444 429
40 63 56 70 50 36 92 46 112 135 100 118 116 181 109 6 33 61 91 121 100 108 88 159 180 145 107 92 101 126 192 282 387 446 365 368 413 388 336 372 388 418 425 411
91 66 51 60 49 34 50 81 149 156 105 80 116 92 85 200 278 283 300 252 183 101 199 233 216 134 80 77 99 126 168 231 360 340 355 454 453 383 320 349 388 379 374 387
61 90 84 111 40 75 85 90 118 170 153 121 96 122 221 209 154 140 124 104 201 256 232 185 102 55 49 67 54 156 175 227 277 332 442 547 529 431 378 362 359 400 450 372
42 68 64 49 40 17 69 91 75 130 99 194 229 94 167 92 202 235 146 163 93 132 123 104 84 49 49 40 61 154 178 226 416 510 546 470 424 392 374 396 396 417 361 321
63 46 48 51 83 58 91 60 88 137 130 226 286 385 388 233 102 87 152 179 154 113 140 144 138 19 6 34 109 195 270 420 491 506 452 358 329 324 322 348 360 323 295 348
60 56 45 53 82 74 25 48 75 80 168 218 456 310 377 127 21 27 95 109 6 16 44 90 103 18 -2 113 188 336 427 465 449 373 299 283 282 284 330 356 344 360 400 333
77 42 48 53 11 -14 -39 -6 29 98 148 213 194 153 140 71 76 126 62 107 77 80 61 92 71 -6 48 164 277 368 416 400 315 232 237 259 274 306 361 370 388 317 230 225
75 40 65 -3 44 14 39 82 50 57 80 130 119 140 113 88 114 231 141 34 4 -3 55 66 -12 22 126 240 326 389 356 289 207 227 287 330 372 396 411 417 344 344 309 155
46 46 12 -1 35 36 -4 10 70 156 141 98 167 111 61 41 48 104 84 28 16 -8 20 60 41 169 269 298 297 315 327 289 265 284 320 364 411 418 375 347 302 148 141 192
40 41 24 31 68 -3 1 79 97 105 103 65 122 130 49 53 165 92 -4 22 46 9 12 29 126 188 187 180 201 237 302 315 301 321 380 401 389 377 336 324 210 135 141 149
24 36 22 20 40 49 15 52 27 89 91 93 105 79 39 50 155 24 32 56 40 42 79 147 128 121 148 170 205 248 306 300 318 358 401 393 272 322 246 146 108 107 137 139
-19 4 30 39 28 10 5 -13 67 130 56 114 91 70 17 -4 80 28 -24 20 45 79 72 58 93 108 146 149 131 223 292 350 323 323 340 341 273 122 50 95 136 128 120 107
13 19 42 25 11 3 20 11 108 47 95 62 79 43 19 23 24 76 14 -26 33 69 84 92 128 155 171 203 190 216 206 233 148 112 66 37 51 89 123 126 112 96 111 108
29 3 17 -13 4 -1 -22 -8 29 111 67 63 77 71 33 27 43 42 13 39 8 2 26 51 4 32 31 65 68 90 53 -17 6 70 85 96 115 120 114 98 101 108 96 100
33 2 7 -22 -13 -7 -2 -12 67 38 60 38 21 39 8 22 24 52 14 5 15 17 -2 -28 -10 -15 -39 -22 8 34 12 52 89 124 130 117 106 86 82 88 83 83 90 86
22 4 9 -26 -22 -21 -1 12 11 12 39 12 25 69 79 85 22 30 28 20 32 42 53 46 67 68 50 23 24 47 59 67 93 102 88 83 86 83 79 79 81 78 78 87
37 44 -13 -10 6 6 45 14 30 34 34 41 49 78 123 147 88 74 75 77 61 47 46 45 67 75 67 66 83 65 74 88 107 101 78 73 70 75 79 68 61 74 85 88
19 5 12 -17 42 35 22 25 39 58 44 53 64 88 80 114 104 109 119 104 115 111 101 116 121 131 112 121 120 92 87 93 81 73 65 71 73 67 68 75 80 74 78 79

GFSCGP_con_3kmhel_045.txt.gz
Helicity
134 136 98 56 88 82 124 177 163 113 189 137 92 60 62 54 58 21 15 54 45 31 27 75 82 95 126 149 132 153 209 247 327 382 325 240 253 281 277 300 277 301 339 319
178 111 57 56 52 87 133 93 66 35 93 69 65 17 9 56 102 106 51 70 42 30 36 17 33 55 90 116 126 149 144 209 291 301 336 340 350 376 314 312 363 396 459 433
131 98 61 70 107 74 88 64 53 51 -3 -5 1 23 53 64 43 12 1 36 73 84 91 82 79 71 60 79 104 115 163 126 251 425 565 625 644 531 477 407 477 497 538 500
93 88 114 90 70 75 80 73 65 67 50 58 39 64 61 41 39 32 33 36 39 74 121 145 129 134 104 91 94 102 102 132 147 249 385 517 537 506 468 522 587 632 547 569
62 63 63 65 65 67 60 60 62 67 61 33 47 80 4 -46 10 -13 23 -9 -1 14 46 27 50 50 100 147 142 136 106 119 152 202 302 402 536 598 598 636 663 669 618 563
62 108 80 57 70 92 68 69 57 45 43 73 55 87 21 -21 -51 -14 47 69 -6 11 52 73 65 73 75 87 105 126 135 123 134 204 317 450 576 656 685 665 660 653 620 567
79 40 53 78 81 89 91 76 87 58 63 32 90 59 113 13 -39 -20 9 13 66 43 169 176 152 136 132 152 150 124 100 116 128 170 352 485 540 606 607 597 618 602 624 582
54 51 61 50 85 46 87 55 63 38 42 46 82 35 -7 -54 -36 20 45 66 82 66 76 68 101 127 166 179 155 96 69 144 129 265 396 471 563 642 603 566 549 550 542 521
57 73 41 51 69 95 56 53 79 85 79 94 91 109 73 32 137 158 210 252 241 187 112 127 210 195 158 145 118 69 102 105 168 319 523 541 572 526 470 476 471 457 458 469
84 59 50 55 61 38 61 67 99 102 57 55 71 94 83 61 80 97 110 133 161 131 112 143 151 218 206 172 88 84 64 110 214 395 457 553 523 471 439 414 384 388 413 418
75 73 81 78 48 53 80 76 93 112 108 71 62 37 76 116 86 41 57 67 48 59 125 205 208 201 169 118 72 59 47 136 300 446 458 471 455 389 384 335 330 343 392 428
75 61 66 31 25 70 104 102 109 109 77 121 148 149 32 39 125 82 -13 -62 -11 81 129 162 115 148 184 110 57 63 103 322 413 421 430 422 432 379 347 294 290 369 412 405
71 51 80 58 84 82 66 68 95 12 116 131 145 198 198 213 47 43 65 91 82 83 80 93 130 142 103 52 50 116 278 389 364 442 464 421 406 330 302 327 330 366 410 421
65 42 31 17 59 92 61 59 66 165 171 109 381 301 283 162 90 52 64 85 137 72 54 42 28 33 80 62 102 215 315 363 400 466 436 374 344 289 312 333 349 360 390 438
79 40 33 9 -7 -7 2 -12 17 106 175 210 272 222 168 106 82 95 170 206 138 42 36 9 83 46 72 83 158 266 340 358 419 375 352 325 264 268 310 346 362 415 440 376
95 51 50 18 12 -17 -19 16 20 43 104 228 220 271 113 117 72 114 171 80 88 19 -19 51 39 76 119 201 233 292 294 297 315 305 293 260 259 326 403 421 442 419 371 303
58 30 28 22 41 -28 -12 6 47 97 165 182 102 61 71 76 78 161 127 16 36 22 0 9 95 118 188 266 291 272 282 279 294 286 256 282 359 433 474 447 430 376 352 323
43 35 32 18 28 17 11 18 45 138 145 152 140 121 58 77 250 204 63 2 21 14 14 41 45 141 250 330 316 262 227 221 264 295 329 387 398 402 354 328 307 278 239 193
57 43 16 25 19 21 46 17 16 53 50 66 87 84 64 -2 165 58 0 41 22 83 143 155 137 173 182 188 197 227 231 282 340 346 382 295 313 329 261 281 211 140 107 79
52 41 19 37 25 17 22 4 32 73 30 99 104 65 25 13 48 38 38 46 55 43 20 50 67 131 131 161 252 285 282 256 259 243 210 209 159 127 152 85 75 65 56 86
35 18 10 30 19 25 29 26 69 20 81 98 101 31 -28 44 35 72 47 35 52 63 89 102 129 152 122 94 122 128 125 63 95 63 113 123 67 80 46 26 5 78 78 68
26 26 20 4 4 7 -5 -4 5 72 107 83 84 75 35 55 46 40 37 5 -2 30 25 56 73 79 61 45 53 11 75 10 73 70 58 39 12 -15 3 75 58 60 79 97
37 28 14 -18 -18 -1 13 5 39 51 62 73 90 90 102 46 31 30 27 10 23 -5 -50 -48 -27 -21 -52 -58 -32 0 -32 3 1 -19 28 46 63 77 57 60 68 89 103 106
30 30 19 21 -2 19 22 25 15 18 31 32 81 119 111 93 60 55 50 25 5 -9 -6 -11 -12 -29 -66 -61 -35 -36 -46 8 35 28 45 71 76 67 71 82 88 87 87 92
15 42 24 30 9 29 36 19 6 16 32 44 68 107 142 134 86 71 76 62 40 17 -15 -12 -6 -8 -15 -7 -7 -1 24 36 61 77 68 66 75 81 79 73 69 77 57 59
24 23 23 1 -7 14 4 15 13 28 30 53 107 132 139 107 113 103 96 66 62 64 41 31 35 42 13 29 30 22 29 64 96 85 70 64 66 68 69 67 68 73 78 81

GFSCGP_con_3kmhel_048.txt.gz
Helicity
128 139 156 267 106 120 113 139 135 116 107 83 88 73 37 32 41 38 17 9 8 -15 -30 30 112 135 140 108 101 141 183 171 315 367 346 363 288 266 266 239 219 233 254 250
150 104 65 54 43 61 83 108 80 50 60 54 45 14 -0 41 101 147 90 11 2 16 11 31 65 78 117 122 151 133 154 168 216 301 344 375 426 374 317 291 260 268 312 294
136 114 71 74 71 69 90 83 51 42 27 -6 10 13 70 93 61 65 76 82 71 67 31 11 34 39 65 85 89 113 135 133 149 207 367 512 539 531 495 379 315 284 390 411
100 106 100 97 107 96 100 42 9 31 40 60 72 40 48 61 37 8 11 43 58 87 119 127 118 78 69 81 102 87 101 125 132 204 365 327 370 418 412 379 428 412 413 466
110 104 114 123 77 86 67 55 42 33 27 28 48 74 38 41 58 63 84 69 24 12 47 50 83 112 128 133 133 126 114 106 150 202 237 318 311 388 543 579 548 474 471 474
108 106 95 71 103 88 68 77 70 29 17 74 34 85 34 17 46 4 29 85 101 24 36 27 46 45 42 50 72 108 128 150 101 135 212 269 367 448 522 524 552 508 515 498
119 106 92 95 105 119 88 83 84 91 99 58 40 49 11 9 -54 2 9 52 100 100 90 41 30 108 151 147 131 93 82 104 141 123 124 214 351 428 461 491 531 564 561 532
92 77 59 68 58 32 83 49 52 52 52 58 51 24 7 34 37 50 93 133 196 204 141 60 72 100 121 133 152 157 130 97 76 100 134 205 299 417 471 510 554 525 572 599
89 72 73 43 90 72 63 61 46 72 73 60 57 54 7 56 105 153 184 196 177 210 217 185 145 108 103 115 132 127 116 73 57 86 142 273 319 396 486 558 571 604 585 530
61 58 52 65 77 72 54 66 84 91 40 23 36 27 -8 -0 77 99 105 84 54 -8 17 75 106 122 110 96 118 117 81 54 29 73 231 296 373 432 472 539 495 483 455 442
74 50 81 59 45 71 90 64 61 67 56 31 40 -0 46 43 82 49 -17 -37 -69 -34 -0 12 46 136 136 170 208 124 65 43 95 199 270 329 406 455 422 418 411 389 364 384
78 52 54 41 59 44 82 59 82 56 40 72 52 90 5 3 66 45 -44 7 44 54 68 70 117 173 191 170 120 65 57 26 136 242 302 331 357 366 357 325 297 328 382 352
59 56 75 67 58 61 49 61 70 99 57 99 98 40 69 67 21 11 31 26 74 74 68 60 89 141 103 112 93 48 71 120 215 298 344 323 286 293 305 285 319 337 334 360
55 38 35 23 23 47 46 55 56 126 63 72 211 218 141 161 101 -11 38 61 153 128 76 85 72 60 108 82 89 102 129 177 243 305 318 298 262 265 251 255 260 273 349 429
49 25 29 13 2 21 19 10 72 81 162 137 195 104 150 79 10 74 98 125 114 64 54 30 69 54 51 120 148 132 112 167 234 279 325 332 333 307 317 328 350 410 447 480
87 37 43 24 14 8 -0 -11 9 36 74 188 257 257 148 149 53 115 76 48 32 48 32 23 73 74 81 95 83 80 91 159 191 250 273 304 333 318 290 363 394 425 455 433
75 47 48 30 47 16 10 32 61 33 123 175 177 108 7 -13 46 110 29 21 23 37 40 53 83 104 110 108 148 189 174 225 204 246 312 328 325 336 377 394 407 417 385 359
75 70 41 22 33 17 14 32 -21 83 86 129 100 -5 -0 5 146 120 44 31 32 25 47 76 87 95 128 151 166 151 162 173 223 256 245 277 307 311 288 353 364 386 246 266
55 48 23 32 16 17 27 33 -3 -11 29 29 51 -18 -10 15 116 133 25 31 22 19 41 84 91 103 140 160 163 177 153 136 126 123 127 153 177 244 210 284 268 187 174 146
45 62 34 36 21 28 24 8 7 38 -9 64 88 -7 -23 -25 -6 26 29 30 29 18 18 24 48 76 63 47 79 89 8 13 39 86 115 104 142 163 152 114 122 84 32 14
38 35 15 12 17 35 40 23 15 11 9 108 84 40 -8 -13 15 38 58 60 21 30 20 36 44 55 29 19 33 100 90 153 91 136 129 139 90 93 80 60 25 23 38 44
42 32 32 26 21 29 25 24 9 6 26 64 70 62 61 53 20 16 12 27 27 19 22 52 64 53 80 85 111 106 115 56 63 51 39 46 40 41 13 -4 15 26 42 68
32 33 35 22 27 32 20 7 35 40 22 43 59 74 71 63 19 3 -4 3 -17 -12 -26 -31 -21 -38 -25 -23 -10 -5 -33 -21 5 16 19 3 -20 -24 -6 25 36 55 66 77
37 27 42 27 35 76 51 21 35 32 27 34 42 101 112 83 74 45 22 -3 -15 -10 -15 -31 -39 -41 -34 -41 -34 -28 -29 -18 -18 -10 -10 9 26 27 30 36 41 56 66 71
37 20 31 39 33 22 31 15 18 17 20 32 57 96 112 124 82 83 57 36 6 -25 -16 -7 -19 -35 -38 -33 -39 -45 -40 -20 19 19 12 32 40 39 50 57 54 58 61 74
28 26 42 36 2 -18 -10 2 7 9 14 32 73 113 115 110 110 91 73 52 49 43 17 3 -5 1 -18 -2 4 -12 -6 39 53 47 38 32 40 46 53 63 77 91 98 101

GFSCGP_con_3kmhel_051.txt.gz
Helicity
131 99 124 124 92 116 116 136 143 141 111 89 44 21 38 19 39 38 24 22 22 17 8 21 55 74 74 124 190 183 198 186 266 330 350 294 268 254 238 219 184 191 211 216
159 93 52 160 175 137 140 139 112 99 71 56 36 -4 13 9 29 63 74 65 60 74 54 48 62 66 85 112 154 183 177 155 192 268 298 345 347 283 251 269 242 244 244 264
104 93 84 92 153 92 112 77 93 73 67 15 20 -15 47 47 62 77 65 72 72 61 54 68 61 60 67 95 103 149 200 178 156 185 267 408 432 446 417 349 261 242 279 307
101 109 39 36 -29 47 53 49 41 59 75 59 58 4 30 69 74 60 52 50 69 101 98 112 122 129 122 102 117 112 125 146 162 164 306 320 378 399 395 341 285 301 339 355
124 101 112 103 75 90 83 62 49 30 27 28 54 51 44 68 92 109 127 182 154 151 142 154 117 105 110 103 126 130 119 112 116 139 186 250 299 348 351 388 356 426 422 395
111 130 125 108 132 95 49 87 59 29 29 76 51 88 59 57 134 123 119 81 147 196 179 185 122 81 75 48 57 75 107 116 121 148 155 188 209 321 397 408 416 389 431 402
133 161 148 114 148 155 96 96 97 108 120 68 31 60 -1 61 91 45 49 103 168 187 220 203 170 123 110 97 75 78 87 78 81 100 147 173 185 254 299 359 376 404 431 448
92 107 87 88 74 44 96 71 75 118 112 78 41 43 11 40 47 63 95 102 126 150 111 100 127 120 91 98 107 93 89 69 64 58 51 83 153 214 259 330 382 362 363 408
101 99 77 67 82 64 53 66 46 14 26 38 41 28 -4 60 83 87 133 130 99 39 34 59 33 83 123 139 124 137 124 100 80 68 58 54 117 188 215 271 374 403 450 520
68 82 81 77 81 99 39 42 65 81 36 45 47 24 22 32 35 78 78 50 -19 -55 -28 -19 -20 9 47 122 149 162 119 90 64 43 28 54 119 190 254 326 411 443 455 492
77 55 85 67 43 53 79 72 72 54 45 27 40 12 18 49 17 47 46 -40 -108 -8 -41 11 62 121 123 145 213 268 212 124 89 86 79 126 185 239 274 309 375 404 420 402
67 34 61 59 47 24 45 35 69 53 38 84 44 26 20 14 -46 -19 -45 1 9 53 49 76 43 16 91 134 190 211 211 172 94 69 92 135 166 212 255 291 312 305 349 321
37 53 69 71 40 53 40 47 83 87 75 58 60 12 22 -26 -5 12 -8 26 46 23 39 50 49 75 86 61 79 94 137 107 47 33 64 111 155 181 191 231 264 286 312 312
47 28 26 27 19 33 54 46 104 120 79 65 93 101 79 90 25 60 67 50 5 -17 -20 8 7 44 36 87 87 85 83 64 31 43 84 126 148 162 175 194 195 201 253 324
46 3 20 18 16 16 6 10 58 117 101 85 72 77 166 71 32 41 61 -0 -35 -22 -1 2 34 51 66 73 85 90 105 93 52 72 106 148 162 188 221 265 279 308 356 414
85 29 32 24 29 11 5 -24 -2 22 14 107 152 198 135 10 37 46 37 9 -21 -0 -2 28 23 39 50 64 75 92 77 85 86 120 215 243 257 298 333 352 372 374 386 437
55 46 37 28 49 29 18 35 72 52 67 71 101 154 39 -23 -13 38 30 5 -4 -1 -2 11 6 10 21 63 67 80 104 107 173 246 236 235 309 346 333 325 320 370 378 378
79 63 38 28 43 28 17 27 17 54 42 109 55 27 -15 9 70 119 48 23 -0 -6 6 -4 9 21 30 44 63 91 60 46 22 54 59 131 117 169 199 220 265 227 209 259
57 67 31 37 30 25 24 28 6 -15 13 -35 62 9 -12 -2 76 74 -3 23 14 7 10 1 -4 16 31 46 28 31 30 51 56 62 93 68 109 97 17 139 119 207 119 151
66 75 37 25 32 31 39 40 14 26 17 -2 60 -4 12 4 4 -10 38 29 29 29 34 31 15 22 21 17 17 66 73 94 94 98 95 92 90 106 128 118 127 132 106 61
24 19 4 26 31 51 17 31 1 29 4 22 31 51 59 18 -10 10 28 27 21 29 45 43 57 58 61 21 29 50 40 46 55 42 51 68 66 124 97 74 53 44 34 32
30 19 41 29 33 48 24 50 24 10 26 5 32 50 44 38 49 1 -1 -1 10 23 15 30 41 39 29 18 25 36 29 10 4 -1 14 15 23 11 19 19 -0 13 26 43
26 31 35 16 44 43 47 38 25 35 38 21 44 59 82 74 44 31 -6 -7 -16 -15 -12 -18 -27 -29 -18 1 -6 8 -16 -20 -14 -0 -4 -3 5 -10 -15 1 11 31 41 51
16 49 47 36 42 62 60 32 31 20 32 27 37 64 112 109 96 75 31 13 -10 -8 -16 -11 -27 -26 -22 -36 -25 -18 -15 -9 -9 -6 -6 -3 9 14 15 24 26 40 47 56
33 43 23 49 66 40 34 11 1 25 34 24 46 72 90 130 95 87 87 48 17 11 -9 -26 -19 -30 -17 -7 -11 -22 -21 -10 11 8 5 15 15 20 34 39 34 38 27 37
15 21 38 29 20 16 15 -6 16 26 12 13 48 69 96 104 122 113 114 82 69 45 10 -3 -9 -10 -25 -11 -8 -12 -5 21 37 31 15 13 21 25 31 35 46 70 90 112

GFSCGP_con_3kmhel_054.txt.gz
Helicity
134 124 108 90 147 132 105 122 132 128 115 85 57 10 11 34 30 40 44 44 50 47 41 49 74 98 123 159 180 213 236 236 246 262 242 233 182 201 222 248 203 207 198 187
201 139 80 72 107 134 145 140 123 127 102 62 38 -12 11 35 56 71 70 73 58 33 21 34 60 98 119 120 142 151 175 199 230 272 266 299 236 202 230 248 227 221 256 235
62 70 60 94 167 114 171 113 101 93 95 31 16 -47 53 49 51 68 91 74 87 83 76 96 116 125 108 95 128 163 157 128 147 231 290 398 363 341 256 290 250 254 291 272
97 45 15 80 41 160 125 57 68 91 93 69 85 -4 64 79 153 137 223 231 202 159 155 147 163 177 165 155 134 137 156 171 167 171 251 263 270 294 304 291 282 298 325 306
148 74 49 14 15 -15 47 58 62 41 30 48 80 54 78 110 160 160 202 208 188 182 178 190 180 149 149 132 110 123 123 185 176 170 200 216 213 242 275 257 276 297 303 325
105 113 97 77 102 41 43 107 83 59 48 85 71 72 81 99 159 136 129 164 169 169 174 179 155 137 144 113 112 117 120 91 111 140 150 156 172 213 257 282 296 331 334 347
139 137 108 100 171 155 108 102 99 97 119 73 63 79 54 64 86 48 46 109 145 99 97 94 134 164 173 164 149 131 141 139 107 78 91 116 138 175 209 238 256 278 292 321
88 99 91 91 73 42 105 74 76 106 117 87 66 81 51 50 40 29 57 71 88 94 26 28 42 44 86 102 101 117 127 136 134 117 93 74 70 125 150 192 227 271 267 275
78 94 101 95 85 87 74 94 68 51 72 101 57 44 31 54 34 53 111 116 76 17 -14 -16 -20 -29 21 78 115 102 132 144 171 145 102 79 74 73 102 141 200 217 269 287
68 81 84 72 85 131 70 43 87 96 87 99 58 55 46 90 96 71 86 33 -18 -54 -56 -22 -40 -15 44 87 123 140 188 210 225 175 117 81 54 59 85 131 173 226 268 303
64 58 79 71 49 52 86 76 83 58 55 48 65 43 28 70 85 19 -6 -49 -27 13 12 -12 38 27 16 36 128 167 216 234 257 248 181 117 93 89 124 163 187 221 256 253
62 45 54 60 36 38 45 22 54 45 37 52 39 37 31 17 -70 -20 -32 -20 11 9 -14 -10 10 2 12 85 116 140 130 125 130 138 134 102 79 82 122 149 147 172 188 195
27 49 54 56 47 53 36 54 75 78 62 33 41 33 34 -23 1 -42 -65 -3 -25 -26 -6 17 42 35 58 92 88 78 72 67 61 91 81 61 62 57 100 114 115 136 174 207
31 22 22 23 27 29 44 49 86 90 66 61 54 43 41 54 -16 4 -20 22 -2 16 11 6 8 53 71 53 37 25 36 63 68 90 105 110 63 104 137 164 178 197 224 263
34 6 34 28 26 24 20 23 52 95 122 50 48 58 129 68 36 11 42 20 -5 -24 -20 16 25 59 58 53 25 18 14 27 34 65 106 121 147 177 208 255 244 257 293 305
76 11 13 30 31 10 26 -1 12 26 29 72 107 122 112 39 -16 19 20 -20 -18 -10 -1 -20 26 51 56 62 36 26 45 40 65 102 142 161 172 197 225 238 256 262 267 285
55 24 28 31 42 32 29 17 49 117 96 106 85 139 40 9 -17 -2 22 -17 -2 -7 -20 -24 -6 27 14 17 25 51 59 29 57 75 51 71 111 160 161 163 148 184 245 266
67 59 28 33 44 32 10 24 27 76 34 146 77 66 17 5 23 54 37 11 16 18 15 15 12 14 20 18 38 38 53 41 32 60 33 55 77 118 119 143 158 165 181 236
62 58 33 38 38 27 33 34 39 23 15 -22 43 2 -22 22 46 33 12 40 30 29 38 32 30 26 12 22 21 28 28 29 42 80 86 86 108 105 135 132 141 159 175 201
95 83 59 26 36 31 34 39 38 17 34 -14 -0 -20 4 20 17 15 18 14 39 34 52 58 51 42 48 14 4 56 39 37 25 51 44 29 81 82 114 119 96 65 64 92
63 52 35 30 32 42 25 37 40 37 25 3 8 -23 43 32 43 56 47 6 14 33 39 54 46 55 41 24 18 50 41 36 12 10 19 38 43 40 6 5 -6 5 22 19
23 30 27 41 35 49 19 54 40 26 34 28 6 2 43 51 66 71 56 24 1 7 9 18 12 31 13 4 25 24 -3 -0 -5 -4 -7 -8 -18 -19 -20 -7 -16 -7 15 32
4 3 2 22 48 50 55 59 56 43 39 36 25 20 76 87 73 78 60 33 11 9 3 -10 -23 -7 -2 1 -14 -4 -27 -35 -21 -11 -8 -5 -12 -16 -15 1 9 21 25 28
18 37 30 52 37 49 69 44 55 24 13 20 35 38 93 103 108 93 79 56 16 23 17 3 -23 -23 -11 -11 -20 -16 -18 -12 -5 -0 -1 -2 8 15 15 15 11 14 13 16
5 34 19 45 39 55 36 33 32 17 16 26 38 38 72 118 115 114 111 80 61 30 21 6 1 2 3 -5 -6 -15 -9 5 15 13 7 9 13 17 22 20 10 12 14 25
43 30 31 27 47 24 27 3 -1 8 8 13 37 46 57 99 136 144 121 140 100 54 31 27 20 7 -10 -0 1 -16 -7 10 25 26 18 17 21 23 25 29 33 41 32 55

GFSCGP_con_3kmhel_057.txt.gz
Helicity
87 122 72 102 161 163 91 135 123 106 114 100 63 34 49 57 41 42 59 78 90 88 66 74 112 131 143 162 147 145 168 186 198 230 237 207 204 185 166 154 130 147 163 159
132 59 81 104 130 138 127 146 140 149 129 82 77 37 57 59 54 45 54 64 64 60 64 74 78 88 91 111 148 163 167 169 222 261 269 278 241 198 174 143 152 164 174 204
167 105 102 100 111 150 176 138 146 140 124 58 26 -12 53 65 103 133 145 105 128 131 150 173 187 149 155 160 160 155 165 191 186 185 253 345 336 312 240 211 188 173 197 228
107 162 83 64 97 103 135 106 113 108 115 121 91 77 100 90 139 192 229 257 258 249 212 205 239 234 207 215 170 137 150 157 176 179 191 198 251 273 291 272 203 170 184 214
63 16 138 148 183 134 105 71 105 116 108 107 106 60 107 117 157 180 227 270 273 233 192 194 186 180 169 163 157 125 128 142 169 194 159 167 161 179 208 232 208 200 219 219
87 46 17 22 -32 28 17 133 134 123 115 129 117 92 136 136 137 145 165 230 232 214 191 159 142 124 147 132 144 139 139 115 122 159 177 155 142 148 182 187 195 194 218 238
164 180 110 79 96 63 52 80 157 222 209 138 94 93 97 88 110 89 139 204 151 70 63 77 112 142 166 161 131 128 143 165 171 160 135 134 119 147 164 167 184 168 187 217
68 92 99 83 67 34 93 66 76 106 121 94 80 96 91 78 78 59 100 87 23 19 12 38 31 38 65 99 128 130 131 143 163 168 181 177 167 151 133 130 153 181 186 170
91 87 95 89 70 75 68 74 65 73 93 100 71 72 57 56 60 66 105 73 34 -23 -13 8 21 29 38 47 70 100 148 186 190 204 195 192 171 150 132 116 106 113 131 153
59 78 81 63 94 122 71 61 88 90 95 116 102 90 61 79 80 84 95 60 26 -11 14 25 25 26 38 62 57 68 115 178 225 209 184 176 172 161 130 99 91 100 111 121
54 47 80 62 60 46 85 81 88 76 64 99 136 100 37 25 27 25 14 -19 -35 -26 -19 4 26 46 57 49 67 88 128 143 158 172 195 202 211 197 149 135 132 122 121 120
68 40 58 64 60 52 49 38 40 41 42 51 55 64 45 43 10 -12 -29 -26 -38 -48 -24 -29 29 56 62 108 140 141 130 113 93 95 126 160 149 141 131 95 99 99 131 142
37 57 66 54 30 55 35 50 57 54 54 29 48 44 39 41 -22 -25 -49 -26 -34 -20 0 38 49 68 105 132 123 118 114 103 76 79 111 106 117 82 69 78 100 145 173 186
57 39 38 33 34 36 39 49 64 53 49 48 41 51 4 7 8 15 -21 -18 -20 -26 7 35 11 42 73 72 67 68 48 36 43 60 67 71 98 110 120 164 207 230 238 271
46 24 37 33 32 39 39 35 36 47 72 34 40 35 81 53 28 11 22 2 -21 -13 16 18 3 36 63 55 45 42 37 20 3 26 46 43 74 110 129 178 169 185 222 227
72 13 10 35 30 23 40 18 12 12 22 38 45 76 59 16 1 6 16 19 -2 -7 8 13 -3 3 -5 26 27 23 35 38 36 53 74 59 76 102 156 229 122 182 184 162
59 14 16 34 46 35 37 26 78 70 51 57 65 61 51 36 15 1 2 7 5 16 29 45 39 22 -3 3 -15 7 26 39 49 67 69 72 108 122 98 120 129 156 174 178
62 54 35 38 44 36 17 29 28 82 64 91 64 61 41 30 20 21 20 2 8 24 34 48 66 45 35 13 3 18 20 32 52 63 84 64 84 110 113 148 165 223 241 193
46 54 37 34 39 40 32 43 58 43 52 32 39 41 -3 6 17 11 16 16 23 35 38 41 58 53 56 52 36 40 20 21 46 55 48 35 -3 59 72 85 63 100 138 132
81 62 48 37 35 34 43 69 57 38 56 16 7 -6 -14 20 17 -6 41 34 29 28 37 47 51 40 39 36 35 31 13 23 48 24 30 33 37 38 63 57 93 71 62 61
74 74 56 40 48 52 23 26 51 64 39 37 16 -4 -26 -7 10 35 58 53 36 10 9 39 53 32 15 29 17 31 19 45 27 28 27 23 13 8 -3 1 1 4 4 9
45 46 47 42 53 62 31 83 53 70 54 44 31 1 -19 52 67 60 52 54 51 22 4 -13 8 14 13 6 0 19 19 -19 -23 -13 -10 -10 -14 -15 -13 -4 -12 -15 -15 -6
37 26 24 24 42 47 71 63 66 62 55 43 32 8 29 89 70 84 46 49 44 20 6 6 -6 3 -16 -23 -20 -2 -19 -24 -15 3 9 8 -2 -7 -11 4 2 2 2 5
20 31 33 45 35 9 9 32 55 45 29 28 17 14 42 72 115 117 97 74 55 27 16 4 2 12 10 -6 -4 -7 -5 -2 12 22 19 12 19 17 10 6 3 6 6 13
13 47 25 31 27 31 43 35 72 58 40 32 21 16 29 85 119 142 135 106 78 57 5 13 20 26 27 15 9 -7 -3 16 34 25 20 19 18 19 20 15 8 11 9 18
75 72 73 38 43 56 39 29 3 23 24 11 8 23 34 74 117 144 157 132 123 85 48 22 28 37 25 27 21 -5 2 19 34 33 23 20 23 19 19 20 29 48 46 49

GFSCGP_con_3kmhel_060.txt.gz
Helicity
60 103 129 65 55 182 103 57 81 109 89 80 50 46 50 56 48 45 58 73 89 89 100 112 115 125 131 142 137 145 171 163 149 170 195 176 189 159 165 139 114 104 89 90
136 46 76 70 69 105 45 63 76 141 91 106 57 45 36 47 60 67 69 79 91 87 73 109 128 139 141 141 159 163 166 173 193 208 224 198 179 171 154 143 129 131 109 94
70 37 61 57 72 85 105 89 99 137 119 106 85 43 43 86 99 90 106 112 128 148 156 161 173 189 189 169 152 162 187 195 196 194 207 233 257 269 244 199 157 131 145 149
74 142 22 27 53 51 80 138 125 131 125 146 123 98 90 80 105 115 149 187 207 206 199 201 210 211 213 207 186 157 169 167 163 159 183 178 192 193 189 178 159 164 141 166
61 70 58 45 31 48 134 110 131 143 136 134 107 133 105 74 98 131 199 227 238 230 213 209 206 199 189 173 155 141 122 114 128 153 183 195 167 146 131 131 117 106 112 104
111 205 253 170 242 138 74 119 142 129 136 152 119 146 80 94 101 132 191 226 208 197 176 166 152 149 160 151 136 118 123 123 123 99 102 153 162 140 138 129 129 113 121 124
166 165 234 170 132 213 154 123 188 187 202 200 142 142 167 121 138 144 197 190 169 126 109 117 118 125 133 138 134 123 129 136 144 148 144 129 127 149 160 153 162 153 165 158
180 79 71 56 92 73 88 153 262 225 185 159 126 147 143 107 118 139 184 161 109 75 42 43 54 72 92 114 132 147 141 145 164 177 169 148 146 149 144 130 137 144 131 121
53 69 64 55 52 66 59 80 98 129 141 148 110 100 82 101 70 100 140 108 79 56 43 41 44 51 62 78 95 116 140 152 173 196 200 210 199 185 171 169 164 156 130 125
51 69 70 55 66 81 68 63 84 101 116 147 86 102 103 92 102 108 116 85 43 25 15 15 26 54 77 85 92 106 126 154 186 219 228 212 203 207 213 216 213 202 180 170
28 59 66 66 54 48 71 76 84 92 93 117 111 83 63 67 78 87 76 34 0 -4 -7 9 28 55 86 98 118 138 160 166 157 150 146 143 141 154 179 191 184 168 156 134
64 39 52 66 50 56 64 75 82 122 81 85 126 94 63 75 38 30 46 7 -13 -26 -13 20 41 52 67 89 115 106 88 86 94 89 76 81 106 145 166 185 188 169 158 151
24 55 62 41 43 48 41 42 64 60 65 68 94 67 64 55 18 -16 -2 -28 -22 -17 -13 17 27 50 75 88 83 75 70 67 64 67 80 103 126 124 151 148 126 118 103 125
62 43 60 68 51 50 45 31 31 52 41 43 59 72 47 49 7 19 -9 -16 -17 -23 -26 21 39 64 58 58 60 68 70 48 24 12 48 75 74 82 82 85 117 162 164 175
61 33 39 42 44 42 48 31 22 59 67 38 75 49 65 44 37 19 4 14 11 1 7 33 42 27 22 30 31 27 36 36 14 10 48 66 64 61 80 104 140 180 176 178
75 30 30 30 34 31 51 37 19 15 12 14 26 57 69 54 24 9 13 14 11 10 34 48 40 36 28 40 41 35 33 33 27 18 17 47 65 73 96 117 140 181 150 109
65 29 16 29 46 33 42 37 28 35 34 33 24 47 25 30 30 15 6 10 17 5 36 52 46 55 55 57 55 30 20 26 21 44 50 57 57 73 88 114 160 158 201 208
42 45 51 43 44 37 35 29 24 5 20 11 35 45 26 31 30 20 17 20 17 19 42 39 46 63 68 49 47 36 42 44 40 56 69 68 41 72 79 91 171 111 139 137
39 50 49 52 46 56 25 26 34 39 78 25 24 42 7 17 18 15 16 26 30 33 31 41 39 67 54 52 36 41 40 30 43 46 60 33 35 46 53 42 92 110 115 132
61 56 39 46 54 49 56 74 62 49 50 35 16 14 11 11 28 27 31 40 27 22 25 49 64 44 43 37 28 28 34 59 74 60 46 45 56 69 48 51 60 35 38 27
54 58 32 34 46 46 43 65 87 65 78 64 49 20 6 5 28 41 48 32 26 26 26 24 38 38 31 27 29 45 53 64 41 18 11 8 1 -3 -7 0 -4 0 6 7
34 45 52 47 47 47 62 86 68 80 71 81 79 38 6 23 60 55 38 24 22 37 33 11 13 18 15 17 18 15 30 0 -6 -10 3 3 1 -9 -11 -1 -1 9 12 11
46 44 47 32 58 51 75 111 72 46 78 85 49 36 21 48 55 66 50 27 24 34 25 29 24 18 -4 -6 -8 16 0 7 5 8 11 7 8 7 1 10 12 7 0 1
22 23 41 41 34 5 19 34 22 82 89 67 36 36 19 15 61 86 79 48 40 30 24 34 42 34 21 4 14 14 8 15 15 25 23 15 23 25 13 8 7 11 14 20
54 49 23 30 13 32 31 15 32 68 77 56 33 24 15 20 50 86 93 86 68 65 34 23 38 48 39 27 32 22 18 23 31 30 28 31 29 30 32 32 26 27 31 31
58 57 58 34 23 37 41 54 75 55 52 61 34 20 17 18 42 72 94 111 109 96 116 28 27 59 52 37 39 34 28 30 37 36 33 26 27 27 30 33 37 47 57 55

GFSCGP_con_3kmhel_063.txt.gz
Helicity
103 221 126 44 56 52 74 51 146 97 48 61 66 52 60 4 39 72 74 73 68 71 88 141 121 120 119 114 116 123 135 127 116 145 150 205 182 158 151 143 122 111 108 116
146 112 112 56 54 103 218 68 99 148 84 73 46 56 80 72 32 47 68 85 96 116 106 96 109 94 116 114 115 113 127 129 150 167 187 223 161 157 178 172 160 164 163 145
87 70 80 80 92 115 131 85 63 107 105 84 143 46 28 62 116 90 71 73 104 114 111 94 110 121 131 179 184 161 166 198 200 220 238 257 250 218 213 197 199 177 162 156
80 78 75 107 71 72 97 138 122 119 66 115 52 100 27 55 77 72 80 112 126 124 140 142 157 182 200 194 182 166 142 140 163 172 208 212 231 216 188 178 177 126 114 113
130 96 13 89 68 61 134 92 89 114 142 158 81 162 63 54 82 99 123 143 154 160 172 174 177 182 188 192 189 169 152 122 103 98 116 151 162 198 186 163 106 115 143 119
84 116 117 89 182 116 74 103 118 135 147 142 77 135 69 49 76 109 132 136 165 173 174 166 140 133 142 142 145 137 134 110 103 95 82 73 101 135 167 159 153 149 148 150
23 130 295 193 221 233 134 83 189 183 173 166 169 138 228 101 114 100 139 158 174 148 146 140 126 114 108 112 112 113 121 120 118 121 116 110 97 102 138 155 146 123 146 153
72 155 211 244 225 141 150 147 214 200 160 140 132 154 155 157 141 202 171 157 144 131 102 90 80 74 76 89 105 117 125 133 144 151 151 148 139 128 125 115 128 140 141 141
80 76 118 129 141 152 133 156 158 228 194 153 121 147 96 114 122 131 156 147 131 108 73 63 54 51 63 82 104 124 145 161 175 202 225 251 259 258 233 214 193 186 191 196
20 49 43 47 86 80 166 89 162 174 173 156 102 117 130 89 121 121 128 111 82 65 53 41 36 47 58 79 104 127 149 167 172 182 195 201 218 227 232 237 246 242 231 227
25 41 29 30 56 56 61 83 102 131 140 187 114 130 117 49 90 109 105 77 53 47 35 22 29 45 60 81 111 140 157 162 164 159 148 138 138 138 151 171 190 211 221 230
60 49 50 40 41 83 97 79 65 105 60 93 141 87 41 85 133 96 59 32 18 6 -2 -8 10 41 68 84 100 121 133 123 104 96 100 111 105 100 116 150 187 198 215 219
24 30 56 51 43 36 45 48 85 92 97 67 104 41 42 67 65 32 28 -3 -2 -2 -33 -29 26 58 73 82 98 102 92 76 71 77 67 69 77 89 111 128 140 157 181 196
51 39 77 105 76 72 62 42 44 87 92 68 93 78 35 47 42 27 19 -8 -4 -8 -24 18 28 56 64 75 76 82 78 68 73 72 66 89 99 93 81 87 99 118 129 144
62 39 47 57 51 39 52 46 30 68 66 81 104 88 45 74 60 35 38 23 5 2 26 39 48 59 58 51 53 60 64 71 75 53 43 50 33 54 78 61 60 61 88 119
56 44 46 34 34 22 44 35 26 19 24 27 53 81 86 66 51 26 9 15 15 45 42 38 52 54 55 57 53 47 38 36 44 42 37 39 61 71 61 68 69 85 82 124
40 34 35 22 24 22 32 26 28 40 45 46 37 61 66 80 38 40 16 16 28 28 39 47 50 62 69 66 56 51 46 40 53 34 51 66 64 81 68 63 52 106 97 103
43 46 45 35 24 27 37 38 25 10 25 10 30 49 49 34 48 27 21 25 34 28 24 40 60 61 66 74 67 58 54 55 57 60 61 56 58 78 82 82 90 105 100 123
63 47 44 62 40 63 30 25 27 26 48 7 27 37 28 43 43 26 23 29 37 31 38 52 72 66 75 78 68 51 52 65 62 71 63 59 69 75 61 66 70 55 72 72
50 53 52 66 54 54 45 30 36 34 59 85 58 39 32 42 34 57 35 29 25 32 44 57 69 69 56 49 46 55 67 70 75 68 64 63 40 17 5 -0 8 5 11 7
52 49 27 34 46 55 27 54 95 74 73 85 81 58 26 16 43 63 51 38 18 31 46 46 29 28 30 46 56 60 69 74 40 37 31 30 14 13 5 4 -9 -9 3 6
38 40 47 47 50 34 53 68 85 129 98 84 104 71 39 28 46 56 54 41 26 22 42 39 44 44 36 26 36 45 51 19 24 25 40 21 11 9 3 5 4 7 11 14
57 54 59 36 52 58 39 145 123 88 100 102 75 74 54 45 35 42 53 35 26 27 38 45 63 49 27 16 8 18 3 16 29 28 29 21 23 22 14 14 13 15 12 16
30 35 61 52 38 11 11 38 64 53 53 75 76 63 41 28 28 51 58 57 49 39 28 47 62 51 48 27 18 22 22 26 36 34 35 32 30 29 27 22 19 20 24 24
79 60 26 25 12 31 23 38 35 33 70 84 76 50 34 25 29 36 58 70 62 62 47 36 48 48 54 43 33 29 35 33 36 42 44 46 41 38 45 45 37 39 42 46
53 37 46 38 63 36 84 139 81 68 56 38 60 59 33 24 15 29 53 65 94 88 80 71 41 50 63 56 43 43 44 39 41 46 48 50 51 45 48 51 56 72 70 63

GFSCGP_con_3kmhel_066.txt.gz
Helicity
131 214 114 90 121 124 60 60 87 50 71 79 76 84 82 82 52 81 93 90 97 78 70 110 193 187 196 221 213 204 207 193 165 165 202 277 232 191 187 162 53 121 172 206
179 166 102 100 100 134 136 99 51 127 104 68 78 76 83 105 91 58 73 102 101 123 176 191 157 115 126 150 179 172 165 171 160 171 153 191 239 250 216 176 138 106 167 214
193 143 127 107 135 147 133 148 91 183 181 159 162 98 77 120 131 149 134 109 136 155 173 177 110 117 163 218 208 181 183 191 210 250 230 208 241 274 253 194 140 116 133 158
216 135 100 152 139 102 129 148 89 141 133 127 117 111 46 78 150 115 75 63 83 125 167 184 171 126 109 138 168 192 166 150 135 162 195 208 210 272 208 174 116 99 95 79
146 112 81 78 78 115 180 151 224 148 123 168 100 144 77 134 126 102 101 173 171 151 133 130 140 120 114 139 161 178 184 156 152 141 122 112 125 137 166 196 172 153 129 133
125 166 114 109 83 209 140 243 233 144 141 139 120 118 107 142 90 99 171 142 136 139 163 141 134 142 131 132 144 149 160 133 122 112 110 99 88 80 102 143 153 141 140 136
100 96 133 102 55 90 154 225 201 175 168 157 158 124 118 90 100 161 149 127 144 126 163 164 155 150 122 116 119 127 128 131 119 128 130 120 107 111 109 108 149 199 154 118
34 23 70 142 109 108 157 144 211 177 149 160 209 144 188 209 175 152 210 214 151 164 139 136 125 116 112 105 100 109 120 137 136 142 160 184 206 196 198 211 210 192 184 196
60 48 76 120 171 228 179 146 118 213 176 175 154 160 196 246 300 270 166 109 132 135 111 104 100 96 92 80 81 98 130 167 178 167 184 190 180 199 208 230 238 234 236 243
27 41 58 115 258 232 177 122 130 162 202 164 115 89 134 137 214 177 165 128 136 129 115 99 79 68 58 60 75 110 141 169 184 190 201 197 213 215 205 208 234 233 214 224
6 18 28 19 95 115 213 206 150 151 168 165 107 116 96 107 175 137 131 136 108 104 95 66 58 43 50 71 100 131 162 163 175 182 180 185 195 185 179 172 175 173 191 201
46 41 44 29 57 75 116 135 98 152 105 139 147 117 50 73 87 142 125 102 95 86 66 54 37 40 74 92 113 126 141 139 141 130 108 101 120 133 139 119 117 138 161 163
22 32 60 47 31 23 40 59 112 91 125 88 98 65 81 172 176 96 64 58 43 39 22 15 4 44 92 111 105 102 110 113 100 87 76 77 88 102 110 90 98 107 119 132
73 43 75 72 43 55 41 49 68 114 114 79 97 106 90 71 64 33 44 43 44 39 37 42 26 48 79 82 84 84 82 82 87 82 68 61 69 73 83 82 114 121 116 134
71 44 73 67 49 39 37 53 69 105 96 120 147 102 52 106 53 38 83 99 106 70 76 75 67 89 90 81 77 64 48 51 59 72 67 58 65 93 97 120 118 88 99 67
55 50 55 53 52 52 57 46 43 54 46 36 100 127 160 137 129 86 47 74 54 62 63 70 83 84 85 83 64 65 68 74 70 66 60 56 60 71 105 75 55 77 33 75
54 60 54 40 38 41 53 47 71 84 64 71 67 46 106 125 105 92 70 60 32 57 69 55 83 99 97 76 74 97 92 94 87 79 65 68 62 72 66 54 50 66 79 99
57 71 68 49 34 54 16 51 36 69 43 38 53 36 83 102 66 70 55 41 46 76 79 90 93 93 74 75 92 96 86 83 79 75 68 56 44 58 39 44 73 101 76 77
72 78 51 58 41 35 68 29 35 44 27 43 32 41 57 65 70 40 65 61 70 74 68 81 128 126 105 92 90 90 79 72 79 85 69 49 45 57 35 55 57 30 12 1
49 93 61 59 57 47 42 20 36 29 46 88 66 42 51 94 52 42 88 61 61 67 79 95 103 117 100 76 84 90 88 72 78 66 67 51 34 16 28 26 17 4 -4 -25
59 52 56 41 43 45 26 33 52 61 51 83 108 89 62 65 43 78 98 62 51 52 70 96 85 54 62 93 105 82 58 62 44 35 31 27 24 30 14 -2 -21 -22 -13 -2
52 50 56 59 52 26 64 61 69 80 97 83 89 76 70 68 69 73 73 76 78 67 67 68 73 71 71 62 59 66 53 21 8 13 11 4 10 9 -9 -1 -6 1 15 16
75 63 62 50 36 33 16 63 90 93 85 67 60 80 87 84 59 67 70 70 57 52 41 61 105 88 33 37 36 31 12 -8 4 11 8 9 19 16 10 20 19 19 29 38
59 44 75 66 44 38 36 59 66 66 76 68 50 58 58 55 61 69 83 75 74 73 66 99 105 66 40 35 41 27 16 -2 13 15 19 27 35 33 32 30 31 37 43 41
69 60 60 45 27 37 35 43 96 74 59 62 47 49 55 54 53 83 83 82 89 88 79 101 83 69 46 47 56 39 20 10 27 40 35 41 37 40 60 67 52 49 44 50
68 79 89 52 87 84 68 162 155 98 81 84 74 60 52 44 42 84 84 97 101 110 112 112 97 82 50 48 48 34 42 35 65 62 54 45 44 41 51 61 65 76 60 59

GFSCGP_con_3kmhel_069.txt.gz
Helicity
135 185 90 66 146 172 114 102 87 69 103 101 71 98 101 111 87 103 102 79 102 98 104 152 167 186 205 233 262 246 231 248 200 182 173 153 129 125 115 117 110 163 173 169
197 78 93 83 123 89 133 138 78 97 58 88 104 96 78 58 85 90 72 66 111 144 154 183 202 232 221 185 200 216 223 226 241 239 222 222 223 189 183 166 143 134 154 156
181 78 80 83 75 80 126 97 102 109 205 209 114 136 120 90 91 115 115 115 126 106 143 175 190 166 160 158 167 181 186 186 187 216 239 245 221 237 233 231 191 133 117 131
96 125 122 123 79 110 88 68 160 171 243 186 118 79 78 83 98 156 160 143 125 131 147 141 128 106 71 99 148 188 207 169 150 145 162 180 193 199 158 153 160 143 101 72
287 132 158 162 143 158 86 156 162 197 178 154 127 86 43 108 145 171 160 127 108 113 115 128 96 80 112 140 163 189 210 199 200 193 161 130 130 134 158 154 150 123 100 93
221 207 163 130 110 155 208 231 265 235 181 128 105 116 39 134 67 174 192 159 167 148 124 123 153 140 142 161 180 188 196 190 182 174 187 183 158 137 126 130 125 160 170 154
194 174 113 94 88 154 240 124 303 219 209 94 91 113 63 113 111 234 202 207 163 151 167 149 161 162 146 150 149 146 167 172 149 150 164 161 160 153 153 158 159 183 202 228
82 116 91 94 80 107 80 314 186 182 192 118 125 95 83 86 117 189 207 160 139 159 148 141 141 138 126 110 104 115 131 148 132 131 140 134 145 138 142 151 160 181 204 207
44 47 47 61 95 93 143 254 177 168 147 140 157 141 129 214 260 236 199 199 174 149 135 133 129 112 97 88 90 88 109 127 130 135 142 160 172 178 177 189 177 176 187 188
14 32 26 77 119 119 154 210 212 202 169 139 120 121 82 135 204 248 231 189 151 140 132 122 100 83 75 73 80 105 108 120 154 180 178 169 177 188 187 188 214 213 204 200
41 26 45 83 96 120 165 229 156 147 123 120 116 101 72 113 202 261 193 131 127 132 125 104 88 66 63 71 86 107 123 146 172 156 151 154 152 147 138 134 138 142 140 151
31 26 37 41 24 57 145 162 180 149 108 109 93 98 96 101 216 214 146 144 127 128 96 74 57 57 65 74 93 114 131 148 141 123 124 125 115 113 117 117 112 109 110 114
23 50 67 74 73 61 78 87 126 175 118 59 42 69 62 92 154 144 123 101 97 94 81 70 68 60 58 81 112 126 134 129 114 106 97 96 102 109 113 110 101 113 123 131
49 45 44 41 40 63 93 87 87 111 136 103 79 73 72 83 95 74 57 50 73 80 67 77 88 86 77 83 103 103 109 97 87 84 78 76 85 96 100 99 101 108 150 153
64 62 64 63 55 58 54 60 90 104 99 96 106 94 27 81 71 37 28 61 101 104 109 104 109 110 102 94 101 81 75 70 58 67 64 53 66 87 99 114 118 131 158 155
75 51 73 59 51 53 55 54 50 63 78 86 103 110 99 93 89 128 115 101 113 96 112 124 126 125 122 99 78 83 86 82 86 78 67 62 78 92 101 116 121 130 135 97
59 66 76 46 57 63 65 54 86 114 114 94 100 47 213 161 162 129 85 89 76 71 93 97 99 127 121 84 87 99 92 89 94 86 76 90 94 92 98 98 107 83 51 61
87 80 79 50 80 69 35 48 47 94 89 110 72 55 66 100 127 113 87 76 55 68 80 87 125 142 115 110 120 105 90 94 90 95 100 89 79 78 73 70 59 42 32 38
72 77 64 68 62 40 29 42 55 52 28 58 62 53 86 136 147 88 69 84 63 76 76 95 122 130 137 133 115 108 88 86 92 96 88 74 61 57 43 34 12 -8 1 9
86 85 75 64 57 46 49 56 39 58 39 52 88 48 55 76 60 45 98 111 101 102 114 130 145 157 146 125 120 118 87 74 74 71 70 56 43 20 11 0 -6 -23 -18 -1
72 81 73 47 39 31 23 36 59 63 28 56 59 69 60 63 49 60 120 94 86 83 83 97 112 108 102 119 150 118 79 62 59 54 49 39 14 2 -5 -7 -28 -22 4 14
70 60 63 60 52 28 51 69 45 35 49 54 64 65 76 69 72 81 97 100 98 95 97 98 106 100 94 98 101 91 64 50 52 46 28 24 9 0 -12 -5 -9 -5 12 23
80 74 61 59 40 28 12 28 52 53 52 51 55 57 74 75 62 71 86 105 99 97 84 93 113 109 77 68 67 54 25 16 19 19 9 0 -2 -2 4 8 14 24 29 39
64 86 74 79 52 54 43 41 49 51 55 62 60 41 53 52 71 80 85 88 93 90 80 106 118 91 68 59 49 29 20 16 27 13 9 7 18 19 27 32 35 45 47 51
56 77 64 72 47 49 34 58 68 71 72 72 59 50 31 44 47 62 79 97 106 107 102 120 116 89 65 69 53 42 16 21 19 22 23 28 28 45 58 55 43 51 37 42
94 71 101 61 34 49 57 51 97 110 90 71 51 57 51 45 50 71 72 85 114 136 134 126 101 91 81 75 69 61 17 23 28 37 40 38 50 58 63 69 77 60 51 53

GFSCGP_con_3kmhel_072.txt.gz
Helicity
81 149 49 124 167 109 139 153 95 126 124 142 95 74 84 79 140 121 97 100 85 93 95 135 195 227 188 248 243 243 208 196 140 142 146 146 135 123 116 122 139 145 156 165
124 74 84 93 125 128 89 104 89 94 88 100 91 86 103 87 86 99 103 99 93 114 131 199 218 236 239 208 227 217 202 217 224 193 182 184 156 126 139 142 148 154 153 169
167 92 106 107 91 102 132 100 84 88 116 82 87 104 124 107 103 81 79 94 105 89 125 177 187 187 178 181 178 179 179 164 164 201 219 225 211 202 190 162 135 126 136 152
192 61 64 85 63 106 121 69 77 106 96 90 115 53 95 117 99 76 83 104 138 159 187 182 167 171 160 159 157 160 162 178 190 195 203 207 186 169 157 165 174 163 150 139
154 117 86 83 107 116 68 95 95 107 130 115 149 112 -6 127 139 72 70 133 158 170 192 165 136 119 121 137 159 184 212 226 227 208 184 173 188 181 167 161 162 166 159 148
203 228 186 140 163 163 89 115 158 152 204 162 120 119 11 95 102 114 140 179 187 206 200 191 151 136 158 182 204 216 215 216 213 197 192 176 174 178 184 177 165 184 202 239
182 209 176 156 169 158 127 158 162 142 149 121 122 132 126 64 59 88 184 208 237 233 214 167 147 162 173 189 193 180 173 169 160 146 152 152 144 149 155 159 158 172 193 196
130 121 115 113 131 88 133 160 164 134 148 135 213 127 109 29 34 95 175 223 251 221 186 166 161 163 163 156 148 136 133 134 134 122 129 134 136 122 131 149 151 166 175 182
114 117 111 86 120 96 141 138 143 169 163 116 109 150 146 50 45 129 173 244 232 200 175 151 137 129 119 110 110 101 104 121 122 114 121 134 138 146 145 163 166 165 184 181
39 62 87 93 112 127 119 178 223 234 124 113 93 69 81 56 80 131 187 208 198 172 157 131 116 102 92 80 76 85 93 98 103 119 125 137 157 169 168 167 179 179 186 195
43 62 46 80 94 92 128 149 263 248 228 190 116 30 23 56 99 161 209 200 168 138 113 101 97 86 78 79 80 86 98 101 116 128 132 142 151 150 149 151 153 146 136 139
38 51 77 91 70 67 98 76 154 181 210 209 142 34 40 3 103 195 213 175 133 114 105 96 85 83 78 65 63 72 90 105 110 120 133 138 132 130 128 124 120 113 111 111
41 62 81 64 63 76 106 101 118 211 215 149 123 64 80 41 115 160 202 148 134 125 110 94 97 86 72 54 46 63 92 107 119 124 125 122 117 113 109 108 110 115 107 119
63 55 45 41 31 65 89 103 106 149 144 185 163 89 40 15 55 122 137 120 112 110 103 99 101 94 85 64 64 74 105 111 106 107 102 94 85 80 83 92 109 118 123 139
65 34 54 37 48 54 53 95 127 132 106 93 11 -57 -15 -9 42 85 72 88 96 85 92 106 117 123 118 108 101 96 108 102 87 81 68 59 62 70 81 99 112 115 129 127
73 49 72 63 54 57 68 62 67 81 144 -28 80 32 61 42 89 102 71 73 82 106 114 125 134 150 143 129 118 116 105 87 73 62 58 49 58 72 88 103 120 126 125 132
68 69 81 57 85 90 66 35 92 122 134 116 144 123 119 90 79 65 64 97 110 123 127 134 145 149 156 144 133 119 102 87 77 71 61 62 69 86 97 103 103 117 106 104
73 86 81 44 88 77 43 69 80 101 125 154 140 127 92 78 81 83 103 104 90 101 95 111 136 151 151 163 161 139 109 96 83 87 80 71 80 92 98 100 96 97 95 84
86 119 96 79 58 9 -6 53 75 81 33 123 110 102 75 102 167 141 105 81 73 87 97 101 130 160 172 175 170 153 111 92 89 83 83 78 84 87 95 87 78 57 50 36
109 92 98 80 69 44 38 75 63 67 30 40 89 97 92 175 159 131 114 102 107 105 111 118 132 150 162 153 150 137 107 83 83 80 80 83 79 80 67 52 45 27 14 21
131 138 87 72 45 29 32 36 43 57 34 29 42 81 146 104 42 81 110 123 108 112 118 123 138 142 128 136 133 117 91 65 70 75 76 73 69 58 48 37 11 6 12 12
102 88 93 80 57 33 38 78 51 32 44 40 34 55 73 61 62 74 107 113 116 112 113 94 108 111 105 122 136 110 84 77 82 69 56 49 48 38 28 8 10 25 29 30
71 85 79 59 34 30 16 29 35 42 42 42 44 56 65 75 63 62 81 97 103 106 107 99 104 106 89 91 99 80 60 72 58 31 17 26 36 23 15 17 20 29 30 40
82 97 75 76 49 46 29 38 31 31 38 54 58 56 51 59 76 84 81 96 103 109 107 101 104 93 78 75 67 52 56 38 21 19 24 23 19 23 25 29 36 42 48 51
80 115 80 73 54 48 32 31 47 52 54 62 67 56 40 41 43 55 74 113 116 114 125 116 98 84 77 88 75 58 43 53 41 27 30 31 30 41 46 35 39 47 43 55
95 91 130 83 32 59 53 47 69 68 57 48 53 52 51 53 57 61 59 80 107 117 143 139 120 95 85 92 84 76 57 62 74 72 52 45 53 53 61 69 68 43 44 48

GFSCGP_con_3kmhel_075.txt.gz
Helicity
109 172 87 160 165 115 135 143 108 124 91 103 81 69 55 35 63 -26 18 73 73 78 141 146 150 162 185 219 185 170 141 136 140 161 155 141 134 133 126 122 121 118 125 132
165 101 106 119 146 117 109 100 99 107 104 95 59 34 36 33 7 32 42 62 90 130 119 161 194 216 220 213 226 224 201 188 175 150 145 145 148 145 130 123 125 138 158 165
141 104 117 127 149 120 120 100 74 96 99 71 67 36 16 6 25 18 77 104 122 113 118 140 185 214 214 196 186 185 193 196 185 188 194 207 199 182 163 143 135 139 148 159
139 62 90 78 104 107 107 93 93 78 103 97 72 3 24 57 11 21 29 87 100 126 185 186 172 198 189 179 170 160 154 165 187 196 182 178 186 179 174 179 176 164 163 143
114 74 99 80 76 83 95 106 82 78 89 42 97 71 7 87 85 41 52 95 122 118 153 150 149 167 187 178 171 164 166 175 168 175 181 195 202 199 183 177 178 181 195 203
144 186 129 84 118 103 77 110 150 125 76 46 79 71 -66 121 77 100 108 88 141 183 183 205 219 197 202 206 201 186 170 182 181 168 166 157 164 168 170 171 161 173 192 211
187 182 146 168 157 142 94 110 112 118 115 41 55 85 91 39 76 71 99 83 133 236 290 238 222 177 160 158 168 167 173 187 179 165 159 153 153 160 160 152 142 153 150 150
143 138 117 153 152 99 131 83 123 109 59 53 134 54 58 37 49 59 78 117 152 246 287 237 179 155 138 141 153 160 161 163 160 144 142 130 124 119 129 144 140 149 153 161
73 107 133 148 184 167 141 124 124 137 120 92 88 78 46 88 93 69 61 140 127 205 240 221 185 144 133 143 144 130 128 133 132 120 119 133 132 133 131 148 155 156 175 179
52 79 103 118 124 173 164 172 150 162 98 88 69 28 57 37 18 105 128 139 167 196 233 193 156 135 133 113 106 112 110 104 105 113 112 116 126 133 139 151 167 175 186 197
72 86 127 144 146 125 157 125 135 144 176 99 19 43 57 9 -0 46 130 195 196 158 132 126 123 129 116 96 82 78 78 77 91 97 100 110 123 136 147 153 158 159 155 160
76 76 73 93 86 87 93 120 176 204 202 282 160 71 111 19 -16 60 126 147 128 103 115 118 115 116 102 78 68 63 64 73 84 96 107 119 134 142 149 151 147 136 126 122
85 73 67 77 116 122 109 128 152 172 177 124 150 115 109 77 43 65 117 139 133 125 121 121 121 100 91 87 76 58 47 57 82 103 112 120 123 128 125 121 122 116 108 116
53 57 49 37 33 66 107 114 127 149 112 173 136 128 143 82 -6 25 81 144 118 114 116 112 110 90 78 73 69 60 56 64 89 110 113 114 103 92 87 88 103 118 116 123
91 36 62 48 32 54 40 85 94 56 89 119 72 50 76 54 35 30 26 115 126 109 97 98 104 99 101 104 91 86 82 81 90 107 105 93 88 78 73 78 92 113 123 128
114 63 67 56 58 48 44 49 64 93 77 102 -16 -52 23 30 135 131 106 119 105 71 73 92 102 118 127 130 114 104 98 100 110 102 86 69 63 62 67 81 105 130 142 142
117 96 90 47 85 86 56 8 91 134 136 164 85 84 140 65 78 50 83 98 72 63 99 109 119 129 148 148 142 125 118 118 107 88 62 59 60 64 78 100 115 117 117 116
125 136 109 62 78 69 43 71 52 76 88 138 97 64 114 110 58 23 42 69 47 101 93 107 131 144 161 174 171 173 143 114 96 76 72 64 69 82 93 104 108 101 107 110
117 148 107 86 73 44 -21 34 62 64 17 52 135 107 127 118 93 74 84 96 63 84 94 101 121 142 171 186 186 178 146 120 97 87 86 81 84 95 101 105 103 106 102 91
147 134 147 127 81 26 20 59 55 65 27 38 33 72 147 145 81 72 78 107 97 103 107 111 133 154 175 164 184 170 130 115 94 86 89 87 96 91 95 106 100 62 72 64
146 168 148 130 86 21 34 31 43 71 48 54 41 72 116 115 74 69 99 120 122 116 116 129 125 114 111 152 160 129 109 84 78 88 88 89 91 87 92 80 55 50 38 36
124 88 151 133 81 12 40 87 59 40 37 43 44 34 83 72 66 74 67 81 112 124 123 105 119 98 108 135 141 119 97 84 79 83 77 78 81 69 56 44 44 48 45 40
104 92 107 83 38 41 12 31 43 36 36 37 37 30 34 66 61 61 53 60 69 92 101 109 104 103 97 110 119 117 91 85 82 82 70 66 63 45 35 44 50 53 43 49
101 98 85 108 47 24 20 31 20 27 32 47 43 36 41 39 46 27 65 70 65 82 98 113 124 85 84 87 96 98 96 83 83 56 46 42 48 48 49 42 42 47 57 57
105 142 111 90 75 62 48 57 66 49 51 53 50 41 39 31 27 46 57 83 98 114 98 108 108 89 78 91 75 85 77 90 73 49 49 58 60 60 56 46 49 46 40 60
127 116 146 87 62 79 71 65 65 64 56 47 52 55 53 44 41 46 43 54 76 95 148 109 106 107 93 101 87 80 87 90 89 66 59 57 66 70 75 70 62 47 43 38

GFSCGP_con_3kmhel_078.txt.gz
Helicity
74 152 155 186 193 134 174 179 142 99 54 61 -6 50 -22 -53 -27 314 448 336 259 116 60 85 100 113 117 129 122 111 96 110 130 141 132 117 121 124 114 109 98 94 105 132
112 143 122 111 164 133 140 157 134 111 61 52 32 33 32 44 36 -8 220 307 128 64 46 82 94 134 158 143 148 144 142 141 137 140 140 135 117 124 138 122 99 103 110 118
105 125 112 129 134 146 159 121 133 100 103 101 62 45 58 42 106 105 79 21 19 29 63 91 118 130 154 168 171 178 179 163 152 149 150 152 150 149 137 131 124 126 115 117
65 99 92 98 140 122 155 113 80 104 139 95 79 52 29 23 5 71 9 -9 11 57 68 146 172 207 218 226 225 206 192 185 180 170 145 139 134 132 154 167 175 187 198 176
86 94 131 119 104 117 105 113 99 98 102 106 101 29 -9 50 -6 -70 -17 -10 -1 63 107 128 147 163 201 200 197 198 196 195 183 172 157 146 151 168 174 176 179 184 194 208
129 120 123 74 122 103 82 136 144 112 98 18 21 39 -45 66 47 58 74 66 59 101 138 184 195 206 220 212 191 168 163 168 173 170 174 163 162 175 185 193 188 187 186 196
133 119 99 119 142 125 115 141 146 113 86 13 52 47 42 21 72 62 73 78 89 136 220 287 281 237 228 217 199 166 148 153 158 166 177 177 171 173 169 170 175 186 178 172
86 86 79 95 104 68 118 98 152 120 69 17 75 -49 -11 9 8 15 43 42 71 113 216 279 287 271 231 209 198 176 153 149 162 168 172 172 164 146 145 146 140 150 149 154
77 107 134 117 136 143 123 129 114 136 94 56 46 33 8 13 35 68 52 53 66 115 155 239 308 279 249 210 172 150 154 169 164 151 141 149 148 145 132 130 122 121 133 141
74 81 101 129 122 162 138 153 165 167 72 37 -16 -20 50 42 60 8 28 64 81 137 177 226 253 240 205 161 153 157 158 142 123 117 112 112 114 117 117 120 126 131 140 154
53 67 75 90 102 134 202 179 197 182 154 61 -15 27 -5 2 54 6 -7 46 105 160 176 177 175 158 138 136 129 130 123 107 105 102 102 108 112 111 113 116 126 133 141 157
81 82 41 86 132 136 125 130 142 152 102 128 113 96 59 17 -36 -11 -9 51 114 123 120 135 127 126 122 114 105 97 90 85 75 75 83 95 105 117 126 129 136 142 148 148
124 113 105 84 113 120 123 125 104 126 106 91 127 79 60 54 107 22 38 49 61 101 112 117 119 107 98 93 89 79 68 65 64 71 82 98 111 120 128 132 134 140 136 133
86 119 86 85 69 106 109 120 119 154 157 133 135 87 119 96 62 -6 -35 14 77 106 122 113 110 92 97 96 87 82 77 62 59 77 90 101 98 92 87 91 106 116 117 124
80 45 60 36 45 64 60 72 96 113 123 130 65 30 70 16 -18 20 -4 45 88 109 149 110 107 104 104 104 97 86 81 81 87 92 94 98 107 103 94 90 86 97 116 128
118 70 65 50 55 46 57 61 68 87 15 7 24 62 18 52 91 30 84 87 126 95 92 107 108 107 108 116 109 99 91 89 94 98 101 103 104 89 81 77 79 105 131 151
136 110 80 21 61 56 -23 4 50 172 180 178 77 201 145 74 29 63 63 114 76 47 81 100 103 119 136 142 140 129 129 137 120 114 106 97 82 73 71 74 88 116 131 138
114 132 108 53 67 6 33 65 64 64 44 171 162 117 162 106 85 62 51 61 48 36 63 93 123 139 155 175 184 190 171 143 130 113 100 90 73 71 74 86 104 118 119 120
132 143 117 98 84 48 -9 30 54 83 44 45 104 96 97 121 83 42 68 61 61 68 80 82 114 145 161 180 206 209 177 155 136 118 105 90 85 85 89 97 104 107 106 109
191 187 136 149 98 40 42 71 49 49 39 48 40 41 74 116 69 49 70 78 99 88 96 97 123 155 169 165 205 202 163 146 124 118 106 100 97 100 100 102 100 97 100 94
161 185 144 165 123 50 31 61 72 72 41 55 47 31 45 94 78 59 60 72 82 100 103 136 148 121 116 152 170 148 140 107 102 107 101 102 102 107 106 108 107 83 69 71
116 77 112 169 101 14 63 115 76 54 60 45 42 34 28 46 63 89 70 87 84 101 130 123 116 108 107 119 134 124 98 96 108 102 93 103 100 87 85 92 70 41 39 47
115 113 87 74 81 72 36 14 33 46 44 44 36 14 -10 31 71 83 70 61 53 73 108 107 104 110 96 89 100 107 79 120 115 95 90 95 89 82 70 62 39 53 39 52
109 100 92 104 30 23 9 24 10 20 25 32 35 27 15 19 21 56 57 44 55 69 73 84 106 87 90 66 78 79 113 99 109 90 91 91 87 67 46 44 52 52 56 54
112 103 116 88 53 59 22 23 58 51 42 41 47 43 36 43 33 34 12 27 44 69 78 88 91 79 65 75 77 95 112 103 89 91 84 69 49 43 50 44 48 46 42 69
95 52 136 81 73 69 50 70 58 62 62 50 59 61 58 49 34 41 40 41 55 58 85 120 96 88 83 91 89 96 100 91 93 84 75 60 60 78 74 62 44 27 30 38

GFSCGP_con_3kmhel_081.txt.gz
Helicity
110 135 132 147 159 147 181 157 117 109 92 127 78 83 99 13 12 27 145 128 222 280 249 87 68 70 81 73 66 58 75 74 87 103 95 82 76 79 73 79 72 77 76 69
116 78 114 132 134 137 178 144 110 104 58 66 104 74 88 38 25 -47 93 243 218 249 243 159 81 86 79 79 72 78 72 83 89 108 121 121 107 99 100 98 89 85 82 92
139 81 85 135 156 164 178 134 125 79 93 107 92 100 73 62 58 40 53 244 241 196 214 192 80 73 94 85 90 101 117 125 129 121 135 132 125 113 105 104 110 123 114 99
135 93 107 120 132 122 132 108 100 99 110 97 130 120 40 69 57 35 98 107 119 109 133 135 82 78 94 118 134 141 156 162 163 150 143 135 129 117 127 136 146 163 188 188
34 73 83 107 97 104 122 99 78 100 115 119 129 85 -1 68 14 47 87 46 -11 52 89 120 92 89 132 172 177 189 196 204 185 161 139 126 124 130 133 141 156 181 200 217
91 112 97 75 130 126 61 141 147 115 106 51 90 110 -39 26 53 74 72 99 48 54 55 66 89 125 171 223 210 203 203 213 194 170 162 144 134 134 139 164 173 184 186 195
92 122 112 110 141 143 118 138 120 112 98 10 72 93 41 -1 43 70 54 53 80 69 82 151 205 174 171 176 183 174 166 177 177 172 180 179 174 176 172 173 174 181 178 174
150 124 98 88 79 84 101 113 130 89 65 55 112 -12 -5 11 -2 30 9 46 77 77 94 155 244 261 232 225 204 209 202 193 183 174 179 184 183 173 172 175 165 164 161 156
99 95 97 86 104 119 89 91 96 90 84 58 55 64 27 -9 16 31 43 50 40 45 71 106 213 277 300 301 264 219 183 175 162 162 168 187 188 177 164 160 149 146 152 155
37 87 100 100 83 124 93 133 118 132 54 26 41 29 44 3 23 65 78 57 18 42 102 144 224 290 313 287 248 208 171 144 140 157 168 164 154 145 135 131 135 134 134 139
89 103 93 104 107 118 155 143 153 132 122 54 14 26 -7 23 92 151 95 16 7 43 120 185 225 230 230 213 184 163 147 137 137 132 131 125 125 126 131 131 130 128 126 126
86 111 103 101 96 110 119 105 126 130 69 116 86 49 59 30 -1 -8 -22 7 10 36 102 151 155 159 154 143 131 112 108 108 108 107 104 107 110 108 118 126 135 135 136 141
124 91 133 64 115 130 119 144 162 185 145 80 83 23 74 123 55 40 47 20 -16 43 69 129 122 109 104 93 98 108 108 101 93 93 95 98 107 122 139 140 139 144 135 134
117 125 123 93 57 88 139 134 136 156 153 115 98 102 75 13 22 22 -3 -35 -34 9 69 83 97 90 100 93 91 90 91 93 98 98 94 96 99 107 113 115 120 121 128 137
61 67 103 105 100 90 75 87 119 144 116 153 62 26 79 50 31 15 -67 -6 3 67 94 83 92 95 91 100 95 96 93 89 92 95 98 96 98 96 100 105 101 103 107 109
119 67 70 91 80 64 75 75 93 100 90 64 44 78 53 123 150 61 26 46 57 61 105 101 110 121 106 102 102 106 109 104 105 96 94 105 100 98 87 91 89 89 93 101
133 101 71 40 76 51 -20 19 129 155 178 187 86 143 131 119 112 114 127 121 97 133 121 61 86 101 112 113 133 129 133 147 112 110 92 92 94 93 84 80 76 82 90 102
91 118 104 49 49 -2 18 74 49 62 18 137 61 77 124 165 123 101 76 65 61 103 97 34 69 102 109 140 158 186 192 161 134 111 107 109 104 92 84 78 77 90 99 107
145 114 82 68 66 27 3 25 53 78 33 11 12 50 64 79 81 41 63 61 73 91 76 68 112 120 141 158 189 223 210 180 151 128 119 118 111 98 96 93 95 110 117 107
151 126 113 93 51 -12 14 44 28 39 48 40 37 39 42 54 61 71 51 92 67 89 89 100 98 128 150 168 213 228 198 176 139 128 122 114 107 114 109 109 109 112 102 104
134 136 78 107 77 69 43 100 62 60 35 47 35 28 44 78 66 44 104 89 92 105 123 145 147 121 120 167 185 175 173 137 133 139 126 110 112 117 118 119 123 111 108 110
101 97 116 131 86 53 126 169 108 35 47 28 33 30 25 16 37 75 117 93 103 115 126 136 133 123 131 130 138 133 110 124 136 135 126 115 118 120 116 115 106 92 83 72
130 87 70 61 21 23 9 16 7 32 26 23 30 27 -11 -11 28 76 104 71 87 83 89 96 122 129 114 102 108 104 88 135 140 131 112 107 110 109 97 93 82 53 41 40
110 77 84 80 23 14 -1 24 17 23 20 18 20 22 19 10 18 34 45 44 46 47 55 74 104 96 92 67 91 78 118 126 136 114 98 104 112 103 88 66 42 30 36 37
39 100 66 47 23 41 17 12 28 33 35 35 30 23 23 32 24 22 28 30 30 46 69 80 68 64 68 82 69 83 111 125 107 104 96 93 78 72 58 35 42 39 31 52
73 58 67 41 47 47 31 40 44 54 44 36 41 42 46 44 40 45 41 32 37 48 51 56 61 79 91 90 75 90 114 126 108 104 105 94 80 78 55 52 36 11 21 23

GFSCGP_con_3kmhel_084.txt.gz
Helicity
139 146 105 91 133 212 85 58 64 88 86 73 63 73 80 97 114 189 190 137 84 126 164 151 176 126 75 84 62 64 57 48 62 58 60 58 58 58 64 65 67 74 75 75
77 115 108 103 109 140 124 82 61 75 66 68 95 88 86 100 116 146 184 118 114 112 156 188 203 137 93 75 75 66 81 52 74 77 70 83 83 79 83 95 86 82 84 87
35 67 100 100 121 106 103 54 53 82 56 51 123 117 100 90 85 107 132 140 125 122 162 201 218 174 128 91 79 73 75 86 90 99 104 102 110 104 103 99 108 112 115 108
58 46 36 111 100 76 70 108 84 57 26 63 68 108 97 50 38 46 79 117 125 143 147 204 201 151 110 90 81 87 90 94 102 103 92 89 93 97 122 136 128 127 153 157
90 39 28 56 80 78 92 82 66 93 70 78 38 62 72 61 30 45 37 39 15 177 171 176 203 147 114 76 83 93 105 123 131 126 119 111 111 125 123 122 121 135 143 174
62 79 61 70 98 103 81 90 88 73 67 48 40 49 47 60 23 9 34 33 66 -63 181 129 139 124 123 94 85 101 112 143 156 159 148 131 116 108 104 112 115 128 143 166
98 88 81 83 76 102 93 76 116 78 75 57 68 39 37 24 22 4 64 68 58 115 206 159 6 44 84 96 108 133 130 146 164 171 159 140 126 121 121 124 131 128 136 147
89 97 92 76 67 85 51 70 135 86 47 34 69 31 33 22 45 -9 34 68 74 66 58 67 131 71 29 65 138 165 171 158 158 155 153 150 139 141 152 156 152 161 161 160
50 91 124 120 98 109 85 107 141 97 67 40 27 26 19 11 7 28 28 19 36 41 89 64 -64 -0 32 160 193 193 197 179 170 174 168 163 160 155 155 165 169 168 164 158
39 78 93 106 114 120 127 94 94 111 56 34 5 22 27 67 125 136 109 67 61 29 35 60 73 97 145 220 245 233 215 200 202 184 168 154 152 164 174 172 167 169 164 161
48 63 77 93 101 108 135 92 114 118 101 82 54 13 41 67 99 172 159 104 61 48 41 71 109 131 191 238 234 232 215 190 170 157 151 150 159 168 170 168 159 154 151 154
111 87 54 50 84 94 69 52 58 83 37 69 87 67 50 34 42 32 92 46 27 30 30 46 121 150 195 197 171 159 159 145 139 140 140 149 143 135 130 132 134 134 132 136
121 79 110 83 102 110 100 74 74 51 124 84 69 42 61 60 95 135 136 157 125 67 33 41 78 123 152 154 155 144 129 123 123 121 116 110 107 104 107 116 125 134 136 133
63 131 116 81 102 88 118 67 65 113 120 54 60 49 76 -18 19 13 43 24 -19 8 25 33 33 57 89 111 114 114 119 118 116 107 92 83 78 88 101 108 118 124 129 123
110 77 107 117 126 117 78 30 47 96 80 70 39 15 -7 -18 -2 2 -11 -1 2 25 24 50 36 46 72 91 106 108 108 110 103 95 90 85 86 94 100 100 101 107 102 109
85 106 67 81 105 105 88 76 69 40 20 8 2 44 -33 47 91 94 64 53 38 51 55 52 65 62 92 93 87 104 102 102 99 90 87 95 96 92 89 95 102 96 93 92
78 77 55 22 39 63 61 42 38 64 63 48 51 68 20 29 39 60 66 103 110 60 38 63 83 100 75 83 91 95 97 110 101 97 97 93 95 96 89 84 84 88 84 91
128 100 86 75 43 18 35 63 41 24 6 21 15 27 50 45 48 42 40 27 41 89 106 53 71 74 56 92 88 97 120 121 119 110 108 109 104 97 97 91 82 94 93 91
24 82 80 70 49 63 41 18 47 42 40 14 7 27 33 45 33 41 26 34 25 50 87 64 40 40 65 78 96 132 149 155 151 141 122 119 110 106 109 104 108 125 118 111
123 82 84 76 50 -5 28 25 6 30 28 22 9 17 30 44 34 47 75 78 40 42 70 86 76 99 79 87 123 146 154 163 154 140 124 121 109 103 98 125 135 128 111 105
89 85 66 55 41 27 34 78 47 7 57 53 28 21 20 38 31 47 60 90 93 116 92 106 122 120 108 136 136 128 149 139 126 139 139 123 116 103 114 142 152 138 119 106
31 39 48 53 47 37 81 151 89 72 55 40 35 37 21 5 7 33 56 78 89 117 129 120 142 140 134 124 124 129 119 126 149 148 134 121 116 118 123 126 130 110 101 94
48 88 66 43 42 45 -17 12 6 27 22 21 31 36 5 -4 4 39 65 66 86 95 118 135 138 148 136 119 113 105 92 120 130 131 122 113 102 108 115 132 114 106 80 74
60 63 111 84 33 13 11 -1 10 7 -2 8 10 16 15 13 20 20 34 42 61 74 75 79 95 103 108 97 90 81 104 109 110 99 102 107 107 115 115 105 92 78 46 34
44 56 79 23 29 61 45 29 26 18 12 15 27 23 20 20 23 24 25 31 40 43 52 59 79 90 87 82 77 92 101 90 93 96 92 96 93 105 102 81 68 39 -3 19
49 46 46 50 88 87 73 73 53 19 21 25 35 39 50 41 39 36 41 39 33 38 44 61 85 104 74 55 77 88 91 87 89 88 87 95 96 100 81 65 26 -6 1 14

GFSCGP_con_3kmhel_087.txt.gz
Helicity
142 122 90 101 114 220 54 86 59 60 61 20 66 73 44 93 26 98 106 110 119 106 75 99 120 150 169 142 94 84 59 52 66 69 71 81 80 78 70 63 60 67 71 78
75 55 57 87 91 180 126 84 103 97 75 46 74 40 39 57 62 75 96 126 129 85 120 81 148 158 168 144 118 93 68 51 59 67 65 73 77 67 63 66 72 73 80 91
75 117 150 121 125 156 151 100 64 83 26 44 108 78 54 46 52 60 79 97 121 171 96 119 108 141 169 151 133 118 90 85 87 81 114 144 142 130 96 90 84 97 121 119
111 75 80 87 91 109 72 133 115 59 65 120 -2 99 -9 19 34 42 60 92 92 145 246 134 180 214 206 199 164 150 137 112 126 124 134 115 97 74 84 129 127 126 138 149
23 31 -16 50 101 92 141 76 110 85 62 111 28 79 104 59 58 42 42 42 63 122 202 208 258 220 246 211 174 159 115 103 104 98 109 126 107 144 187 136 126 107 119 148
51 77 42 53 97 134 77 69 86 72 97 67 60 48 74 69 21 35 27 28 39 68 83 248 183 204 208 216 175 181 104 99 97 107 116 113 128 134 133 128 116 118 117 115
102 59 92 107 41 119 99 90 125 108 120 64 90 86 56 61 71 75 78 66 50 74 85 99 175 190 162 209 149 155 110 113 105 117 139 150 162 157 152 144 124 106 103 109
85 92 59 49 84 89 86 81 149 91 71 58 76 42 43 26 42 31 51 39 116 138 121 72 129 194 131 166 129 118 99 129 118 141 160 171 165 162 153 132 126 136 145 156
78 88 109 102 92 112 54 80 98 170 176 232 73 3 29 -1 19 54 68 57 76 62 75 90 178 311 54 101 66 70 134 160 148 171 168 168 194 167 148 151 160 165 169 174
80 83 73 109 106 59 116 105 123 155 140 89 37 33 58 22 51 74 68 82 52 56 58 80 137 143 129 68 57 85 111 139 161 185 181 158 148 163 173 167 159 170 175 177
78 126 61 112 84 68 88 125 134 122 91 109 91 -17 93 95 84 146 137 136 109 71 45 59 90 146 230 168 139 221 191 247 266 207 190 180 186 174 162 158 154 162 153 159
87 60 115 35 71 59 56 31 63 95 91 75 128 130 14 54 82 125 118 119 129 91 78 59 64 102 142 153 143 119 192 192 216 197 173 159 145 137 136 143 149 146 140 133
216 128 114 71 77 75 128 92 58 32 59 51 48 35 107 59 53 15 63 86 99 97 83 55 52 75 96 119 155 162 187 199 182 164 149 140 130 120 120 120 119 121 122 126
197 207 171 122 130 86 116 75 78 105 134 80 71 42 57 54 41 28 72 86 71 37 6 4 42 44 57 88 121 140 157 168 158 145 141 138 130 122 110 101 100 110 126 128
78 153 139 95 134 88 60 34 43 92 90 94 36 1 10 2 5 29 35 64 -21 -9 -17 -34 27 52 59 70 87 109 122 123 120 129 129 123 116 107 104 100 102 111 117 128
69 69 69 64 89 130 82 90 54 25 49 16 -28 3 -20 48 77 61 63 37 22 -19 5 71 63 81 75 71 73 94 109 113 108 104 104 107 93 91 88 96 103 107 108 110
18 122 112 89 8 38 105 41 64 52 35 33 33 21 20 19 34 60 89 98 61 33 27 72 85 84 78 81 92 95 104 117 118 109 103 97 91 90 103 106 101 99 98 105
79 46 98 47 26 3 66 85 -9 3 19 32 30 15 15 39 36 46 32 40 44 40 57 60 69 88 76 99 118 117 125 105 99 107 116 112 105 105 117 103 89 104 107 104
49 41 67 64 31 75 54 37 60 49 37 9 -3 13 34 46 53 32 28 32 22 24 39 61 73 77 113 129 145 129 126 115 113 125 137 130 126 126 108 95 111 158 158 162
42 22 69 78 99 50 78 38 54 58 27 44 42 43 50 51 37 68 85 71 73 64 82 81 75 67 120 136 146 137 120 113 109 121 136 144 145 144 118 111 143 153 144 143
-2 58 53 36 47 59 55 66 59 30 58 40 30 35 37 36 38 57 51 48 50 76 105 98 95 104 116 138 135 112 131 125 133 158 171 164 159 149 159 161 149 155 149 136
-1 -2 87 50 60 28 98 81 53 78 63 40 17 30 31 38 37 24 42 58 48 75 90 109 108 137 175 154 124 130 149 171 181 171 161 163 149 168 163 132 141 143 137 125
-31 70 68 63 68 59 -8 22 22 10 39 40 41 51 42 31 28 39 57 66 71 67 76 94 137 168 161 135 126 142 142 149 155 142 136 130 133 143 131 146 159 154 136 122
28 60 57 80 73 66 50 16 17 25 19 25 25 25 20 23 33 45 42 48 54 51 60 72 92 120 133 125 134 132 126 117 116 109 109 118 121 133 127 146 148 140 123 99
31 53 65 59 13 114 86 103 91 61 16 13 17 17 16 15 25 31 33 35 39 47 52 55 65 84 102 112 124 137 106 101 96 94 87 106 107 115 117 133 134 114 85 61
48 45 27 55 94 117 149 108 117 87 58 26 11 33 36 32 39 40 45 44 35 42 44 50 69 79 91 109 125 118 106 87 73 90 101 88 105 111 120 123 98 42 21 4

GFSCGP_con_3kmhel_090.txt.gz
Helicity
75 89 98 105 92 156 103 85 105 12 28 -2 -8 106 62 115 99 112 98 81 111 119 131 119 110 79 132 156 171 151 153 108 122 145 174 160 166 157 164 120 101 80 74 74
99 101 69 63 113 145 151 130 126 129 58 25 35 58 60 121 109 51 45 120 119 120 135 257 126 115 152 163 184 158 156 142 141 148 124 120 119 103 72 80 102 96 108 113
66 76 140 145 121 110 138 75 114 89 50 73 88 91 78 82 73 102 85 90 143 175 140 259 226 127 157 168 161 181 181 158 142 125 174 181 150 124 81 91 83 85 135 158
40 75 113 90 101 143 135 146 179 194 79 100 50 105 43 42 73 73 83 103 98 113 64 166 242 268 177 172 223 215 187 180 192 211 189 139 134 141 155 126 119 128 152 161
65 104 65 93 83 133 223 100 93 159 113 129 104 125 119 156 89 57 87 89 86 89 102 53 250 380 327 283 296 299 288 234 210 206 202 183 159 170 183 213 222 153 130 172
71 71 85 89 137 122 118 168 137 94 79 105 87 70 81 135 121 69 68 81 77 81 103 87 262 336 334 290 249 308 310 279 220 176 191 195 162 189 212 210 211 197 149 107
4 40 59 69 98 108 137 131 163 129 121 66 59 77 85 92 111 95 102 151 101 97 129 115 268 341 354 282 223 260 291 289 255 160 224 330 195 180 155 156 169 163 138 127
37 105 59 43 75 99 135 132 171 150 106 27 74 76 73 63 54 124 90 53 86 190 184 156 183 211 300 330 253 256 251 257 195 169 179 198 204 197 202 188 187 200 199 175
22 137 92 82 87 143 93 103 116 82 108 132 98 71 50 -0 49 51 110 103 71 71 143 204 193 197 321 297 265 199 160 186 158 185 205 233 225 211 203 211 226 209 219 183
111 90 89 129 194 130 142 179 155 129 132 122 135 66 53 37 63 43 98 110 90 90 95 115 164 191 256 241 208 168 147 232 158 154 172 162 160 177 204 249 217 178 149 167
81 79 102 169 173 142 167 149 148 147 155 157 124 103 71 132 236 215 129 101 107 103 83 95 92 139 187 223 242 316 309 240 162 197 208 237 228 213 177 169 148 163 163 155
90 125 128 98 61 89 98 86 141 179 128 125 125 133 60 111 138 99 54 70 89 104 115 89 96 99 182 247 259 253 355 103 170 215 217 109 99 132 143 137 139 155 171 175
95 25 147 134 157 111 118 101 90 116 167 123 125 91 62 40 52 56 41 30 13 8 23 73 95 107 113 206 227 249 297 260 237 219 300 289 223 180 168 167 172 170 160 150
57 161 132 133 102 106 113 90 97 153 161 140 100 109 78 52 19 7 15 21 69 10 -15 10 62 74 82 102 145 207 219 232 236 241 250 206 177 175 176 167 164 154 150 133
-1 -77 52 66 73 132 53 95 101 114 135 154 95 38 21 12 28 -11 -1 35 95 -44 -91 -49 -18 29 64 97 119 156 183 200 186 187 180 160 154 156 152 135 127 132 133 141
81 -49 17 63 125 176 128 107 46 62 103 92 57 -2 30 20 -3 -9 22 47 92 64 -43 10 -0 57 98 140 157 144 146 146 145 136 128 140 147 155 149 143 143 138 126 122
-140 81 27 64 68 75 57 49 86 93 74 81 91 49 69 44 50 58 71 68 57 69 61 31 38 154 159 168 170 146 160 166 140 131 128 141 137 141 136 149 142 130 108 105
-113 -14 -11 6 106 74 51 88 14 95 107 76 66 66 39 48 51 36 15 30 59 69 76 90 100 137 145 173 175 184 191 172 153 139 145 144 157 154 173 156 126 122 106 97
-28 27 -9 16 67 76 47 29 69 53 26 31 40 58 56 58 94 55 68 104 92 75 56 63 73 90 146 186 221 224 223 210 164 146 150 159 161 185 186 154 137 139 132 131
30 37 38 2 19 49 81 32 75 66 58 82 91 88 97 81 79 59 61 51 48 53 74 94 99 105 114 206 270 285 247 230 175 154 174 172 180 197 188 163 144 131 127 121
15 15 -17 -1 14 35 40 1 16 60 55 53 58 64 61 48 38 33 40 46 41 47 69 135 151 105 90 249 317 253 209 149 143 158 180 191 200 208 206 181 155 137 124 136
26 16 19 21 33 50 79 82 40 67 69 62 43 38 45 55 54 40 44 42 52 66 82 134 144 194 203 255 250 193 146 135 178 207 206 203 217 224 184 171 153 144 152 151
25 31 -6 6 84 85 25 72 48 56 50 59 61 59 63 65 50 43 52 53 55 57 63 90 126 183 237 240 180 176 155 193 203 197 179 180 194 175 155 144 145 155 153 143
67 28 23 59 79 93 139 74 129 99 62 51 44 46 30 38 36 51 43 38 40 38 41 37 68 97 128 151 147 133 149 163 164 155 158 163 148 133 134 133 135 148 152 136
62 48 52 46 80 108 141 165 159 132 80 54 33 27 36 35 38 31 28 26 25 24 29 38 37 52 76 92 119 108 109 118 128 135 128 148 110 98 120 113 120 125 117 119
31 76 119 90 120 93 114 170 184 140 85 75 55 36 53 48 53 51 46 36 34 34 34 43 49 52 49 59 77 89 102 120 119 104 134 134 117 117 125 109 93 55 63 55

GFSCGP_con_3kmhel_093.txt.gz
Helicity
99 102 79 98 117 69 37 -26 43 -2 8 94 55 87 147 137 153 128 109 103 81 63 71 86 75 76 111 124 129 115 119 105 129 148 114 140 166 172 172 172 164 143 99 99
83 94 115 136 110 117 156 27 27 147 67 77 62 50 186 172 193 119 135 129 104 87 89 132 128 108 115 114 123 152 118 123 137 136 144 152 172 173 174 171 202 176 155 107
84 101 141 169 174 140 112 67 68 77 94 69 18 39 59 69 26 100 132 109 94 88 88 186 179 126 131 136 154 148 149 146 146 151 227 200 161 143 121 121 133 123 127 120
127 104 103 140 169 140 144 122 97 93 152 84 28 1 41 54 61 92 130 91 88 83 134 166 201 173 142 112 168 177 171 168 192 241 228 201 171 174 134 119 144 165 180 208
74 111 102 119 114 123 174 93 101 141 115 133 119 50 70 87 94 69 70 113 96 88 86 114 134 147 146 149 168 208 228 220 264 291 230 223 215 176 176 197 247 273 242 211
36 86 78 90 109 131 79 170 139 214 175 151 88 61 41 108 85 89 87 64 85 125 100 93 91 143 232 240 237 258 257 278 258 274 252 253 246 238 295 284 291 259 245 236
-25 96 112 85 130 169 144 158 197 197 143 107 129 141 85 71 120 180 78 60 69 106 137 126 152 207 302 254 241 230 222 242 243 212 234 253 283 318 282 250 265 261 226 220
-50 -56 94 64 68 72 102 181 157 152 132 79 103 93 71 6 56 141 96 116 119 135 111 130 199 188 165 204 214 246 256 290 268 260 270 279 277 270 301 172 202 195 243 178
-42 -71 94 73 97 111 100 92 151 111 93 94 99 110 96 30 84 100 98 122 129 129 121 113 183 209 177 158 154 180 223 261 293 319 318 309 293 298 297 253 261 247 209 162
-32 -112 91 133 162 178 142 166 144 187 108 110 92 108 95 103 38 123 153 168 179 165 131 141 192 148 141 167 193 209 209 220 236 271 288 255 226 229 223 216 179 148 131 113
52 -8 72 133 151 197 199 173 172 151 121 102 93 84 78 44 137 152 122 100 106 128 149 118 139 144 130 171 179 184 202 220 243 294 340 225 163 171 180 172 156 143 137 164
8 5 -44 114 140 158 192 173 180 164 176 148 99 95 76 96 115 119 89 73 74 67 75 92 84 100 114 130 163 176 221 224 198 282 359 330 124 169 131 119 155 166 189 168
-84 21 67 66 90 76 146 169 165 188 176 139 153 114 78 96 88 44 42 36 33 29 27 47 74 93 72 106 173 226 252 244 251 253 326 316 140 130 191 324 329 191 147 141
-33 -86 14 -48 93 108 131 89 92 146 165 173 131 148 136 76 43 43 40 40 11 -8 -14 -11 -14 24 74 80 111 166 213 227 237 225 205 218 191 191 176 184 210 182 152 151
-77 -198 -58 42 28 63 78 87 87 123 109 105 54 50 27 55 47 9 25 39 67 35 -2 -34 -42 -24 16 67 90 124 159 180 207 236 236 206 175 154 149 169 162 160 158 145
-31 -169 -40 21 28 29 52 52 14 13 67 67 76 20 70 53 -9 -29 -61 -37 5 10 14 10 23 33 37 49 110 149 162 181 185 181 166 167 163 163 151 157 154 143 134 133
-18 -81 -69 -163 20 119 81 88 86 133 45 56 48 26 71 22 -2 -1 5 3 16 61 57 49 68 105 95 81 110 167 167 162 150 147 149 154 162 163 156 155 149 137 122 126
3 -99 -67 -126 21 28 40 36 39 92 79 111 89 86 46 40 44 64 78 39 31 47 57 46 48 89 154 163 144 198 194 161 140 124 137 145 159 156 163 159 137 130 129 121
20 -48 -93 -127 -29 46 49 44 36 57 43 56 47 40 71 71 62 80 56 35 36 49 46 41 47 66 160 195 217 229 195 180 155 123 132 151 155 166 168 142 132 136 140 124
33 -26 -40 -104 -125 -53 5 27 36 42 76 56 32 48 52 71 79 68 77 61 47 44 43 51 65 69 138 177 255 251 202 188 141 141 140 142 148 166 161 147 148 143 135 117
40 53 44 -73 -77 27 32 23 21 65 63 58 67 77 80 59 45 39 45 49 33 27 47 70 99 113 85 154 261 248 213 165 177 171 146 143 146 165 156 167 162 151 122 117
61 44 18 25 33 5 107 81 60 56 69 69 61 57 54 45 43 34 41 47 53 48 62 94 117 137 137 138 251 254 183 169 159 157 152 147 163 174 181 176 155 138 116 107
55 56 32 31 29 53 183 201 149 105 85 67 40 42 62 64 55 39 49 55 55 60 53 72 93 134 192 172 179 227 159 140 137 161 158 161 176 177 168 151 142 133 114 120
64 65 75 25 17 51 25 107 180 124 86 96 42 45 29 33 33 32 31 40 49 49 46 34 59 89 120 131 121 100 99 132 157 160 155 165 171 149 154 138 124 119 119 115
82 64 80 81 -4 41 64 65 118 164 131 128 116 34 41 30 29 30 33 32 27 29 35 33 37 50 69 81 87 84 99 123 134 138 142 145 142 131 148 98 97 100 88 104
81 125 164 167 82 45 49 86 72 109 203 148 79 49 62 45 45 46 41 31 23 29 22 44 39 41 44 58 68 68 69 84 105 115 126 128 117 138 123 88 69 37 36 34

GFSCGP_con_3kmhel_096.txt.gz
Helicity
74 32 54 124 144 166 101 23 43 11 -28 -20 15 19 47 274 163 218 221 151 106 93 73 92 104 93 117 106 100 105 130 135 159 186 164 157 166 159 188 172 158 174 177 130
111 62 77 87 142 182 151 72 72 86 123 85 27 52 35 14 27 43 105 111 93 94 79 78 83 102 109 102 98 100 100 136 156 168 185 176 179 175 183 223 233 232 220 184
46 114 112 86 106 159 141 48 39 28 44 139 140 68 36 60 3 166 123 96 98 105 93 76 85 89 98 111 108 125 107 113 123 125 195 204 197 172 207 236 237 191 170 141
11 116 116 121 125 104 116 95 52 70 42 104 33 144 104 11 17 83 85 141 132 120 109 125 96 126 115 109 138 109 118 121 119 178 178 169 153 173 174 185 190 188 170 173
22 123 106 109 154 158 134 176 126 130 174 126 71 99 81 66 16 28 54 75 70 76 84 98 120 113 124 132 154 194 187 187 163 159 167 185 192 164 175 225 215 245 250 233
-24 105 87 106 131 116 118 193 235 215 187 106 103 67 27 54 54 68 81 72 57 60 91 103 101 114 159 158 154 155 153 179 174 191 201 179 177 190 235 255 295 320 300 268
-78 -53 72 75 112 156 139 191 195 144 145 150 168 141 64 66 75 77 112 74 39 69 108 144 145 128 128 133 148 166 184 178 167 175 204 204 172 202 217 269 288 315 325 281
-55 -56 53 83 110 122 128 77 155 132 97 132 118 123 100 70 30 62 106 85 60 47 61 135 165 162 128 125 170 191 183 190 189 158 153 188 217 267 288 297 316 281 241 236
-16 -30 117 96 112 121 124 115 100 105 110 107 102 97 105 53 87 94 94 145 150 137 88 64 151 149 173 190 167 180 199 192 187 187 185 188 235 283 304 316 274 221 227 264
-3 -59 -7 106 93 105 83 127 140 150 93 100 93 94 71 62 72 124 156 165 157 148 139 107 106 172 178 153 137 155 155 158 165 182 201 210 206 232 256 272 329 272 265 239
59 0 -65 102 118 141 192 193 187 122 117 84 68 66 63 18 54 88 90 104 102 140 159 156 154 141 145 140 125 134 143 156 171 187 196 214 237 275 285 246 200 190 182 152
21 -26 -26 41 119 134 99 128 164 154 162 188 121 91 76 53 94 127 122 88 83 68 76 87 110 128 124 109 126 131 145 160 183 199 217 214 214 245 275 283 375 265 150 105
-7 -34 -12 14 66 96 157 189 199 247 169 107 129 109 59 91 82 72 70 55 37 40 43 62 74 73 55 57 96 121 148 167 191 205 208 235 219 198 267 320 407 198 145 156
-19 -128 -123 -71 69 94 63 156 135 233 191 141 105 98 105 95 71 76 76 74 69 68 49 45 20 11 38 48 61 96 126 172 209 209 206 207 187 217 245 273 207 158 147 138
-7 -56 -172 -177 -27 -5 27 35 102 184 186 128 87 76 86 102 120 105 85 69 50 42 40 26 21 15 14 23 48 89 119 164 201 193 172 160 163 183 215 250 211 172 144 142
113 120 -101 -203 -48 21 15 -3 16 33 89 48 82 14 41 64 59 95 74 33 28 28 15 12 22 33 48 49 56 77 113 155 180 182 154 167 192 199 210 204 179 156 141 154
133 63 -21 -136 -129 -49 43 51 53 69 80 54 55 27 91 47 39 45 25 2 -35 -6 -9 1 8 22 55 59 66 99 135 176 198 182 159 156 162 166 167 160 152 132 115 109
93 3 -58 -10 -91 -85 18 83 103 145 113 87 81 90 50 63 80 67 89 33 43 64 61 52 52 51 55 104 96 137 170 179 190 174 150 135 138 145 151 153 135 125 120 103
13 6 -21 -32 -91 -46 -10 14 39 42 55 8 66 66 54 81 77 77 74 79 63 43 32 32 42 41 40 88 151 190 185 175 166 142 135 133 139 149 150 133 124 124 131 119
3 -16 17 -37 -181 -73 -22 79 55 32 83 56 27 47 97 116 85 70 68 67 58 39 26 20 28 37 37 58 189 214 195 171 121 129 133 143 145 152 137 129 133 131 124 104
42 36 64 53 -56 -55 41 92 60 53 71 74 57 46 48 54 38 42 49 56 38 26 37 40 47 52 61 67 169 181 208 136 143 166 155 147 152 144 137 153 149 132 126 125
66 103 78 43 40 -20 72 90 116 97 120 73 54 37 28 20 32 37 44 41 43 44 45 58 72 85 87 76 139 171 156 156 171 156 148 150 148 150 165 148 137 142 139 115
58 67 78 92 63 12 0 43 157 187 138 108 86 50 44 35 41 51 48 47 48 55 49 52 70 88 101 95 115 162 151 157 138 139 144 155 151 147 150 162 154 149 120 110
45 84 98 80 100 68 9 64 66 219 158 131 107 76 36 18 14 40 43 27 20 34 50 48 64 81 116 119 105 109 113 128 135 128 122 139 148 142 151 149 133 127 108 92
68 62 93 95 51 45 112 104 7 30 124 85 140 92 52 31 32 33 34 37 29 27 33 36 43 56 85 95 102 96 88 98 112 115 123 129 138 146 144 119 114 96 78 84
93 118 163 169 151 97 32 107 102 24 8 72 108 168 102 54 47 41 46 44 36 39 36 45 39 38 48 68 81 85 86 87 100 106 111 119 139 156 144 122 94 62 36 18

GFSCGP_con_3kmhel_099.txt.gz
Helicity
39 32 86 71 81 70 13 19 -45 9 -87 53 62 146 548 472 340 325 332 386 306 156 93 101 99 88 94 108 94 126 133 110 151 180 174 138 113 147 142 118 142 119 120 134
44 87 55 96 101 102 102 32 85 65 -140 -110 -151 87 56 158 206 165 188 245 302 264 145 95 72 83 101 98 91 121 100 117 109 149 179 190 201 182 146 129 150 167 194 196
-55 38 59 63 81 133 128 74 93 55 -21 13 -194 -70 23 50 73 101 115 108 174 229 170 97 77 56 53 89 100 95 92 121 145 173 209 194 203 193 183 173 202 223 238 252
-55 83 81 66 72 65 100 104 78 83 71 -26 15 -43 13 17 18 56 151 34 71 159 134 104 93 87 83 47 53 80 125 125 155 200 207 194 151 165 134 207 252 230 240 227
-51 -42 118 89 87 108 68 98 73 97 140 111 83 66 66 79 53 13 37 50 88 104 105 120 111 113 106 109 102 91 79 93 111 135 157 162 165 148 143 159 209 228 221 205
-24 31 78 110 127 124 101 128 166 163 148 68 92 75 131 83 76 110 69 47 73 94 75 75 93 111 124 147 153 121 108 108 112 120 124 140 145 146 136 156 181 252 314 339
6 -17 54 82 126 130 134 177 117 112 137 91 119 140 106 102 91 49 18 33 60 45 52 65 86 107 98 116 157 149 137 142 148 154 152 153 134 134 142 159 207 255 309 309
84 53 29 85 91 106 144 116 103 89 111 123 140 129 190 98 59 35 93 70 61 50 79 92 87 107 114 101 115 135 126 144 163 147 152 156 160 144 148 175 216 234 268 244
116 45 7 113 136 130 133 111 69 25 192 100 76 98 147 76 83 76 48 76 87 86 65 58 84 106 137 136 98 116 137 154 152 135 136 133 134 139 165 219 249 261 260 240
50 31 2 18 105 128 118 120 132 108 35 77 51 35 26 12 65 105 91 91 90 122 149 133 90 77 102 111 142 184 173 147 156 150 147 133 118 128 154 201 229 254 257 268
91 72 4 -7 31 106 159 147 156 92 119 61 37 28 20 31 42 42 71 89 119 129 116 105 98 85 76 117 129 155 133 141 153 155 153 149 144 138 140 153 184 236 261 241
87 58 45 -28 -7 90 136 100 124 130 93 124 65 47 51 42 32 53 88 104 104 106 124 126 129 124 118 119 142 137 121 110 115 132 143 148 160 164 170 190 210 194 218 211
57 117 52 -72 -49 59 93 115 86 142 169 103 93 47 117 68 80 82 91 78 75 70 67 76 97 107 112 103 85 84 105 121 138 158 173 174 177 167 158 156 160 135 195 306
48 99 60 -114 -124 -110 114 85 67 98 111 103 92 131 132 104 97 96 122 113 87 80 64 58 55 64 71 67 59 58 75 103 137 164 173 172 157 152 160 177 189 191 212 241
164 181 27 -108 -128 -72 17 49 87 100 166 134 54 86 79 74 96 119 100 114 97 68 47 35 38 24 15 16 23 44 65 98 132 165 169 151 156 165 180 181 170 142 153 168
161 180 44 -102 -130 -117 -13 -22 -34 15 65 62 154 101 110 157 151 167 98 94 97 57 37 25 29 48 37 23 22 29 45 80 132 161 147 155 175 192 185 162 150 157 163 175
140 98 92 98 -63 -126 -95 -23 -10 9 17 45 88 42 108 145 139 148 143 79 29 -2 12 24 13 28 31 39 64 65 92 115 136 132 141 163 181 176 177 182 175 153 138 134
83 13 8 79 9 -82 -71 23 36 -4 78 45 59 58 45 51 53 120 112 11 27 36 45 49 48 52 63 57 62 98 115 122 148 157 164 178 182 182 180 176 141 130 128 107
24 -10 23 41 -40 -73 -26 -18 54 96 127 82 64 54 54 95 88 72 74 94 95 102 96 69 70 67 49 44 57 118 142 150 141 143 151 157 170 173 161 139 130 133 126 114
29 4 45 42 38 -31 -32 31 57 29 98 122 149 76 12 91 96 68 65 77 96 95 76 64 65 48 34 36 60 128 155 162 118 131 136 153 159 150 142 137 141 124 118 102
97 79 84 72 66 11 -32 23 50 -7 58 174 128 121 44 49 44 63 69 73 68 58 52 52 51 44 45 58 72 114 147 117 131 174 158 151 142 135 133 156 145 127 111 108
143 157 88 75 69 50 -26 -23 -19 53 70 75 115 104 81 41 28 25 28 30 31 39 40 49 51 66 76 77 84 112 105 118 163 164 156 151 147 145 153 151 144 129 120 99
104 77 93 101 70 53 -19 -32 44 41 40 97 110 152 112 59 40 34 33 25 27 33 37 44 61 79 97 104 87 117 128 128 145 152 146 150 162 161 164 155 136 142 124 109
60 78 102 67 81 88 78 40 41 48 39 65 142 146 105 61 47 38 35 28 28 24 30 27 46 74 96 125 120 108 119 144 146 141 135 155 167 167 160 128 136 140 134 107
82 77 113 115 91 121 167 125 116 98 52 29 65 114 83 75 40 26 34 42 37 29 28 30 38 55 74 85 123 139 133 121 144 132 121 128 134 126 125 125 127 121 107 108
92 123 171 137 133 158 145 81 11 58 54 31 -6 69 103 63 56 53 50 45 37 36 38 47 44 39 50 65 83 98 101 92 103 104 102 101 114 121 130 135 129 98 80 73

GFSCGP_con_3kmhel_102.txt.gz
Helicity
1 33 44 62 71 16 -71 -105 -15 -76 73 261 351 323 423 346 372 432 394 336 332 285 200 147 153 189 171 143 124 106 113 85 73 101 136 122 19 107 142 128 61 35 51 68
37 46 17 52 52 31 -14 -84 -37 -58 -43 -15 129 355 340 261 224 293 344 322 301 353 337 223 151 139 131 135 134 167 103 97 126 105 104 117 123 108 108 89 104 113 116 125
-27 4 27 1 10 39 61 3 -32 10 -34 2 -72 111 174 161 92 311 305 246 243 248 304 239 150 99 87 87 113 138 114 152 203 148 172 188 196 154 132 131 131 128 106 133
-109 43 39 26 18 13 16 62 48 70 -29 -2 -43 -61 38 202 54 141 152 159 147 150 170 174 139 98 104 81 84 87 86 134 143 144 162 163 116 120 162 176 187 161 154 164
-132 -109 4 35 45 53 36 54 49 81 102 116 75 -21 -18 -10 2 -31 88 119 78 127 113 130 110 93 64 76 86 94 91 99 102 134 134 153 189 108 128 119 104 136 169 196
-74 -46 19 88 89 93 36 88 121 128 96 14 64 53 26 2 -25 -25 -17 53 9 14 77 140 156 104 95 97 94 102 122 119 94 113 120 129 110 141 145 108 118 133 173 229
-32 -28 -11 84 122 136 129 109 120 54 83 22 104 43 46 80 110 51 40 49 74 63 79 101 124 130 106 97 106 124 123 130 117 122 113 111 104 102 90 97 117 142 173 204
126 80 28 37 102 107 115 83 87 39 56 63 88 18 25 56 93 105 85 60 55 117 125 90 106 139 115 93 96 100 126 133 128 139 132 128 117 127 117 121 141 161 189 206
198 107 31 -2 51 115 119 127 102 77 68 92 62 68 66 45 113 150 141 104 86 51 50 60 88 113 123 124 103 102 139 161 146 133 135 125 117 115 125 127 158 176 186 197
126 136 30 -7 -1 110 134 98 145 141 106 114 81 85 39 66 85 90 113 121 97 86 91 95 77 91 137 131 131 146 142 134 146 135 125 118 103 110 116 128 146 175 230 253
161 187 53 -5 7 -7 134 148 138 113 109 19 28 36 10 48 48 54 46 80 121 105 97 115 135 129 86 88 109 133 136 140 131 130 145 149 147 143 147 142 148 169 201 203
137 225 150 44 -52 -40 42 52 126 149 105 105 61 80 83 35 15 32 68 109 139 122 107 114 116 110 87 73 68 105 125 116 103 110 128 131 145 163 179 187 182 176 179 169
157 240 287 48 -10 -55 -61 43 59 90 163 93 85 68 39 49 70 110 83 89 124 119 121 131 134 128 125 128 126 127 131 126 117 127 135 130 126 138 147 163 159 152 156 152
130 234 304 213 -54 -113 -105 48 74 72 75 74 91 107 115 87 56 76 90 129 146 147 129 108 118 111 111 119 115 105 88 78 88 102 116 120 121 139 153 166 172 171 164 168
209 299 201 60 -65 -154 -100 -17 114 82 84 41 -13 28 64 50 82 72 57 86 119 139 127 91 61 54 55 69 74 69 64 69 84 100 107 106 128 152 174 183 187 196 187 161
171 246 130 145 10 -80 -68 -47 2 23 47 37 65 66 40 79 90 143 90 144 149 176 149 115 75 50 49 37 30 31 26 33 71 91 101 124 149 161 166 186 185 183 167 152
138 123 143 125 33 -66 -63 -12 -7 59 38 25 55 62 57 130 142 139 125 131 115 92 70 58 50 47 41 35 32 27 38 61 75 100 122 137 154 159 158 168 183 166 151 154
107 72 53 89 37 85 -38 -31 16 10 29 27 25 63 47 39 115 80 53 18 12 29 40 41 35 35 61 61 55 70 82 97 108 112 136 162 169 169 178 176 160 174 169 149
59 70 126 167 83 14 -3 -25 -6 42 27 117 129 125 88 3 32 66 78 45 9 10 30 40 26 52 41 50 60 56 80 105 128 116 124 146 168 192 193 179 175 169 163 155
73 59 96 103 149 179 31 28 15 30 12 116 131 139 160 45 70 62 84 81 80 77 76 82 72 35 29 36 49 51 70 111 112 126 138 155 163 168 155 170 179 151 134 125
100 105 126 110 99 48 38 41 -3 13 3 72 98 110 136 108 92 70 55 70 77 37 47 46 41 32 40 50 57 59 87 91 110 153 151 153 155 154 163 187 167 146 128 125
130 150 132 134 129 101 17 10 18 -5 43 41 54 83 89 85 108 53 31 29 38 51 43 38 35 38 52 59 55 61 74 106 132 165 156 156 162 169 171 163 156 145 133 107
95 105 117 142 106 67 51 26 -5 0 36 52 39 51 55 94 50 65 31 41 44 54 55 41 45 54 59 73 78 74 91 117 149 168 147 144 161 169 164 159 150 149 128 122
65 83 110 83 62 77 88 101 79 36 4 54 59 32 32 64 120 94 38 32 37 40 45 30 37 58 72 79 100 107 110 120 156 174 144 136 149 156 152 157 158 161 141 108
82 97 115 110 85 100 128 135 99 60 60 79 62 59 44 72 118 75 43 35 29 36 41 37 37 40 60 74 95 124 127 126 163 165 151 134 137 144 153 151 151 142 100 103
108 129 167 126 114 147 137 134 79 20 -15 -27 32 54 34 47 79 66 41 43 38 56 53 42 38 40 44 60 90 111 108 94 110 127 122 116 120 125 134 131 129 81 88 79

GFSCGP_con_3kmhel_105.txt.gz
Helicity
-20 -11 10 52 75 110 49 59 -14 -31 -136 192 361 399 389 373 365 394 388 339 267 208 202 140 82 66 54 -44 111 99 112 88 87 148 112 102 98 70 65 70 57 60 58 62
-15 8 6 46 19 56 45 54 18 -33 -74 72 126 525 318 349 353 331 370 398 365 265 255 197 99 75 87 83 88 70 108 110 94 116 60 71 50 60 61 70 71 74 79 85
1 18 -17 1 54 43 24 -23 -33 -46 -54 29 51 281 164 267 253 274 262 313 349 353 267 237 174 97 138 108 82 111 124 141 148 121 107 106 51 29 58 71 39 39 50 81
-55 33 42 35 26 2 2 4 -9 10 -19 31 24 229 199 215 183 199 191 170 217 254 240 217 173 161 96 78 136 102 128 181 139 -47 105 130 89 59 26 20 29 1 80 66
29 -48 -72 35 39 38 12 27 4 25 47 45 28 124 142 190 160 134 94 109 112 179 175 157 171 158 110 115 78 79 160 165 104 86 169 301 123 51 12 45 83 130 94 124
34 14 9 48 82 68 47 95 119 87 31 -22 13 47 94 95 126 154 89 29 105 127 119 121 114 107 118 111 101 82 95 111 134 144 120 143 121 183 229 185 114 104 115 119
30 34 13 22 51 134 108 105 67 36 57 21 85 59 73 76 106 187 92 -16 16 118 144 117 96 91 121 120 115 110 98 99 99 109 106 98 114 124 117 136 122 130 137 129
125 154 50 30 43 97 82 81 72 13 22 50 71 51 84 53 58 63 124 91 14 83 75 48 45 124 119 110 117 122 110 106 106 110 109 107 106 117 119 111 113 110 121 129
209 160 56 25 16 44 101 81 93 97 121 80 84 64 44 21 81 91 112 86 81 132 96 67 68 70 111 117 135 126 127 143 148 145 148 136 127 117 115 113 119 120 131 150
173 182 84 35 31 1 46 69 105 117 64 83 96 87 62 120 119 134 144 146 124 124 93 86 106 97 137 164 143 146 137 132 135 141 153 164 144 137 136 141 130 140 171 203
193 224 126 40 20 3 -28 58 78 56 140 80 101 147 27 82 106 128 127 83 91 113 121 120 111 91 107 181 169 147 144 158 154 149 158 159 166 163 154 154 163 178 199 228
152 233 195 167 -2 -60 -38 -18 45 89 82 112 82 72 37 109 107 80 59 54 104 110 104 123 106 103 106 97 117 121 145 168 155 150 132 130 145 166 180 177 167 177 208 230
136 250 321 173 104 -46 -57 -91 -15 72 63 130 115 69 100 91 61 82 81 101 132 136 124 112 120 134 119 108 119 137 143 151 151 148 134 125 126 131 143 152 156 169 193 206
153 247 345 344 215 -45 -68 -82 -44 24 55 68 134 137 87 126 66 67 100 95 110 132 162 150 125 120 134 134 120 121 144 159 164 160 149 142 138 139 147 162 172 177 175 182
174 268 205 132 79 -0 -75 -43 -78 -92 31 54 71 94 94 26 53 71 39 95 140 190 205 185 156 138 135 125 119 110 110 109 109 116 128 132 141 155 163 168 171 182 192 183
97 152 130 150 73 4 -52 -44 -24 -8 57 22 13 18 20 68 70 108 89 59 100 160 197 205 131 101 80 63 50 44 47 48 61 73 81 108 135 160 172 192 196 205 215 208
78 96 106 91 29 11 66 28 -26 -35 -25 26 32 22 81 49 37 78 136 112 120 136 128 135 123 93 79 69 53 49 47 51 49 61 87 107 127 148 170 196 211 214 203 186
96 105 92 82 43 173 65 -25 -43 -42 -17 59 49 66 61 60 53 50 120 144 142 117 112 97 71 57 50 44 52 58 68 70 74 84 101 129 157 178 183 181 189 206 198 181
70 96 118 132 135 75 57 5 3 -28 -34 47 50 87 111 88 12 24 151 83 96 74 78 92 79 55 51 60 70 67 67 79 102 107 118 137 168 186 188 186 195 213 217 204
68 71 105 116 157 179 109 24 2 -3 12 26 62 78 99 87 63 109 171 84 90 109 96 92 92 84 98 92 72 57 57 68 74 100 129 142 147 174 179 187 195 194 193 198
79 86 122 132 139 84 54 46 40 69 26 -11 26 33 43 36 48 101 127 108 95 67 76 47 40 35 40 54 55 50 52 55 81 117 149 161 158 172 186 218 207 206 197 185
107 122 109 137 136 140 44 46 83 46 19 -2 11 34 44 53 49 45 83 50 41 44 42 40 29 36 38 41 51 56 60 68 82 121 158 183 172 186 200 191 193 166 147 131
83 98 119 146 141 71 74 71 58 38 26 13 -3 49 52 62 44 51 40 39 32 41 42 41 45 49 47 59 60 64 74 72 97 139 178 181 173 181 183 177 163 150 128 119
58 83 98 91 78 91 81 87 116 99 74 26 9 7 75 37 34 66 63 46 39 40 41 27 37 53 58 60 69 79 87 80 98 127 155 157 157 158 147 141 139 141 125 123
89 125 107 100 84 95 103 146 164 118 67 36 4 -15 -21 63 49 36 127 68 43 38 36 26 32 37 47 48 64 78 85 86 107 129 138 130 122 122 130 130 127 135 144 161
139 130 142 87 94 131 142 164 145 107 79 50 28 -32 -34 34 42 54 162 63 45 44 39 40 46 54 60 60 70 95 74 67 89 125 126 114 120 117 125 136 148 129 127 91

GFSCGP_con_3kmhel_108.txt.gz
Helicity
21 37 -11 58 101 125 62 27 -29 112 2 -3 -45 214 266 98 93 116 159 211 200 169 135 113 108 68 31 6 51 90 79 47 111 135 138 121 89 85 81 82 70 67 58 51
26 16 -17 17 54 41 47 16 45 21 23 -66 20 181 297 188 103 119 127 181 118 72 99 68 51 57 67 79 150 80 75 40 73 123 122 137 112 109 76 71 86 86 83 59
-0 14 -8 -10 17 37 29 32 22 23 7 -6 8 75 208 159 163 147 156 161 166 111 58 88 72 190 86 48 71 -5 83 85 76 118 145 115 107 128 107 80 84 75 54 62
27 3 22 36 39 44 38 8 -2 -12 -2 41 2 59 100 129 198 160 118 116 146 182 184 144 214 197 68 -89 143 49 44 99 82 119 66 54 64 128 28 61 49 42 41 58
62 33 12 -10 66 69 82 56 8 -19 17 58 18 85 9 163 257 193 148 139 129 140 188 237 217 200 106 51 16 14 124 74 82 182 181 82 -113 75 82 9 81 64 51 70
48 33 39 33 42 85 67 71 37 25 16 80 71 77 68 83 112 110 173 159 93 102 118 113 107 132 111 139 78 37 125 196 193 81 79 98 13 73 49 5 87 42 74 102
58 50 43 51 85 62 46 25 49 59 47 73 65 90 113 85 72 199 176 129 135 120 131 151 117 103 118 103 118 116 76 69 122 147 124 113 150 197 110 39 44 26 29 85
142 194 64 38 57 50 10 71 92 49 40 63 93 122 116 88 98 127 171 125 80 -14 129 162 148 145 100 83 91 89 88 77 82 105 89 75 60 142 104 71 114 118 136 143
127 207 86 50 21 11 7 35 91 74 79 82 104 84 76 59 92 100 162 120 71 45 86 137 121 59 65 81 87 81 84 88 77 90 88 109 124 106 107 103 108 124 120 136
112 165 118 68 32 -6 -55 1 43 76 40 59 71 101 99 150 153 133 155 125 103 106 102 81 128 105 74 129 102 121 121 109 98 107 120 132 141 147 149 130 126 141 155 158
141 118 178 83 82 36 -23 -101 -39 42 149 74 45 80 81 152 152 156 143 107 107 121 117 107 70 50 57 142 112 166 173 163 137 133 142 152 166 175 176 174 182 181 189 200
113 161 192 186 59 -17 -41 -86 16 30 -7 71 164 93 52 69 79 89 85 86 87 105 138 110 82 86 97 99 157 224 203 183 174 156 141 148 169 169 178 186 188 175 177 186
108 200 231 251 167 41 -5 -89 -162 81 53 41 48 63 113 88 90 84 89 93 95 116 134 149 134 119 117 113 167 208 196 183 193 190 170 159 147 142 148 154 169 175 196 226
112 172 215 225 195 20 -27 -50 -98 -83 -86 63 85 126 121 151 166 140 96 97 133 135 136 137 154 159 130 103 111 128 152 162 160 155 147 133 121 120 127 141 154 180 196 223
101 163 147 130 98 13 -64 -22 -47 -66 -60 -96 56 125 190 122 107 134 108 87 110 142 167 139 125 140 154 157 116 99 111 127 138 145 154 158 165 164 164 162 164 176 184 192
47 112 99 118 63 30 42 12 -12 -19 -20 -28 20 16 -2 105 67 98 95 91 104 157 221 187 140 115 118 133 148 155 140 123 117 135 149 153 161 169 168 175 190 205 220 215
55 89 88 85 38 75 176 41 -16 -25 -26 -29 -14 50 38 85 65 111 162 133 146 127 135 135 137 112 83 70 64 66 71 84 94 98 99 103 110 125 142 161 182 192 198 206
66 86 88 84 62 143 97 -4 -10 -16 -29 -35 -24 30 54 65 122 92 96 110 132 124 117 92 78 95 106 102 90 70 54 48 53 58 68 83 98 115 141 158 162 179 188 187
35 67 82 94 110 104 117 61 18 -4 -16 -11 -11 44 41 96 58 91 136 179 181 178 161 133 119 92 73 60 58 62 52 53 70 78 82 91 112 130 140 152 176 206 228 225
47 58 75 112 116 127 158 67 23 13 65 16 -6 23 55 90 56 81 187 163 140 197 187 140 130 108 67 67 65 70 67 71 67 97 109 128 131 137 144 166 187 203 207 225
64 77 92 118 121 128 106 44 64 157 155 31 -0 -10 42 44 23 51 85 76 90 134 203 159 155 140 125 109 81 65 64 62 88 103 106 120 137 155 171 227 230 220 229 223
78 103 97 113 118 129 108 117 164 109 69 40 5 -20 -31 44 36 24 37 59 55 48 81 75 73 67 64 69 64 61 58 77 77 81 101 123 145 177 188 189 195 192 190 185
59 55 74 90 109 110 122 122 99 119 113 89 42 9 -15 -21 67 43 43 53 49 38 28 29 20 6 18 37 44 59 73 83 73 83 109 139 155 160 165 175 179 184 154 146
57 66 55 62 81 98 90 97 119 136 144 99 48 -6 -23 -41 33 70 49 56 53 45 45 45 49 51 57 54 55 63 75 80 76 86 110 135 145 143 141 151 151 156 145 130
76 113 76 72 66 99 104 115 158 171 110 86 65 27 -21 -53 -68 51 62 66 63 52 40 31 41 44 60 56 61 76 76 75 84 94 107 115 123 122 126 120 121 125 123 124
168 148 138 71 90 97 122 162 155 138 135 141 144 86 25 -65 -77 -112 69 82 76 56 54 51 33 32 53 66 65 76 99 74 69 82 91 100 110 102 103 126 142 136 142 134

GFSCGP_con_3kmhel_111.txt.gz
Helicity
59 57 93 13 13 47 49 28 18 -7 75 11 8 3 16 216 79 151 130 118 75 62 66 54 -15 -31 -23 100 134 86 115 89 142 161 160 141 128 133 128 117 79 79 72 54
29 54 25 16 86 60 50 14 -15 48 -3 -17 20 17 8 50 107 117 104 109 99 175 142 87 80 59 88 84 110 175 115 102 117 139 148 158 166 159 126 120 113 114 111 99
11 4 -11 -5 40 61 43 67 46 26 -43 -35 -38 -53 -10 91 87 92 89 101 91 142 170 85 90 40 77 205 119 151 111 133 107 107 145 163 177 196 181 129 114 93 83 93
35 -2 -6 -20 14 65 99 56 31 5 -25 0 4 -18 -65 74 44 63 55 72 125 118 111 145 17 33 96 87 291 97 123 145 100 72 118 134 189 187 187 165 133 98 62 56
68 27 9 18 3 74 99 74 71 48 31 43 -22 -9 -31 39 48 68 46 62 74 95 83 36 59 49 95 46 -108 48 180 73 67 55 99 93 103 121 166 203 192 137 96 82
36 34 50 44 -23 -7 52 31 18 41 40 64 64 65 -53 14 0 63 78 12 53 70 105 106 91 115 125 149 105 98 141 192 84 75 84 73 74 96 119 113 112 69 82 65
54 64 39 38 38 26 -4 42 69 43 55 111 59 102 151 85 66 64 101 106 54 30 84 116 140 126 159 160 100 45 107 97 72 16 -2 99 53 104 128 64 225 139 30 63
143 198 77 17 25 31 -27 15 44 58 75 85 38 101 94 49 92 63 174 243 214 122 77 108 84 87 86 130 44 120 136 70 94 106 22 -22 10 124 164 123 71 133 -99 -124
150 215 71 40 9 3 -12 -44 69 73 70 70 53 54 27 67 93 73 86 139 134 114 126 87 99 83 76 77 82 122 112 57 83 131 131 73 12 138 88 96 -6 9 -22 -1
101 202 152 79 21 21 -49 -66 11 51 34 13 15 86 126 96 109 131 101 124 97 91 101 108 157 161 145 109 85 58 62 45 85 96 83 94 45 85 110 117 60 45 38 77
68 153 208 118 144 65 -8 -86 -49 -13 64 52 43 108 107 133 114 114 121 134 126 82 116 109 155 164 141 141 133 95 106 101 98 109 97 112 130 150 153 141 132 166 191 179
83 111 198 128 91 16 -23 -58 -134 -130 31 46 63 51 40 67 77 77 88 101 118 114 125 141 125 98 114 113 106 85 113 142 148 143 138 136 161 182 189 231 246 209 199 200
68 156 126 304 184 103 39 -42 -73 -37 24 19 93 31 49 75 64 104 95 97 97 122 107 110 122 109 88 85 122 147 146 86 135 161 144 149 144 143 160 170 171 183 204 234
69 109 132 107 107 92 4 -78 -74 -61 -67 36 62 23 61 136 157 125 105 106 114 132 141 115 80 73 78 72 72 155 261 231 180 197 187 159 150 152 157 152 156 181 197 213
59 98 100 93 73 37 21 -27 -69 -74 -50 -60 12 25 77 120 137 145 106 113 124 182 190 174 153 119 89 82 87 88 109 128 144 169 167 173 165 166 157 153 157 166 166 177
27 84 87 97 70 66 118 26 4 -22 -27 -45 -29 -3 58 62 95 92 80 78 121 141 168 174 146 148 141 118 101 86 87 106 119 132 150 158 160 153 161 181 180 186 198 214
44 76 74 89 77 108 186 100 27 -3 -19 -35 -52 -45 54 45 36 82 129 129 97 102 102 102 108 113 109 113 119 122 112 102 97 98 109 122 136 154 168 178 194 207 207 204
59 65 73 79 101 132 148 59 39 27 -3 -17 -20 -24 12 80 88 61 136 151 172 134 105 98 85 92 91 89 81 72 67 66 71 75 78 78 88 119 135 146 154 164 173 176
41 47 69 89 89 119 151 120 100 97 70 29 -28 -10 -16 36 21 84 144 160 141 178 159 149 138 113 87 71 79 73 58 48 46 48 54 62 81 109 124 136 159 186 211 212
46 53 64 94 117 131 160 126 46 37 128 96 41 0 -25 -12 -14 66 125 128 126 129 147 171 156 146 111 101 99 82 66 55 48 42 52 78 100 113 127 154 192 226 230 267
60 65 85 104 112 118 153 104 65 225 215 95 56 27 0 -10 -21 20 47 80 69 59 84 102 148 184 151 112 81 59 56 46 66 76 93 99 128 159 192 224 233 236 221 229
69 88 97 94 119 115 165 143 163 151 113 123 88 38 3 -13 -21 8 31 28 37 52 55 42 79 151 173 153 112 96 87 99 104 98 101 115 134 181 223 197 215 193 194 203
51 75 72 85 99 103 153 102 125 103 150 162 140 127 51 1 -30 -43 46 49 39 23 25 28 35 38 59 93 51 64 64 69 72 71 75 90 126 151 160 190 196 196 177 180
59 95 93 57 70 93 116 119 98 139 162 170 140 126 81 32 -29 -64 -76 4 61 48 38 39 35 29 23 32 37 56 65 66 59 61 76 88 106 131 143 159 163 175 170 170
96 130 90 71 51 73 85 118 135 152 141 126 139 154 128 54 -33 -72 -93 -107 -47 71 59 42 42 34 33 39 45 52 62 65 70 72 85 83 102 125 140 133 127 144 126 134
209 178 166 81 103 85 93 113 140 140 119 105 120 140 133 56 -13 -62 -78 -106 -112 -30 60 49 44 41 41 48 55 68 72 81 64 74 80 97 110 123 148 144 144 158 135 156

GFSCGP_con_3kmhel_114.txt.gz
Helicity
112 57 51 25 28 7 72 78 77 36 215 49 80 95 22 6 74 15 125 125 134 148 36 77 84 82 34 76 155 102 71 137 263 244 204 221 200 188 192 182 147 114 103 102
25 61 12 -21 -23 61 86 95 39 65 96 -51 14 57 26 -4 44 8 73 108 99 121 96 54 63 38 -7 -14 28 147 50 88 235 283 211 233 240 199 155 130 105 100 101 92
28 9 -18 -18 -11 50 93 112 73 79 -33 -35 3 22 32 4 14 23 60 77 102 113 117 126 72 70 55 97 163 204 280 106 171 248 290 282 255 262 246 217 201 174 156 141
34 -6 -18 -12 -21 46 80 55 110 60 41 39 -52 2 -2 21 10 30 48 97 167 150 174 93 34 120 60 61 115 171 253 177 188 154 198 178 199 188 195 207 206 197 179 153
65 26 20 26 47 33 44 73 79 59 37 10 4 -1 15 11 16 31 40 82 125 169 172 106 33 22 83 33 77 73 122 222 143 180 146 200 188 198 207 225 210 219 212 180
82 51 61 52 3 13 -2 45 52 22 28 40 46 53 161 47 42 38 33 61 77 101 132 63 21 48 18 2 -33 -17 67 52 145 164 214 179 179 181 164 131 168 158 166 171
93 99 64 49 41 21 -2 6 43 49 52 58 33 55 84 32 6 37 128 77 74 77 86 114 67 54 53 36 -41 7 45 101 112 86 101 60 154 134 167 147 164 161 151 158
182 182 121 45 56 26 -29 -33 -36 1 54 53 32 89 137 32 66 0 74 118 124 43 64 70 117 163 104 100 91 49 27 65 105 196 122 91 118 99 120 82 90 102 109 136
155 199 108 65 34 26 -10 -99 33 7 48 226 -3 13 74 105 200 73 -88 144 158 158 65 67 83 85 74 93 93 126 83 37 -39 21 17 2 1 98 145 156 174 121 61 106
140 186 145 85 26 16 -10 -37 -67 60 76 66 46 67 124 142 108 139 106 87 66 88 206 135 87 69 46 56 109 159 98 109 100 92 124 78 116 98 93 72 1 98 105 46
78 147 138 135 152 53 0 -67 -50 24 25 31 76 59 75 88 84 61 60 61 56 78 106 146 152 142 147 118 72 77 59 59 48 99 120 93 97 73 112 51 13 -75 -13 -82
69 135 139 175 139 105 14 -30 -54 -58 -30 -22 41 61 51 56 50 71 36 31 46 56 51 48 62 107 125 106 129 96 105 102 80 63 134 112 125 158 170 118 108 143 169 197
71 118 90 272 217 136 71 -16 -28 -31 15 12 10 -24 154 73 126 96 68 53 57 80 78 68 72 73 96 138 135 177 144 134 169 126 126 110 108 149 170 218 238 236 213 200
59 98 127 150 171 130 131 -15 -22 -24 -26 12 8 3 41 96 98 122 124 78 86 92 89 94 60 53 80 99 133 146 212 275 183 132 146 146 136 115 149 161 157 169 200 195
62 91 75 73 103 86 104 69 2 -12 -18 -51 -35 -15 55 56 120 132 85 96 108 113 116 123 109 98 83 90 88 95 106 160 213 211 125 85 128 133 171 174 184 172 161 169
43 90 78 96 92 82 113 86 52 6 -2 -19 -38 -27 53 40 35 57 80 152 142 128 157 123 112 116 119 107 74 59 64 69 102 168 221 197 128 111 143 150 153 163 165 175
57 80 88 119 123 99 117 116 104 64 15 -4 -22 -46 -70 -16 42 45 105 110 104 137 132 135 120 83 104 101 89 97 68 55 67 88 99 101 99 126 146 151 154 164 177 197
65 74 78 91 108 125 172 95 87 74 79 58 -5 -24 -14 -15 72 83 113 164 99 80 76 99 78 79 71 71 79 73 55 51 54 53 55 72 89 103 122 147 158 176 180 188
40 51 68 92 92 123 168 169 148 127 97 128 65 10 -10 -21 16 -8 67 100 134 117 92 65 58 53 35 37 55 67 73 60 44 52 46 46 62 84 93 110 126 156 182 193
38 57 68 67 102 116 168 164 101 111 158 103 56 27 4 17 31 -19 30 64 75 84 89 94 131 106 87 75 35 39 44 49 61 55 41 46 60 82 96 111 142 192 209 219
43 53 84 94 93 71 161 154 116 205 211 159 116 79 35 29 5 -8 -18 3 50 58 74 49 66 75 90 112 108 106 86 73 70 74 83 69 78 97 126 164 226 238 229 243
64 75 75 74 93 82 173 129 138 161 183 174 173 139 95 40 -4 -24 -45 -51 -18 41 49 45 54 52 71 70 80 94 96 89 85 92 91 87 93 143 192 252 266 245 248 235
25 64 66 95 89 67 130 133 165 159 167 218 212 213 167 106 42 -19 -54 -73 -80 -42 41 45 45 43 34 44 52 71 78 90 78 76 77 73 107 182 207 249 232 223 221 221
44 97 99 67 66 127 116 128 136 137 159 229 213 196 200 185 110 24 -48 -78 -97 -88 -45 51 55 49 51 42 40 35 46 53 63 48 51 62 78 124 140 176 187 196 184 184
129 164 94 96 62 96 72 118 158 185 176 159 136 156 155 175 144 79 -7 -59 -97 -100 -90 -46 32 48 34 33 42 42 48 57 56 47 63 82 92 100 120 141 150 141 137 153
157 118 171 103 76 133 81 152 174 176 132 122 121 112 123 138 96 49 36 -22 -52 -80 -71 -68 -43 31 47 41 46 51 50 65 60 45 47 70 95 121 142 146 151 157 148 145

GFSCGP_con_3kmhel_117.txt.gz
Helicity
22 53 44 41 -25 2 25 24 21 38 -17 185 236 290 241 114 135 44 65 40 58 112 75 96 173 104 55 68 134 157 186 198 289 254 339 376 311 353 292 277 233 193 165 135
16 43 80 19 15 15 23 33 70 14 46 92 22 193 166 49 113 81 74 28 80 117 130 188 82 42 27 22 166 213 310 242 217 194 272 318 348 314 246 232 219 176 154 132
36 17 -23 -26 -42 31 39 35 44 65 34 118 19 38 36 11 80 48 88 153 100 81 119 61 59 55 68 72 99 77 171 103 336 192 258 334 319 313 263 210 201 170 136 120
48 23 17 -17 -14 81 22 48 56 81 56 5 27 19 54 209 54 33 95 56 60 74 103 136 92 53 92 128 134 95 138 132 202 237 152 180 218 206 212 207 183 163 141 139
97 59 40 51 51 17 11 52 67 58 51 50 12 90 155 68 85 79 64 24 73 97 63 34 89 5 103 118 69 133 147 229 306 314 221 113 115 171 213 206 237 248 225 191
133 64 78 69 66 88 34 46 70 36 37 79 51 46 188 177 15 44 47 76 46 98 192 173 44 9 -4 -18 -27 79 79 384 241 381 344 76 75 154 173 246 264 258 254 212
85 107 59 36 59 43 16 14 32 54 83 114 76 40 118 129 -4 -6 135 183 91 83 185 119 22 -28 -37 31 30 -45 43 145 286 176 186 122 165 173 155 169 175 197 207 202
166 183 105 43 55 61 3 -47 -34 30 32 122 98 81 88 97 -2 -63 69 387 140 109 62 83 -15 21 24 44 12 -1 -17 80 170 85 164 152 183 181 201 188 179 163 155 125
142 180 88 68 20 41 19 -26 14 44 178 114 149 136 53 163 84 -101 -84 182 323 218 111 63 51 43 55 6 85 72 18 -28 -96 113 116 165 101 146 103 144 133 123 111 101
137 170 100 92 46 30 25 96 -14 58 124 71 96 101 144 106 53 5 -24 -100 73 114 144 133 109 62 20 6 16 72 88 83 72 90 77 18 57 50 88 69 73 72 98 81
100 163 145 109 91 27 13 42 22 36 55 77 89 43 127 128 48 -9 16 22 43 49 51 89 132 93 55 22 1 42 30 102 94 72 19 24 -57 -33 17 -37 93 162 137 183
94 159 189 176 132 44 6 13 25 -33 38 3 -10 29 163 189 84 21 49 51 47 5 26 51 123 84 85 58 66 30 29 40 66 58 28 35 74 71 95 109 35 19 140 -93
88 98 141 116 113 38 -4 12 30 12 -26 28 23 -2 104 119 125 84 59 50 57 77 78 72 75 94 51 69 94 111 116 83 74 108 130 157 100 86 74 54 56 87 152 104
80 88 123 139 156 122 30 -28 4 -2 -51 -26 2 -2 25 69 73 81 120 114 62 63 77 92 100 101 103 94 89 98 118 129 146 140 112 113 108 103 93 82 112 109 123 128
60 87 80 73 70 51 80 52 -2 -23 -11 0 4 -22 -4 43 31 31 55 67 82 107 108 83 96 101 99 92 87 73 69 81 113 136 182 87 47 52 90 81 75 92 115 121
44 74 76 64 88 68 62 59 76 50 15 6 -2 -12 -16 -16 12 22 58 82 70 74 98 108 94 96 105 90 84 73 69 63 59 91 108 129 119 125 69 46 100 58 87 115
53 70 62 66 66 65 82 117 103 101 108 64 146 53 -13 -30 -71 -69 72 71 72 80 81 105 110 83 71 91 84 77 70 66 59 56 73 90 71 47 -10 9 31 60 76 99
52 58 73 83 52 85 125 96 100 127 125 141 122 91 29 -22 -27 -28 -8 60 83 79 77 98 110 80 47 50 68 69 65 56 59 63 64 63 61 56 55 55 64 80 94 108
33 50 57 79 75 62 92 108 126 140 108 147 182 126 79 28 -6 -13 -20 -37 46 76 92 79 66 56 64 65 60 53 66 66 56 52 43 41 47 57 67 75 79 93 123 130
22 43 56 61 79 94 102 107 101 90 103 130 141 141 115 89 199 29 -35 -27 -21 -33 49 75 79 68 85 87 71 52 55 58 70 70 62 28 32 47 57 66 79 112 114 115
21 28 55 63 66 45 75 127 111 137 127 131 137 155 160 197 149 52 -37 -52 -39 -31 -49 32 79 74 63 67 77 77 56 56 57 52 50 52 39 55 75 98 130 138 140 151
31 42 39 41 42 30 119 119 127 109 107 142 137 141 147 169 150 78 9 -43 -72 -67 -50 -53 -60 45 59 62 75 84 93 108 108 96 75 62 71 91 123 148 168 183 191 192
18 36 32 81 52 50 90 74 114 133 151 153 165 147 157 173 185 150 68 -11 -58 -81 -90 -75 -55 -36 46 42 31 44 71 82 75 72 92 99 98 108 134 169 182 211 211 223
23 72 73 34 23 118 145 151 140 146 160 179 208 211 195 163 159 153 100 32 -39 -81 -92 -75 -79 -71 -57 44 29 16 25 30 35 53 68 75 49 65 89 118 140 162 180 183
89 111 71 88 48 45 63 161 191 178 182 175 165 163 167 149 133 120 92 59 2 -38 -76 -70 -65 -63 -66 -48 21 5 17 29 41 54 65 59 53 51 84 103 110 121 138 158
198 104 161 78 60 91 37 87 210 224 163 144 144 134 120 134 109 92 77 68 33 6 -24 -34 -47 -61 -67 -50 4 21 39 54 65 66 55 49 38 62 73 99 105 112 121 96